<?xml version="1.0" encoding="UTF-8" standalone="no" ?><gpx xmlns="http://www.topografix.com/GPX/1/1" xmlns:gpxx="http://www.garmin.com/xmlschemas/GpxExtensions/v3" xmlns:wptx1="http://www.garmin.com/xmlschemas/WaypointExtension/v1" xmlns:gpxtpx="http://www.garmin.com/xmlschemas/TrackPointExtension/v1" creator="GuideVTT.com" version="1.1" xmlns:xsi="http://www.w3.org/2001/XMLSchema-instance" xsi:schemaLocation="http://www.topografix.com/GPX/1/1 http://www.topografix.com/GPX/1/1/gpx.xsd http://www.garmin.com/xmlschemas/GpxExtensions/v3 http://www8.garmin.com/xmlschemas/GpxExtensionsv3.xsd http://www.garmin.com/xmlschemas/WaypointExtension/v1 http://www8.garmin.com/xmlschemas/WaypointExtensionv1.xsd http://www.garmin.com/xmlschemas/TrackPointExtension/v1 http://www.garmin.com/xmlschemas/TrackPointExtensionv1.xsd">
<metadata><link href="http://www.garmin.com"><text>Garmin International</text></link><time>2013-06-22T15:13:50Z</time></metadata>
<trk><name>2019-11-17-01.gpx</name><extensions><gpxx:TrackExtension><gpxx:DisplayColor>Cyan</gpxx:DisplayColor></gpxx:TrackExtension></extensions><trkseg>
<trkpt lat="48.496564" lon="2.634844"><ele></ele><time>2020-1-11T5:13:25Z</time></trkpt>
<trkpt lat="48.49652" lon="2.634794"><ele></ele><time>2020-1-11T5:13:28Z</time></trkpt>
<trkpt lat="48.496604" lon="2.634742"><ele></ele><time>2020-1-11T5:13:31Z</time></trkpt>
<trkpt lat="48.496675" lon="2.634858"><ele></ele><time>2020-1-11T5:13:34Z</time></trkpt>
<trkpt lat="48.496597" lon="2.634996"><ele></ele><time>2020-1-11T5:13:37Z</time></trkpt>
<trkpt lat="48.496428" lon="2.635107"><ele></ele><time>2020-1-11T5:13:40Z</time></trkpt>
<trkpt lat="48.496251" lon="2.635284"><ele></ele><time>2020-1-11T5:13:43Z</time></trkpt>
<trkpt lat="48.496186" lon="2.635394"><ele></ele><time>2020-1-11T5:13:46Z</time></trkpt>
<trkpt lat="48.496031" lon="2.635521"><ele></ele><time>2020-1-11T5:13:49Z</time></trkpt>
<trkpt lat="48.495939" lon="2.635606"><ele></ele><time>2020-1-11T5:13:52Z</time></trkpt>
<trkpt lat="48.49586" lon="2.635806"><ele></ele><time>2020-1-11T5:13:55Z</time></trkpt>
<trkpt lat="48.495743" lon="2.635953"><ele></ele><time>2020-1-11T5:13:58Z</time></trkpt>
<trkpt lat="48.495595" lon="2.636111"><ele></ele><time>2020-1-11T5:14:1Z</time></trkpt>
<trkpt lat="48.495513" lon="2.636184"><ele></ele><time>2020-1-11T5:14:4Z</time></trkpt>
<trkpt lat="48.495437" lon="2.636272"><ele></ele><time>2020-1-11T5:14:7Z</time></trkpt>
<trkpt lat="48.495365" lon="2.636367"><ele></ele><time>2020-1-11T5:14:10Z</time></trkpt>
<trkpt lat="48.495257" lon="2.636513"><ele></ele><time>2020-1-11T5:14:13Z</time></trkpt>
<trkpt lat="48.495138" lon="2.63667"><ele></ele><time>2020-1-11T5:14:16Z</time></trkpt>
<trkpt lat="48.495006" lon="2.636846"><ele></ele><time>2020-1-11T5:14:19Z</time></trkpt>
<trkpt lat="48.494871" lon="2.637011"><ele></ele><time>2020-1-11T5:14:22Z</time></trkpt>
<trkpt lat="48.494791" lon="2.637133"><ele></ele><time>2020-1-11T5:14:25Z</time></trkpt>
<trkpt lat="48.494669" lon="2.637293"><ele></ele><time>2020-1-11T5:14:28Z</time></trkpt>
<trkpt lat="48.494611" lon="2.637412"><ele></ele><time>2020-1-11T5:14:31Z</time></trkpt>
<trkpt lat="48.494471" lon="2.637514"><ele></ele><time>2020-1-11T5:14:34Z</time></trkpt>
<trkpt lat="48.494381" lon="2.637643"><ele></ele><time>2020-1-11T5:14:37Z</time></trkpt>
<trkpt lat="48.494263" lon="2.637781"><ele></ele><time>2020-1-11T5:14:40Z</time></trkpt>
<trkpt lat="48.494146" lon="2.63795"><ele></ele><time>2020-1-11T5:14:43Z</time></trkpt>
<trkpt lat="48.494008" lon="2.638118"><ele></ele><time>2020-1-11T5:14:46Z</time></trkpt>
<trkpt lat="48.493872" lon="2.63828"><ele></ele><time>2020-1-11T5:14:49Z</time></trkpt>
<trkpt lat="48.493798" lon="2.638367"><ele></ele><time>2020-1-11T5:14:52Z</time></trkpt>
<trkpt lat="48.49366" lon="2.638511"><ele></ele><time>2020-1-11T5:14:55Z</time></trkpt>
<trkpt lat="48.49352" lon="2.638691"><ele></ele><time>2020-1-11T5:14:58Z</time></trkpt>
<trkpt lat="48.493449" lon="2.638784"><ele></ele><time>2020-1-11T5:15:1Z</time></trkpt>
<trkpt lat="48.493321" lon="2.638949"><ele></ele><time>2020-1-11T5:15:4Z</time></trkpt>
<trkpt lat="48.493217" lon="2.639094"><ele></ele><time>2020-1-11T5:15:7Z</time></trkpt>
<trkpt lat="48.493151" lon="2.639245"><ele></ele><time>2020-1-11T5:15:10Z</time></trkpt>
<trkpt lat="48.49306" lon="2.639402"><ele></ele><time>2020-1-11T5:15:13Z</time></trkpt>
<trkpt lat="48.492925" lon="2.639456"><ele></ele><time>2020-1-11T5:15:16Z</time></trkpt>
<trkpt lat="48.492777" lon="2.639575"><ele></ele><time>2020-1-11T5:15:19Z</time></trkpt>
<trkpt lat="48.492657" lon="2.639734"><ele></ele><time>2020-1-11T5:15:22Z</time></trkpt>
<trkpt lat="48.492561" lon="2.639881"><ele></ele><time>2020-1-11T5:15:25Z</time></trkpt>
<trkpt lat="48.492479" lon="2.639964"><ele></ele><time>2020-1-11T5:15:28Z</time></trkpt>
<trkpt lat="48.492366" lon="2.640082"><ele></ele><time>2020-1-11T5:15:31Z</time></trkpt>
<trkpt lat="48.492226" lon="2.64024"><ele></ele><time>2020-1-11T5:15:34Z</time></trkpt>
<trkpt lat="48.492119" lon="2.640398"><ele></ele><time>2020-1-11T5:15:37Z</time></trkpt>
<trkpt lat="48.491994" lon="2.640596"><ele></ele><time>2020-1-11T5:15:40Z</time></trkpt>
<trkpt lat="48.491912" lon="2.640705"><ele></ele><time>2020-1-11T5:15:43Z</time></trkpt>
<trkpt lat="48.491838" lon="2.640788"><ele></ele><time>2020-1-11T5:15:46Z</time></trkpt>
<trkpt lat="48.491768" lon="2.64088"><ele></ele><time>2020-1-11T5:15:49Z</time></trkpt>
<trkpt lat="48.491648" lon="2.64102"><ele></ele><time>2020-1-11T5:15:52Z</time></trkpt>
<trkpt lat="48.491502" lon="2.641191"><ele></ele><time>2020-1-11T5:15:55Z</time></trkpt>
<trkpt lat="48.491403" lon="2.641362"><ele></ele><time>2020-1-11T5:15:58Z</time></trkpt>
<trkpt lat="48.491307" lon="2.641503"><ele></ele><time>2020-1-11T5:16:1Z</time></trkpt>
<trkpt lat="48.491167" lon="2.641643"><ele></ele><time>2020-1-11T5:16:4Z</time></trkpt>
<trkpt lat="48.491072" lon="2.641808"><ele></ele><time>2020-1-11T5:16:7Z</time></trkpt>
<trkpt lat="48.490978" lon="2.641912"><ele></ele><time>2020-1-11T5:16:10Z</time></trkpt>
<trkpt lat="48.49086" lon="2.642058"><ele></ele><time>2020-1-11T5:16:13Z</time></trkpt>
<trkpt lat="48.490756" lon="2.642197"><ele></ele><time>2020-1-11T5:16:16Z</time></trkpt>
<trkpt lat="48.49065" lon="2.642321"><ele></ele><time>2020-1-11T5:16:19Z</time></trkpt>
<trkpt lat="48.49054" lon="2.64243"><ele></ele><time>2020-1-11T5:16:22Z</time></trkpt>
<trkpt lat="48.490429" lon="2.642556"><ele></ele><time>2020-1-11T5:16:25Z</time></trkpt>
<trkpt lat="48.490308" lon="2.642709"><ele></ele><time>2020-1-11T5:16:28Z</time></trkpt>
<trkpt lat="48.490188" lon="2.642841"><ele></ele><time>2020-1-11T5:16:31Z</time></trkpt>
<trkpt lat="48.490033" lon="2.643061"><ele></ele><time>2020-1-11T5:16:34Z</time></trkpt>
<trkpt lat="48.489959" lon="2.643172"><ele></ele><time>2020-1-11T5:16:37Z</time></trkpt>
<trkpt lat="48.489848" lon="2.643304"><ele></ele><time>2020-1-11T5:16:40Z</time></trkpt>
<trkpt lat="48.48971" lon="2.64347"><ele></ele><time>2020-1-11T5:16:43Z</time></trkpt>
<trkpt lat="48.489628" lon="2.643603"><ele></ele><time>2020-1-11T5:16:46Z</time></trkpt>
<trkpt lat="48.489571" lon="2.643792"><ele></ele><time>2020-1-11T5:16:49Z</time></trkpt>
<trkpt lat="48.489504" lon="2.644049"><ele></ele><time>2020-1-11T5:16:52Z</time></trkpt>
<trkpt lat="48.489431" lon="2.64431"><ele></ele><time>2020-1-11T5:16:55Z</time></trkpt>
<trkpt lat="48.489402" lon="2.644461"><ele></ele><time>2020-1-11T5:16:58Z</time></trkpt>
<trkpt lat="48.489356" lon="2.644613"><ele></ele><time>2020-1-11T5:17:1Z</time></trkpt>
<trkpt lat="48.489327" lon="2.644778"><ele></ele><time>2020-1-11T5:17:4Z</time></trkpt>
<trkpt lat="48.489292" lon="2.644908"><ele></ele><time>2020-1-11T5:17:7Z</time></trkpt>
<trkpt lat="48.48925" lon="2.645051"><ele></ele><time>2020-1-11T5:17:10Z</time></trkpt>
<trkpt lat="48.489209" lon="2.645201"><ele></ele><time>2020-1-11T5:17:13Z</time></trkpt>
<trkpt lat="48.489167" lon="2.645349"><ele></ele><time>2020-1-11T5:17:16Z</time></trkpt>
<trkpt lat="48.489122" lon="2.645487"><ele></ele><time>2020-1-11T5:17:19Z</time></trkpt>
<trkpt lat="48.489094" lon="2.645619"><ele></ele><time>2020-1-11T5:17:22Z</time></trkpt>
<trkpt lat="48.489059" lon="2.645766"><ele></ele><time>2020-1-11T5:17:25Z</time></trkpt>
<trkpt lat="48.489011" lon="2.645979"><ele></ele><time>2020-1-11T5:17:28Z</time></trkpt>
<trkpt lat="48.489" lon="2.646116"><ele></ele><time>2020-1-11T5:17:31Z</time></trkpt>
<trkpt lat="48.488976" lon="2.646258"><ele></ele><time>2020-1-11T5:17:34Z</time></trkpt>
<trkpt lat="48.488922" lon="2.646462"><ele></ele><time>2020-1-11T5:17:37Z</time></trkpt>
<trkpt lat="48.488832" lon="2.646693"><ele></ele><time>2020-1-11T5:17:40Z</time></trkpt>
<trkpt lat="48.488769" lon="2.646821"><ele></ele><time>2020-1-11T5:17:43Z</time></trkpt>
<trkpt lat="48.488711" lon="2.646932"><ele></ele><time>2020-1-11T5:17:46Z</time></trkpt>
<trkpt lat="48.488594" lon="2.647202"><ele></ele><time>2020-1-11T5:17:49Z</time></trkpt>
<trkpt lat="48.488531" lon="2.64733"><ele></ele><time>2020-1-11T5:17:52Z</time></trkpt>
<trkpt lat="48.48846" lon="2.647462"><ele></ele><time>2020-1-11T5:17:55Z</time></trkpt>
<trkpt lat="48.488405" lon="2.647583"><ele></ele><time>2020-1-11T5:17:58Z</time></trkpt>
<trkpt lat="48.488337" lon="2.647715"><ele></ele><time>2020-1-11T5:18:1Z</time></trkpt>
<trkpt lat="48.488275" lon="2.647829"><ele></ele><time>2020-1-11T5:18:4Z</time></trkpt>
<trkpt lat="48.488213" lon="2.647932"><ele></ele><time>2020-1-11T5:18:7Z</time></trkpt>
<trkpt lat="48.48816" lon="2.64806"><ele></ele><time>2020-1-11T5:18:10Z</time></trkpt>
<trkpt lat="48.488058" lon="2.648288"><ele></ele><time>2020-1-11T5:18:13Z</time></trkpt>
<trkpt lat="48.487995" lon="2.648413"><ele></ele><time>2020-1-11T5:18:16Z</time></trkpt>
<trkpt lat="48.487924" lon="2.648544"><ele></ele><time>2020-1-11T5:18:19Z</time></trkpt>
<trkpt lat="48.487851" lon="2.648659"><ele></ele><time>2020-1-11T5:18:22Z</time></trkpt>
<trkpt lat="48.487792" lon="2.648801"><ele></ele><time>2020-1-11T5:18:25Z</time></trkpt>
<trkpt lat="48.487732" lon="2.648909"><ele></ele><time>2020-1-11T5:18:28Z</time></trkpt>
<trkpt lat="48.487668" lon="2.649011"><ele></ele><time>2020-1-11T5:18:31Z</time></trkpt>
<trkpt lat="48.487618" lon="2.649127"><ele></ele><time>2020-1-11T5:18:34Z</time></trkpt>
<trkpt lat="48.487527" lon="2.649353"><ele></ele><time>2020-1-11T5:18:37Z</time></trkpt>
<trkpt lat="48.487463" lon="2.649452"><ele></ele><time>2020-1-11T5:18:40Z</time></trkpt>
<trkpt lat="48.487414" lon="2.649568"><ele></ele><time>2020-1-11T5:18:43Z</time></trkpt>
<trkpt lat="48.487308" lon="2.649778"><ele></ele><time>2020-1-11T5:18:46Z</time></trkpt>
<trkpt lat="48.487263" lon="2.649901"><ele></ele><time>2020-1-11T5:18:49Z</time></trkpt>
<trkpt lat="48.487211" lon="2.65002"><ele></ele><time>2020-1-11T5:18:52Z</time></trkpt>
<trkpt lat="48.487147" lon="2.65013"><ele></ele><time>2020-1-11T5:18:55Z</time></trkpt>
<trkpt lat="48.487049" lon="2.650324"><ele></ele><time>2020-1-11T5:18:58Z</time></trkpt>
<trkpt lat="48.486983" lon="2.650428"><ele></ele><time>2020-1-11T5:19:1Z</time></trkpt>
<trkpt lat="48.486915" lon="2.650583"><ele></ele><time>2020-1-11T5:19:4Z</time></trkpt>
<trkpt lat="48.486858" lon="2.650712"><ele></ele><time>2020-1-11T5:19:7Z</time></trkpt>
<trkpt lat="48.486775" lon="2.650851"><ele></ele><time>2020-1-11T5:19:10Z</time></trkpt>
<trkpt lat="48.486682" lon="2.651028"><ele></ele><time>2020-1-11T5:19:13Z</time></trkpt>
<trkpt lat="48.486609" lon="2.651208"><ele></ele><time>2020-1-11T5:19:16Z</time></trkpt>
<trkpt lat="48.486518" lon="2.651391"><ele></ele><time>2020-1-11T5:19:19Z</time></trkpt>
<trkpt lat="48.486412" lon="2.651587"><ele></ele><time>2020-1-11T5:19:22Z</time></trkpt>
<trkpt lat="48.486333" lon="2.651758"><ele></ele><time>2020-1-11T5:19:25Z</time></trkpt>
<trkpt lat="48.486222" lon="2.651996"><ele></ele><time>2020-1-11T5:19:28Z</time></trkpt>
<trkpt lat="48.48617" lon="2.652113"><ele></ele><time>2020-1-11T5:19:31Z</time></trkpt>
<trkpt lat="48.486075" lon="2.652331"><ele></ele><time>2020-1-11T5:19:34Z</time></trkpt>
<trkpt lat="48.486016" lon="2.652435"><ele></ele><time>2020-1-11T5:19:37Z</time></trkpt>
<trkpt lat="48.485955" lon="2.65255"><ele></ele><time>2020-1-11T5:19:40Z</time></trkpt>
<trkpt lat="48.485899" lon="2.652665"><ele></ele><time>2020-1-11T5:19:43Z</time></trkpt>
<trkpt lat="48.485805" lon="2.65287"><ele></ele><time>2020-1-11T5:19:46Z</time></trkpt>
<trkpt lat="48.485692" lon="2.653087"><ele></ele><time>2020-1-11T5:19:49Z</time></trkpt>
<trkpt lat="48.485567" lon="2.653318"><ele></ele><time>2020-1-11T5:19:52Z</time></trkpt>
<trkpt lat="48.485508" lon="2.653442"><ele></ele><time>2020-1-11T5:19:55Z</time></trkpt>
<trkpt lat="48.485458" lon="2.653656"><ele></ele><time>2020-1-11T5:19:58Z</time></trkpt>
<trkpt lat="48.485434" lon="2.653794"><ele></ele><time>2020-1-11T5:20:1Z</time></trkpt>
<trkpt lat="48.485412" lon="2.653929"><ele></ele><time>2020-1-11T5:20:4Z</time></trkpt>
<trkpt lat="48.485398" lon="2.654071"><ele></ele><time>2020-1-11T5:20:7Z</time></trkpt>
<trkpt lat="48.48537" lon="2.654331"><ele></ele><time>2020-1-11T5:20:10Z</time></trkpt>
<trkpt lat="48.485342" lon="2.654586"><ele></ele><time>2020-1-11T5:20:13Z</time></trkpt>
<trkpt lat="48.485312" lon="2.654824"><ele></ele><time>2020-1-11T5:20:16Z</time></trkpt>
<trkpt lat="48.485292" lon="2.654967"><ele></ele><time>2020-1-11T5:20:19Z</time></trkpt>
<trkpt lat="48.485265" lon="2.655201"><ele></ele><time>2020-1-11T5:20:22Z</time></trkpt>
<trkpt lat="48.485244" lon="2.655364"><ele></ele><time>2020-1-11T5:20:25Z</time></trkpt>
<trkpt lat="48.485223" lon="2.655503"><ele></ele><time>2020-1-11T5:20:28Z</time></trkpt>
<trkpt lat="48.485199" lon="2.655646"><ele></ele><time>2020-1-11T5:20:31Z</time></trkpt>
<trkpt lat="48.485172" lon="2.655893"><ele></ele><time>2020-1-11T5:20:34Z</time></trkpt>
<trkpt lat="48.485142" lon="2.656144"><ele></ele><time>2020-1-11T5:20:37Z</time></trkpt>
<trkpt lat="48.485101" lon="2.656403"><ele></ele><time>2020-1-11T5:20:40Z</time></trkpt>
<trkpt lat="48.485082" lon="2.656536"><ele></ele><time>2020-1-11T5:20:43Z</time></trkpt>
<trkpt lat="48.485067" lon="2.656705"><ele></ele><time>2020-1-11T5:20:46Z</time></trkpt>
<trkpt lat="48.485051" lon="2.656859"><ele></ele><time>2020-1-11T5:20:49Z</time></trkpt>
<trkpt lat="48.484979" lon="2.657045"><ele></ele><time>2020-1-11T5:20:52Z</time></trkpt>
<trkpt lat="48.484936" lon="2.657242"><ele></ele><time>2020-1-11T5:20:55Z</time></trkpt>
<trkpt lat="48.484911" lon="2.657507"><ele></ele><time>2020-1-11T5:20:58Z</time></trkpt>
<trkpt lat="48.484907" lon="2.657686"><ele></ele><time>2020-1-11T5:21:1Z</time></trkpt>
<trkpt lat="48.484895" lon="2.657945"><ele></ele><time>2020-1-11T5:21:4Z</time></trkpt>
<trkpt lat="48.484872" lon="2.658077"><ele></ele><time>2020-1-11T5:21:7Z</time></trkpt>
<trkpt lat="48.484839" lon="2.658312"><ele></ele><time>2020-1-11T5:21:10Z</time></trkpt>
<trkpt lat="48.484812" lon="2.658568"><ele></ele><time>2020-1-11T5:21:13Z</time></trkpt>
<trkpt lat="48.484752" lon="2.65882"><ele></ele><time>2020-1-11T5:21:16Z</time></trkpt>
<trkpt lat="48.484709" lon="2.65907"><ele></ele><time>2020-1-11T5:21:19Z</time></trkpt>
<trkpt lat="48.484696" lon="2.659218"><ele></ele><time>2020-1-11T5:21:22Z</time></trkpt>
<trkpt lat="48.484686" lon="2.65936"><ele></ele><time>2020-1-11T5:21:25Z</time></trkpt>
<trkpt lat="48.484654" lon="2.659589"><ele></ele><time>2020-1-11T5:21:28Z</time></trkpt>
<trkpt lat="48.484586" lon="2.659718"><ele></ele><time>2020-1-11T5:21:31Z</time></trkpt>
<trkpt lat="48.484545" lon="2.659956"><ele></ele><time>2020-1-11T5:21:34Z</time></trkpt>
<trkpt lat="48.484516" lon="2.660195"><ele></ele><time>2020-1-11T5:21:37Z</time></trkpt>
<trkpt lat="48.484515" lon="2.660337"><ele></ele><time>2020-1-11T5:21:40Z</time></trkpt>
<trkpt lat="48.484464" lon="2.660513"><ele></ele><time>2020-1-11T5:21:43Z</time></trkpt>
<trkpt lat="48.48441" lon="2.660658"><ele></ele><time>2020-1-11T5:21:46Z</time></trkpt>
<trkpt lat="48.484374" lon="2.660796"><ele></ele><time>2020-1-11T5:21:49Z</time></trkpt>
<trkpt lat="48.484335" lon="2.660922"><ele></ele><time>2020-1-11T5:21:52Z</time></trkpt>
<trkpt lat="48.484285" lon="2.661161"><ele></ele><time>2020-1-11T5:21:55Z</time></trkpt>
<trkpt lat="48.484232" lon="2.661319"><ele></ele><time>2020-1-11T5:21:58Z</time></trkpt>
<trkpt lat="48.484205" lon="2.661463"><ele></ele><time>2020-1-11T5:22:1Z</time></trkpt>
<trkpt lat="48.484157" lon="2.661631"><ele></ele><time>2020-1-11T5:22:4Z</time></trkpt>
<trkpt lat="48.484134" lon="2.661811"><ele></ele><time>2020-1-11T5:22:7Z</time></trkpt>
<trkpt lat="48.484121" lon="2.661954"><ele></ele><time>2020-1-11T5:22:10Z</time></trkpt>
<trkpt lat="48.484084" lon="2.662099"><ele></ele><time>2020-1-11T5:22:13Z</time></trkpt>
<trkpt lat="48.48404" lon="2.662258"><ele></ele><time>2020-1-11T5:22:16Z</time></trkpt>
<trkpt lat="48.484015" lon="2.662396"><ele></ele><time>2020-1-11T5:22:19Z</time></trkpt>
<trkpt lat="48.48398" lon="2.66255"><ele></ele><time>2020-1-11T5:22:22Z</time></trkpt>
<trkpt lat="48.48393" lon="2.66268"><ele></ele><time>2020-1-11T5:22:25Z</time></trkpt>
<trkpt lat="48.483897" lon="2.662838"><ele></ele><time>2020-1-11T5:22:28Z</time></trkpt>
<trkpt lat="48.483821" lon="2.662958"><ele></ele><time>2020-1-11T5:22:31Z</time></trkpt>
<trkpt lat="48.483783" lon="2.663132"><ele></ele><time>2020-1-11T5:22:34Z</time></trkpt>
<trkpt lat="48.483772" lon="2.663293"><ele></ele><time>2020-1-11T5:22:37Z</time></trkpt>
<trkpt lat="48.483742" lon="2.663426"><ele></ele><time>2020-1-11T5:22:40Z</time></trkpt>
<trkpt lat="48.483704" lon="2.663579"><ele></ele><time>2020-1-11T5:22:43Z</time></trkpt>
<trkpt lat="48.483681" lon="2.663818"><ele></ele><time>2020-1-11T5:22:46Z</time></trkpt>
<trkpt lat="48.48366" lon="2.663957"><ele></ele><time>2020-1-11T5:22:49Z</time></trkpt>
<trkpt lat="48.483624" lon="2.664086"><ele></ele><time>2020-1-11T5:22:52Z</time></trkpt>
<trkpt lat="48.483592" lon="2.664297"><ele></ele><time>2020-1-11T5:22:55Z</time></trkpt>
<trkpt lat="48.483561" lon="2.664485"><ele></ele><time>2020-1-11T5:22:58Z</time></trkpt>
<trkpt lat="48.483515" lon="2.664657"><ele></ele><time>2020-1-11T5:23:1Z</time></trkpt>
<trkpt lat="48.483467" lon="2.664836"><ele></ele><time>2020-1-11T5:23:4Z</time></trkpt>
<trkpt lat="48.483393" lon="2.665062"><ele></ele><time>2020-1-11T5:23:7Z</time></trkpt>
<trkpt lat="48.483286" lon="2.665106"><ele></ele><time>2020-1-11T5:23:10Z</time></trkpt>
<trkpt lat="48.483172" lon="2.665132"><ele></ele><time>2020-1-11T5:23:13Z</time></trkpt>
<trkpt lat="48.483034" lon="2.66516"><ele></ele><time>2020-1-11T5:23:16Z</time></trkpt>
<trkpt lat="48.482904" lon="2.665086"><ele></ele><time>2020-1-11T5:23:19Z</time></trkpt>
<trkpt lat="48.482831" lon="2.664977"><ele></ele><time>2020-1-11T5:23:22Z</time></trkpt>
<trkpt lat="48.482752" lon="2.664798"><ele></ele><time>2020-1-11T5:23:25Z</time></trkpt>
<trkpt lat="48.482728" lon="2.664641"><ele></ele><time>2020-1-11T5:23:28Z</time></trkpt>
<trkpt lat="48.482686" lon="2.664474"><ele></ele><time>2020-1-11T5:23:31Z</time></trkpt>
<trkpt lat="48.482652" lon="2.664214"><ele></ele><time>2020-1-11T5:23:34Z</time></trkpt>
<trkpt lat="48.482557" lon="2.663934"><ele></ele><time>2020-1-11T5:23:37Z</time></trkpt>
<trkpt lat="48.482527" lon="2.663789"><ele></ele><time>2020-1-11T5:23:40Z</time></trkpt>
<trkpt lat="48.482492" lon="2.663634"><ele></ele><time>2020-1-11T5:23:43Z</time></trkpt>
<trkpt lat="48.482429" lon="2.663473"><ele></ele><time>2020-1-11T5:23:46Z</time></trkpt>
<trkpt lat="48.482391" lon="2.663313"><ele></ele><time>2020-1-11T5:23:49Z</time></trkpt>
<trkpt lat="48.482349" lon="2.663131"><ele></ele><time>2020-1-11T5:23:52Z</time></trkpt>
<trkpt lat="48.482306" lon="2.662954"><ele></ele><time>2020-1-11T5:23:55Z</time></trkpt>
<trkpt lat="48.482225" lon="2.662836"><ele></ele><time>2020-1-11T5:23:58Z</time></trkpt>
<trkpt lat="48.482257" lon="2.662646"><ele></ele><time>2020-1-11T5:24:1Z</time></trkpt>
<trkpt lat="48.482218" lon="2.66249"><ele></ele><time>2020-1-11T5:24:4Z</time></trkpt>
<trkpt lat="48.482169" lon="2.662336"><ele></ele><time>2020-1-11T5:24:7Z</time></trkpt>
<trkpt lat="48.482116" lon="2.662151"><ele></ele><time>2020-1-11T5:24:10Z</time></trkpt>
<trkpt lat="48.482058" lon="2.662005"><ele></ele><time>2020-1-11T5:24:13Z</time></trkpt>
<trkpt lat="48.481917" lon="2.661765"><ele></ele><time>2020-1-11T5:24:16Z</time></trkpt>
<trkpt lat="48.481843" lon="2.661422"><ele></ele><time>2020-1-11T5:24:19Z</time></trkpt>
<trkpt lat="48.481793" lon="2.661237"><ele></ele><time>2020-1-11T5:24:22Z</time></trkpt>
<trkpt lat="48.481708" lon="2.661012"><ele></ele><time>2020-1-11T5:24:25Z</time></trkpt>
<trkpt lat="48.481676" lon="2.660838"><ele></ele><time>2020-1-11T5:24:28Z</time></trkpt>
<trkpt lat="48.481607" lon="2.660653"><ele></ele><time>2020-1-11T5:24:31Z</time></trkpt>
<trkpt lat="48.48156" lon="2.660475"><ele></ele><time>2020-1-11T5:24:34Z</time></trkpt>
<trkpt lat="48.481502" lon="2.660313"><ele></ele><time>2020-1-11T5:24:37Z</time></trkpt>
<trkpt lat="48.481446" lon="2.660146"><ele></ele><time>2020-1-11T5:24:40Z</time></trkpt>
<trkpt lat="48.481388" lon="2.659999"><ele></ele><time>2020-1-11T5:24:43Z</time></trkpt>
<trkpt lat="48.481325" lon="2.659823"><ele></ele><time>2020-1-11T5:24:46Z</time></trkpt>
<trkpt lat="48.481226" lon="2.659529"><ele></ele><time>2020-1-11T5:24:49Z</time></trkpt>
<trkpt lat="48.4812" lon="2.659366"><ele></ele><time>2020-1-11T5:24:52Z</time></trkpt>
<trkpt lat="48.481158" lon="2.659211"><ele></ele><time>2020-1-11T5:24:55Z</time></trkpt>
<trkpt lat="48.481072" lon="2.659082"><ele></ele><time>2020-1-11T5:24:58Z</time></trkpt>
<trkpt lat="48.481009" lon="2.658917"><ele></ele><time>2020-1-11T5:25:1Z</time></trkpt>
<trkpt lat="48.480972" lon="2.658762"><ele></ele><time>2020-1-11T5:25:4Z</time></trkpt>
<trkpt lat="48.480935" lon="2.658623"><ele></ele><time>2020-1-11T5:25:7Z</time></trkpt>
<trkpt lat="48.480875" lon="2.658473"><ele></ele><time>2020-1-11T5:25:10Z</time></trkpt>
<trkpt lat="48.480826" lon="2.658328"><ele></ele><time>2020-1-11T5:25:13Z</time></trkpt>
<trkpt lat="48.480783" lon="2.658162"><ele></ele><time>2020-1-11T5:25:16Z</time></trkpt>
<trkpt lat="48.480732" lon="2.657998"><ele></ele><time>2020-1-11T5:25:19Z</time></trkpt>
<trkpt lat="48.480674" lon="2.657853"><ele></ele><time>2020-1-11T5:25:22Z</time></trkpt>
<trkpt lat="48.480626" lon="2.657716"><ele></ele><time>2020-1-11T5:25:25Z</time></trkpt>
<trkpt lat="48.480538" lon="2.657467"><ele></ele><time>2020-1-11T5:25:28Z</time></trkpt>
<trkpt lat="48.480472" lon="2.657154"><ele></ele><time>2020-1-11T5:25:31Z</time></trkpt>
<trkpt lat="48.480425" lon="2.657025"><ele></ele><time>2020-1-11T5:25:34Z</time></trkpt>
<trkpt lat="48.480368" lon="2.656884"><ele></ele><time>2020-1-11T5:25:37Z</time></trkpt>
<trkpt lat="48.480317" lon="2.656771"><ele></ele><time>2020-1-11T5:25:40Z</time></trkpt>
<trkpt lat="48.480237" lon="2.656512"><ele></ele><time>2020-1-11T5:25:43Z</time></trkpt>
<trkpt lat="48.480189" lon="2.656388"><ele></ele><time>2020-1-11T5:25:46Z</time></trkpt>
<trkpt lat="48.480125" lon="2.656261"><ele></ele><time>2020-1-11T5:25:49Z</time></trkpt>
<trkpt lat="48.480095" lon="2.656116"><ele></ele><time>2020-1-11T5:25:52Z</time></trkpt>
<trkpt lat="48.48001" lon="2.6559"><ele></ele><time>2020-1-11T5:25:55Z</time></trkpt>
<trkpt lat="48.479971" lon="2.655775"><ele></ele><time>2020-1-11T5:25:58Z</time></trkpt>
<trkpt lat="48.479924" lon="2.655653"><ele></ele><time>2020-1-11T5:26:1Z</time></trkpt>
<trkpt lat="48.479897" lon="2.655508"><ele></ele><time>2020-1-11T5:26:4Z</time></trkpt>
<trkpt lat="48.479819" lon="2.655262"><ele></ele><time>2020-1-11T5:26:7Z</time></trkpt>
<trkpt lat="48.479765" lon="2.655093"><ele></ele><time>2020-1-11T5:26:10Z</time></trkpt>
<trkpt lat="48.479708" lon="2.654897"><ele></ele><time>2020-1-11T5:26:13Z</time></trkpt>
<trkpt lat="48.479654" lon="2.654705"><ele></ele><time>2020-1-11T5:26:16Z</time></trkpt>
<trkpt lat="48.479596" lon="2.654502"><ele></ele><time>2020-1-11T5:26:19Z</time></trkpt>
<trkpt lat="48.47951" lon="2.654325"><ele></ele><time>2020-1-11T5:26:22Z</time></trkpt>
<trkpt lat="48.479462" lon="2.654161"><ele></ele><time>2020-1-11T5:26:25Z</time></trkpt>
<trkpt lat="48.479394" lon="2.653897"><ele></ele><time>2020-1-11T5:26:28Z</time></trkpt>
<trkpt lat="48.4793" lon="2.653691"><ele></ele><time>2020-1-11T5:26:31Z</time></trkpt>
<trkpt lat="48.479259" lon="2.653562"><ele></ele><time>2020-1-11T5:26:34Z</time></trkpt>
<trkpt lat="48.4792" lon="2.653373"><ele></ele><time>2020-1-11T5:26:37Z</time></trkpt>
<trkpt lat="48.479133" lon="2.653151"><ele></ele><time>2020-1-11T5:26:40Z</time></trkpt>
<trkpt lat="48.479091" lon="2.653025"><ele></ele><time>2020-1-11T5:26:43Z</time></trkpt>
<trkpt lat="48.479051" lon="2.652867"><ele></ele><time>2020-1-11T5:26:46Z</time></trkpt>
<trkpt lat="48.479015" lon="2.6527"><ele></ele><time>2020-1-11T5:26:49Z</time></trkpt>
<trkpt lat="48.478933" lon="2.65254"><ele></ele><time>2020-1-11T5:26:52Z</time></trkpt>
<trkpt lat="48.478844" lon="2.652467"><ele></ele><time>2020-1-11T5:26:55Z</time></trkpt>
<trkpt lat="48.478706" lon="2.652434"><ele></ele><time>2020-1-11T5:26:58Z</time></trkpt>
<trkpt lat="48.478551" lon="2.65248"><ele></ele><time>2020-1-11T5:27:1Z</time></trkpt>
<trkpt lat="48.478468" lon="2.652537"><ele></ele><time>2020-1-11T5:27:4Z</time></trkpt>
<trkpt lat="48.478331" lon="2.652695"><ele></ele><time>2020-1-11T5:27:7Z</time></trkpt>
<trkpt lat="48.478194" lon="2.652854"><ele></ele><time>2020-1-11T5:27:10Z</time></trkpt>
<trkpt lat="48.478118" lon="2.652944"><ele></ele><time>2020-1-11T5:27:13Z</time></trkpt>
<trkpt lat="48.478033" lon="2.652999"><ele></ele><time>2020-1-11T5:27:16Z</time></trkpt>
<trkpt lat="48.477947" lon="2.653044"><ele></ele><time>2020-1-11T5:27:19Z</time></trkpt>
<trkpt lat="48.47786" lon="2.653118"><ele></ele><time>2020-1-11T5:27:22Z</time></trkpt>
<trkpt lat="48.47778" lon="2.653183"><ele></ele><time>2020-1-11T5:27:25Z</time></trkpt>
<trkpt lat="48.477592" lon="2.653318"><ele></ele><time>2020-1-11T5:27:28Z</time></trkpt>
<trkpt lat="48.477507" lon="2.653403"><ele></ele><time>2020-1-11T5:27:31Z</time></trkpt>
<trkpt lat="48.477374" lon="2.653515"><ele></ele><time>2020-1-11T5:27:34Z</time></trkpt>
<trkpt lat="48.477228" lon="2.653642"><ele></ele><time>2020-1-11T5:27:37Z</time></trkpt>
<trkpt lat="48.477138" lon="2.653764"><ele></ele><time>2020-1-11T5:27:40Z</time></trkpt>
<trkpt lat="48.477056" lon="2.653854"><ele></ele><time>2020-1-11T5:27:43Z</time></trkpt>
<trkpt lat="48.47692" lon="2.65394"><ele></ele><time>2020-1-11T5:27:46Z</time></trkpt>
<trkpt lat="48.476799" lon="2.654005"><ele></ele><time>2020-1-11T5:27:49Z</time></trkpt>
<trkpt lat="48.476713" lon="2.654103"><ele></ele><time>2020-1-11T5:27:52Z</time></trkpt>
<trkpt lat="48.476577" lon="2.654171"><ele></ele><time>2020-1-11T5:27:55Z</time></trkpt>
<trkpt lat="48.47644" lon="2.654245"><ele></ele><time>2020-1-11T5:27:58Z</time></trkpt>
<trkpt lat="48.476298" lon="2.654478"><ele></ele><time>2020-1-11T5:28:1Z</time></trkpt>
<trkpt lat="48.476108" lon="2.654638"><ele></ele><time>2020-1-11T5:28:4Z</time></trkpt>
<trkpt lat="48.475985" lon="2.654634"><ele></ele><time>2020-1-11T5:28:7Z</time></trkpt>
<trkpt lat="48.475905" lon="2.65474"><ele></ele><time>2020-1-11T5:28:10Z</time></trkpt>
<trkpt lat="48.475762" lon="2.654838"><ele></ele><time>2020-1-11T5:28:13Z</time></trkpt>
<trkpt lat="48.475641" lon="2.654944"><ele></ele><time>2020-1-11T5:28:16Z</time></trkpt>
<trkpt lat="48.475484" lon="2.654988"><ele></ele><time>2020-1-11T5:28:19Z</time></trkpt>
<trkpt lat="48.47532" lon="2.655104"><ele></ele><time>2020-1-11T5:28:22Z</time></trkpt>
<trkpt lat="48.475246" lon="2.655213"><ele></ele><time>2020-1-11T5:28:25Z</time></trkpt>
<trkpt lat="48.475169" lon="2.655307"><ele></ele><time>2020-1-11T5:28:28Z</time></trkpt>
<trkpt lat="48.475065" lon="2.655475"><ele></ele><time>2020-1-11T5:28:31Z</time></trkpt>
<trkpt lat="48.47495" lon="2.655468"><ele></ele><time>2020-1-11T5:28:34Z</time></trkpt>
<trkpt lat="48.474784" lon="2.655689"><ele></ele><time>2020-1-11T5:28:37Z</time></trkpt>
<trkpt lat="48.474689" lon="2.655823"><ele></ele><time>2020-1-11T5:28:40Z</time></trkpt>
<trkpt lat="48.474598" lon="2.655933"><ele></ele><time>2020-1-11T5:28:43Z</time></trkpt>
<trkpt lat="48.474516" lon="2.656009"><ele></ele><time>2020-1-11T5:28:46Z</time></trkpt>
<trkpt lat="48.474445" lon="2.656101"><ele></ele><time>2020-1-11T5:28:49Z</time></trkpt>
<trkpt lat="48.474365" lon="2.656184"><ele></ele><time>2020-1-11T5:28:52Z</time></trkpt>
<trkpt lat="48.474217" lon="2.656327"><ele></ele><time>2020-1-11T5:28:55Z</time></trkpt>
<trkpt lat="48.474063" lon="2.656444"><ele></ele><time>2020-1-11T5:28:58Z</time></trkpt>
<trkpt lat="48.473966" lon="2.656547"><ele></ele><time>2020-1-11T5:29:1Z</time></trkpt>
<trkpt lat="48.473833" lon="2.656669"><ele></ele><time>2020-1-11T5:29:4Z</time></trkpt>
<trkpt lat="48.473745" lon="2.656708"><ele></ele><time>2020-1-11T5:29:7Z</time></trkpt>
<trkpt lat="48.473648" lon="2.656765"><ele></ele><time>2020-1-11T5:29:10Z</time></trkpt>
<trkpt lat="48.473497" lon="2.656883"><ele></ele><time>2020-1-11T5:29:13Z</time></trkpt>
<trkpt lat="48.473351" lon="2.656998"><ele></ele><time>2020-1-11T5:29:16Z</time></trkpt>
<trkpt lat="48.473235" lon="2.657112"><ele></ele><time>2020-1-11T5:29:19Z</time></trkpt>
<trkpt lat="48.47308" lon="2.657218"><ele></ele><time>2020-1-11T5:29:22Z</time></trkpt>
<trkpt lat="48.472907" lon="2.657218"><ele></ele><time>2020-1-11T5:29:25Z</time></trkpt>
<trkpt lat="48.472818" lon="2.657296"><ele></ele><time>2020-1-11T5:29:28Z</time></trkpt>
<trkpt lat="48.47274" lon="2.657392"><ele></ele><time>2020-1-11T5:29:31Z</time></trkpt>
<trkpt lat="48.472647" lon="2.657449"><ele></ele><time>2020-1-11T5:29:34Z</time></trkpt>
<trkpt lat="48.472503" lon="2.657572"><ele></ele><time>2020-1-11T5:29:37Z</time></trkpt>
<trkpt lat="48.472443" lon="2.657681"><ele></ele><time>2020-1-11T5:29:40Z</time></trkpt>
<trkpt lat="48.472324" lon="2.657789"><ele></ele><time>2020-1-11T5:29:43Z</time></trkpt>
<trkpt lat="48.47224" lon="2.657932"><ele></ele><time>2020-1-11T5:29:46Z</time></trkpt>
<trkpt lat="48.472119" lon="2.657943"><ele></ele><time>2020-1-11T5:29:49Z</time></trkpt>
<trkpt lat="48.471993" lon="2.658036"><ele></ele><time>2020-1-11T5:29:52Z</time></trkpt>
<trkpt lat="48.471819" lon="2.65819"><ele></ele><time>2020-1-11T5:29:55Z</time></trkpt>
<trkpt lat="48.471631" lon="2.65826"><ele></ele><time>2020-1-11T5:29:58Z</time></trkpt>
<trkpt lat="48.471554" lon="2.658406"><ele></ele><time>2020-1-11T5:30:1Z</time></trkpt>
<trkpt lat="48.471481" lon="2.658527"><ele></ele><time>2020-1-11T5:30:4Z</time></trkpt>
<trkpt lat="48.471416" lon="2.658671"><ele></ele><time>2020-1-11T5:30:7Z</time></trkpt>
<trkpt lat="48.471275" lon="2.658785"><ele></ele><time>2020-1-11T5:30:10Z</time></trkpt>
<trkpt lat="48.471157" lon="2.65888"><ele></ele><time>2020-1-11T5:30:13Z</time></trkpt>
<trkpt lat="48.471014" lon="2.658921"><ele></ele><time>2020-1-11T5:30:16Z</time></trkpt>
<trkpt lat="48.470891" lon="2.658845"><ele></ele><time>2020-1-11T5:30:19Z</time></trkpt>
<trkpt lat="48.470711" lon="2.65879"><ele></ele><time>2020-1-11T5:30:22Z</time></trkpt>
<trkpt lat="48.470533" lon="2.658788"><ele></ele><time>2020-1-11T5:30:25Z</time></trkpt>
<trkpt lat="48.47038" lon="2.65877"><ele></ele><time>2020-1-11T5:30:28Z</time></trkpt>
<trkpt lat="48.470215" lon="2.65879"><ele></ele><time>2020-1-11T5:30:31Z</time></trkpt>
<trkpt lat="48.470099" lon="2.658808"><ele></ele><time>2020-1-11T5:30:34Z</time></trkpt>
<trkpt lat="48.469938" lon="2.658751"><ele></ele><time>2020-1-11T5:30:37Z</time></trkpt>
<trkpt lat="48.469836" lon="2.658747"><ele></ele><time>2020-1-11T5:30:40Z</time></trkpt>
<trkpt lat="48.469643" lon="2.658768"><ele></ele><time>2020-1-11T5:30:43Z</time></trkpt>
<trkpt lat="48.469453" lon="2.658711"><ele></ele><time>2020-1-11T5:30:46Z</time></trkpt>
<trkpt lat="48.469321" lon="2.658613"><ele></ele><time>2020-1-11T5:30:49Z</time></trkpt>
<trkpt lat="48.469237" lon="2.658695"><ele></ele><time>2020-1-11T5:30:52Z</time></trkpt>
<trkpt lat="48.469136" lon="2.658689"><ele></ele><time>2020-1-11T5:30:55Z</time></trkpt>
<trkpt lat="48.469034" lon="2.658639"><ele></ele><time>2020-1-11T5:30:58Z</time></trkpt>
<trkpt lat="48.468914" lon="2.658621"><ele></ele><time>2020-1-11T5:31:1Z</time></trkpt>
<trkpt lat="48.468762" lon="2.658616"><ele></ele><time>2020-1-11T5:31:4Z</time></trkpt>
<trkpt lat="48.468624" lon="2.658582"><ele></ele><time>2020-1-11T5:31:7Z</time></trkpt>
<trkpt lat="48.46846" lon="2.658543"><ele></ele><time>2020-1-11T5:31:10Z</time></trkpt>
<trkpt lat="48.468316" lon="2.658484"><ele></ele><time>2020-1-11T5:31:13Z</time></trkpt>
<trkpt lat="48.468186" lon="2.658464"><ele></ele><time>2020-1-11T5:31:16Z</time></trkpt>
<trkpt lat="48.468075" lon="2.658455"><ele></ele><time>2020-1-11T5:31:19Z</time></trkpt>
<trkpt lat="48.467868" lon="2.658485"><ele></ele><time>2020-1-11T5:31:22Z</time></trkpt>
<trkpt lat="48.467654" lon="2.658598"><ele></ele><time>2020-1-11T5:31:25Z</time></trkpt>
<trkpt lat="48.467552" lon="2.658592"><ele></ele><time>2020-1-11T5:31:28Z</time></trkpt>
<trkpt lat="48.467422" lon="2.658511"><ele></ele><time>2020-1-11T5:31:31Z</time></trkpt>
<trkpt lat="48.467253" lon="2.658457"><ele></ele><time>2020-1-11T5:31:34Z</time></trkpt>
<trkpt lat="48.467129" lon="2.65848"><ele></ele><time>2020-1-11T5:31:37Z</time></trkpt>
<trkpt lat="48.467032" lon="2.658408"><ele></ele><time>2020-1-11T5:31:40Z</time></trkpt>
<trkpt lat="48.466936" lon="2.658397"><ele></ele><time>2020-1-11T5:31:43Z</time></trkpt>
<trkpt lat="48.466835" lon="2.658458"><ele></ele><time>2020-1-11T5:31:46Z</time></trkpt>
<trkpt lat="48.466741" lon="2.658422"><ele></ele><time>2020-1-11T5:31:49Z</time></trkpt>
<trkpt lat="48.46664" lon="2.658344"><ele></ele><time>2020-1-11T5:31:52Z</time></trkpt>
<trkpt lat="48.466519" lon="2.658416"><ele></ele><time>2020-1-11T5:31:55Z</time></trkpt>
<trkpt lat="48.466347" lon="2.658404"><ele></ele><time>2020-1-11T5:31:58Z</time></trkpt>
<trkpt lat="48.466188" lon="2.658345"><ele></ele><time>2020-1-11T5:32:1Z</time></trkpt>
<trkpt lat="48.466024" lon="2.658375"><ele></ele><time>2020-1-11T5:32:4Z</time></trkpt>
<trkpt lat="48.465848" lon="2.658415"><ele></ele><time>2020-1-11T5:32:7Z</time></trkpt>
<trkpt lat="48.465715" lon="2.658449"><ele></ele><time>2020-1-11T5:32:10Z</time></trkpt>
<trkpt lat="48.465552" lon="2.658435"><ele></ele><time>2020-1-11T5:32:13Z</time></trkpt>
<trkpt lat="48.465457" lon="2.658372"><ele></ele><time>2020-1-11T5:32:16Z</time></trkpt>
<trkpt lat="48.465337" lon="2.658367"><ele></ele><time>2020-1-11T5:32:19Z</time></trkpt>
<trkpt lat="48.465161" lon="2.658359"><ele></ele><time>2020-1-11T5:32:22Z</time></trkpt>
<trkpt lat="48.465007" lon="2.658359"><ele></ele><time>2020-1-11T5:32:25Z</time></trkpt>
<trkpt lat="48.464885" lon="2.658482"><ele></ele><time>2020-1-11T5:32:28Z</time></trkpt>
<trkpt lat="48.464792" lon="2.658508"><ele></ele><time>2020-1-11T5:32:31Z</time></trkpt>
<trkpt lat="48.464694" lon="2.658449"><ele></ele><time>2020-1-11T5:32:34Z</time></trkpt>
<trkpt lat="48.464582" lon="2.65852"><ele></ele><time>2020-1-11T5:32:37Z</time></trkpt>
<trkpt lat="48.464428" lon="2.658566"><ele></ele><time>2020-1-11T5:32:40Z</time></trkpt>
<trkpt lat="48.464323" lon="2.65863"><ele></ele><time>2020-1-11T5:32:43Z</time></trkpt>
<trkpt lat="48.464237" lon="2.658727"><ele></ele><time>2020-1-11T5:32:46Z</time></trkpt>
<trkpt lat="48.464094" lon="2.658841"><ele></ele><time>2020-1-11T5:32:49Z</time></trkpt>
<trkpt lat="48.463967" lon="2.658932"><ele></ele><time>2020-1-11T5:32:52Z</time></trkpt>
<trkpt lat="48.463864" lon="2.659024"><ele></ele><time>2020-1-11T5:32:55Z</time></trkpt>
<trkpt lat="48.463753" lon="2.659098"><ele></ele><time>2020-1-11T5:32:58Z</time></trkpt>
<trkpt lat="48.463633" lon="2.65915"><ele></ele><time>2020-1-11T5:33:1Z</time></trkpt>
<trkpt lat="48.463507" lon="2.65919"><ele></ele><time>2020-1-11T5:33:4Z</time></trkpt>
<trkpt lat="48.463362" lon="2.659297"><ele></ele><time>2020-1-11T5:33:7Z</time></trkpt>
<trkpt lat="48.463256" lon="2.659388"><ele></ele><time>2020-1-11T5:33:10Z</time></trkpt>
<trkpt lat="48.463128" lon="2.659475"><ele></ele><time>2020-1-11T5:33:13Z</time></trkpt>
<trkpt lat="48.462999" lon="2.659584"><ele></ele><time>2020-1-11T5:33:16Z</time></trkpt>
<trkpt lat="48.462899" lon="2.659732"><ele></ele><time>2020-1-11T5:33:19Z</time></trkpt>
<trkpt lat="48.462815" lon="2.659781"><ele></ele><time>2020-1-11T5:33:22Z</time></trkpt>
<trkpt lat="48.462709" lon="2.659851"><ele></ele><time>2020-1-11T5:33:25Z</time></trkpt>
<trkpt lat="48.462631" lon="2.659947"><ele></ele><time>2020-1-11T5:33:28Z</time></trkpt>
<trkpt lat="48.462537" lon="2.660095"><ele></ele><time>2020-1-11T5:33:31Z</time></trkpt>
<trkpt lat="48.462435" lon="2.660175"><ele></ele><time>2020-1-11T5:33:34Z</time></trkpt>
<trkpt lat="48.462333" lon="2.660251"><ele></ele><time>2020-1-11T5:33:37Z</time></trkpt>
<trkpt lat="48.462214" lon="2.660294"><ele></ele><time>2020-1-11T5:33:40Z</time></trkpt>
<trkpt lat="48.462082" lon="2.660334"><ele></ele><time>2020-1-11T5:33:43Z</time></trkpt>
<trkpt lat="48.461982" lon="2.660341"><ele></ele><time>2020-1-11T5:33:46Z</time></trkpt>
<trkpt lat="48.461837" lon="2.660356"><ele></ele><time>2020-1-11T5:33:49Z</time></trkpt>
<trkpt lat="48.461749" lon="2.660444"><ele></ele><time>2020-1-11T5:33:52Z</time></trkpt>
<trkpt lat="48.461644" lon="2.660525"><ele></ele><time>2020-1-11T5:33:55Z</time></trkpt>
<trkpt lat="48.461551" lon="2.660514"><ele></ele><time>2020-1-11T5:33:58Z</time></trkpt>
<trkpt lat="48.461461" lon="2.660499"><ele></ele><time>2020-1-11T5:34:1Z</time></trkpt>
<trkpt lat="48.461371" lon="2.66044"><ele></ele><time>2020-1-11T5:34:4Z</time></trkpt>
<trkpt lat="48.461269" lon="2.660443"><ele></ele><time>2020-1-11T5:34:7Z</time></trkpt>
<trkpt lat="48.461177" lon="2.6605"><ele></ele><time>2020-1-11T5:34:10Z</time></trkpt>
<trkpt lat="48.461082" lon="2.660511"><ele></ele><time>2020-1-11T5:34:13Z</time></trkpt>
<trkpt lat="48.461029" lon="2.660645"><ele></ele><time>2020-1-11T5:34:16Z</time></trkpt>
<trkpt lat="48.461053" lon="2.660799"><ele></ele><time>2020-1-11T5:34:19Z</time></trkpt>
<trkpt lat="48.460954" lon="2.660906"><ele></ele><time>2020-1-11T5:34:22Z</time></trkpt>
<trkpt lat="48.460854" lon="2.660979"><ele></ele><time>2020-1-11T5:34:25Z</time></trkpt>
<trkpt lat="48.460777" lon="2.661102"><ele></ele><time>2020-1-11T5:34:28Z</time></trkpt>
<trkpt lat="48.460678" lon="2.661167"><ele></ele><time>2020-1-11T5:34:31Z</time></trkpt>
<trkpt lat="48.460577" lon="2.661132"><ele></ele><time>2020-1-11T5:34:34Z</time></trkpt>
<trkpt lat="48.460478" lon="2.661179"><ele></ele><time>2020-1-11T5:34:37Z</time></trkpt>
<trkpt lat="48.460359" lon="2.661176"><ele></ele><time>2020-1-11T5:34:40Z</time></trkpt>
<trkpt lat="48.460239" lon="2.661209"><ele></ele><time>2020-1-11T5:34:43Z</time></trkpt>
<trkpt lat="48.460135" lon="2.661286"><ele></ele><time>2020-1-11T5:34:46Z</time></trkpt>
<trkpt lat="48.460012" lon="2.661367"><ele></ele><time>2020-1-11T5:34:49Z</time></trkpt>
<trkpt lat="48.459853" lon="2.661436"><ele></ele><time>2020-1-11T5:34:52Z</time></trkpt>
<trkpt lat="48.459711" lon="2.661437"><ele></ele><time>2020-1-11T5:34:55Z</time></trkpt>
<trkpt lat="48.459706" lon="2.661667"><ele></ele><time>2020-1-11T5:34:58Z</time></trkpt>
<trkpt lat="48.45968" lon="2.661882"><ele></ele><time>2020-1-11T5:35:1Z</time></trkpt>
<trkpt lat="48.459637" lon="2.66206"><ele></ele><time>2020-1-11T5:35:4Z</time></trkpt>
<trkpt lat="48.459642" lon="2.662276"><ele></ele><time>2020-1-11T5:35:7Z</time></trkpt>
<trkpt lat="48.459654" lon="2.662458"><ele></ele><time>2020-1-11T5:35:10Z</time></trkpt>
<trkpt lat="48.459628" lon="2.662698"><ele></ele><time>2020-1-11T5:35:13Z</time></trkpt>
<trkpt lat="48.459571" lon="2.662834"><ele></ele><time>2020-1-11T5:35:16Z</time></trkpt>
<trkpt lat="48.459529" lon="2.662984"><ele></ele><time>2020-1-11T5:35:19Z</time></trkpt>
<trkpt lat="48.459462" lon="2.663209"><ele></ele><time>2020-1-11T5:35:22Z</time></trkpt>
<trkpt lat="48.459442" lon="2.663382"><ele></ele><time>2020-1-11T5:35:25Z</time></trkpt>
<trkpt lat="48.4594" lon="2.663592"><ele></ele><time>2020-1-11T5:35:28Z</time></trkpt>
<trkpt lat="48.459359" lon="2.663765"><ele></ele><time>2020-1-11T5:35:31Z</time></trkpt>
<trkpt lat="48.459265" lon="2.663975"><ele></ele><time>2020-1-11T5:35:34Z</time></trkpt>
<trkpt lat="48.459205" lon="2.66408"><ele></ele><time>2020-1-11T5:35:37Z</time></trkpt>
<trkpt lat="48.459148" lon="2.664188"><ele></ele><time>2020-1-11T5:35:40Z</time></trkpt>
<trkpt lat="48.459067" lon="2.664346"><ele></ele><time>2020-1-11T5:35:43Z</time></trkpt>
<trkpt lat="48.459042" lon="2.664522"><ele></ele><time>2020-1-11T5:35:46Z</time></trkpt>
<trkpt lat="48.459021" lon="2.664677"><ele></ele><time>2020-1-11T5:35:49Z</time></trkpt>
<trkpt lat="48.458963" lon="2.664845"><ele></ele><time>2020-1-11T5:35:52Z</time></trkpt>
<trkpt lat="48.458905" lon="2.665015"><ele></ele><time>2020-1-11T5:35:55Z</time></trkpt>
<trkpt lat="48.458832" lon="2.66515"><ele></ele><time>2020-1-11T5:35:58Z</time></trkpt>
<trkpt lat="48.45877" lon="2.665362"><ele></ele><time>2020-1-11T5:36:1Z</time></trkpt>
<trkpt lat="48.458715" lon="2.665552"><ele></ele><time>2020-1-11T5:36:4Z</time></trkpt>
<trkpt lat="48.458656" lon="2.665719"><ele></ele><time>2020-1-11T5:36:7Z</time></trkpt>
<trkpt lat="48.458583" lon="2.665872"><ele></ele><time>2020-1-11T5:36:10Z</time></trkpt>
<trkpt lat="48.45853" lon="2.666002"><ele></ele><time>2020-1-11T5:36:13Z</time></trkpt>
<trkpt lat="48.458503" lon="2.666181"><ele></ele><time>2020-1-11T5:36:16Z</time></trkpt>
<trkpt lat="48.458464" lon="2.666323"><ele></ele><time>2020-1-11T5:36:19Z</time></trkpt>
<trkpt lat="48.458418" lon="2.666505"><ele></ele><time>2020-1-11T5:36:22Z</time></trkpt>
<trkpt lat="48.458363" lon="2.666688"><ele></ele><time>2020-1-11T5:36:25Z</time></trkpt>
<trkpt lat="48.458307" lon="2.666821"><ele></ele><time>2020-1-11T5:36:28Z</time></trkpt>
<trkpt lat="48.458259" lon="2.666981"><ele></ele><time>2020-1-11T5:36:31Z</time></trkpt>
<trkpt lat="48.45819" lon="2.667121"><ele></ele><time>2020-1-11T5:36:34Z</time></trkpt>
<trkpt lat="48.4581" lon="2.667243"><ele></ele><time>2020-1-11T5:36:37Z</time></trkpt>
<trkpt lat="48.458054" lon="2.667401"><ele></ele><time>2020-1-11T5:36:40Z</time></trkpt>
<trkpt lat="48.457976" lon="2.667615"><ele></ele><time>2020-1-11T5:36:43Z</time></trkpt>
<trkpt lat="48.457937" lon="2.667805"><ele></ele><time>2020-1-11T5:36:46Z</time></trkpt>
<trkpt lat="48.457906" lon="2.667959"><ele></ele><time>2020-1-11T5:36:49Z</time></trkpt>
<trkpt lat="48.457905" lon="2.668125"><ele></ele><time>2020-1-11T5:36:52Z</time></trkpt>
<trkpt lat="48.457867" lon="2.668387"><ele></ele><time>2020-1-11T5:36:55Z</time></trkpt>
<trkpt lat="48.457788" lon="2.668523"><ele></ele><time>2020-1-11T5:36:58Z</time></trkpt>
<trkpt lat="48.45776" lon="2.668657"><ele></ele><time>2020-1-11T5:37:1Z</time></trkpt>
<trkpt lat="48.457702" lon="2.668809"><ele></ele><time>2020-1-11T5:37:4Z</time></trkpt>
<trkpt lat="48.457633" lon="2.669041"><ele></ele><time>2020-1-11T5:37:7Z</time></trkpt>
<trkpt lat="48.457532" lon="2.669259"><ele></ele><time>2020-1-11T5:37:10Z</time></trkpt>
<trkpt lat="48.457463" lon="2.669451"><ele></ele><time>2020-1-11T5:37:13Z</time></trkpt>
<trkpt lat="48.457372" lon="2.669569"><ele></ele><time>2020-1-11T5:37:16Z</time></trkpt>
<trkpt lat="48.457262" lon="2.669707"><ele></ele><time>2020-1-11T5:37:19Z</time></trkpt>
<trkpt lat="48.457162" lon="2.669741"><ele></ele><time>2020-1-11T5:37:22Z</time></trkpt>
<trkpt lat="48.457041" lon="2.669756"><ele></ele><time>2020-1-11T5:37:25Z</time></trkpt>
<trkpt lat="48.45695" lon="2.669612"><ele></ele><time>2020-1-11T5:37:28Z</time></trkpt>
<trkpt lat="48.456871" lon="2.669506"><ele></ele><time>2020-1-11T5:37:31Z</time></trkpt>
<trkpt lat="48.456784" lon="2.669352"><ele></ele><time>2020-1-11T5:37:34Z</time></trkpt>
<trkpt lat="48.456685" lon="2.669174"><ele></ele><time>2020-1-11T5:37:37Z</time></trkpt>
<trkpt lat="48.456614" lon="2.668997"><ele></ele><time>2020-1-11T5:37:40Z</time></trkpt>
<trkpt lat="48.456573" lon="2.66887"><ele></ele><time>2020-1-11T5:37:43Z</time></trkpt>
<trkpt lat="48.45654" lon="2.668699"><ele></ele><time>2020-1-11T5:37:46Z</time></trkpt>
<trkpt lat="48.456508" lon="2.668526"><ele></ele><time>2020-1-11T5:37:49Z</time></trkpt>
<trkpt lat="48.456483" lon="2.668348"><ele></ele><time>2020-1-11T5:37:52Z</time></trkpt>
<trkpt lat="48.456425" lon="2.668177"><ele></ele><time>2020-1-11T5:37:55Z</time></trkpt>
<trkpt lat="48.456344" lon="2.667994"><ele></ele><time>2020-1-11T5:37:58Z</time></trkpt>
<trkpt lat="48.456285" lon="2.667857"><ele></ele><time>2020-1-11T5:38:1Z</time></trkpt>
<trkpt lat="48.45623" lon="2.667723"><ele></ele><time>2020-1-11T5:38:4Z</time></trkpt>
<trkpt lat="48.45614" lon="2.667558"><ele></ele><time>2020-1-11T5:38:7Z</time></trkpt>
<trkpt lat="48.456068" lon="2.667427"><ele></ele><time>2020-1-11T5:38:10Z</time></trkpt>
<trkpt lat="48.456014" lon="2.6673"><ele></ele><time>2020-1-11T5:38:13Z</time></trkpt>
<trkpt lat="48.455926" lon="2.667136"><ele></ele><time>2020-1-11T5:38:16Z</time></trkpt>
<trkpt lat="48.455856" lon="2.667021"><ele></ele><time>2020-1-11T5:38:19Z</time></trkpt>
<trkpt lat="48.455775" lon="2.666917"><ele></ele><time>2020-1-11T5:38:22Z</time></trkpt>
<trkpt lat="48.455646" lon="2.666811"><ele></ele><time>2020-1-11T5:38:25Z</time></trkpt>
<trkpt lat="48.455555" lon="2.666725"><ele></ele><time>2020-1-11T5:38:28Z</time></trkpt>
<trkpt lat="48.455468" lon="2.666655"><ele></ele><time>2020-1-11T5:38:31Z</time></trkpt>
<trkpt lat="48.455403" lon="2.666548"><ele></ele><time>2020-1-11T5:38:34Z</time></trkpt>
<trkpt lat="48.455322" lon="2.666478"><ele></ele><time>2020-1-11T5:38:37Z</time></trkpt>
<trkpt lat="48.455225" lon="2.666438"><ele></ele><time>2020-1-11T5:38:40Z</time></trkpt>
<trkpt lat="48.455132" lon="2.666351"><ele></ele><time>2020-1-11T5:38:43Z</time></trkpt>
<trkpt lat="48.455045" lon="2.666237"><ele></ele><time>2020-1-11T5:38:46Z</time></trkpt>
<trkpt lat="48.454988" lon="2.666121"><ele></ele><time>2020-1-11T5:38:49Z</time></trkpt>
<trkpt lat="48.454983" lon="2.665939"><ele></ele><time>2020-1-11T5:38:52Z</time></trkpt>
<trkpt lat="48.454968" lon="2.6658"><ele></ele><time>2020-1-11T5:38:55Z</time></trkpt>
<trkpt lat="48.454935" lon="2.665652"><ele></ele><time>2020-1-11T5:38:58Z</time></trkpt>
<trkpt lat="48.454865" lon="2.66553"><ele></ele><time>2020-1-11T5:39:1Z</time></trkpt>
<trkpt lat="48.454825" lon="2.665393"><ele></ele><time>2020-1-11T5:39:4Z</time></trkpt>
<trkpt lat="48.454778" lon="2.665235"><ele></ele><time>2020-1-11T5:39:7Z</time></trkpt>
<trkpt lat="48.454729" lon="2.665108"><ele></ele><time>2020-1-11T5:39:10Z</time></trkpt>
<trkpt lat="48.454661" lon="2.66496"><ele></ele><time>2020-1-11T5:39:13Z</time></trkpt>
<trkpt lat="48.454592" lon="2.664837"><ele></ele><time>2020-1-11T5:39:16Z</time></trkpt>
<trkpt lat="48.454527" lon="2.66473"><ele></ele><time>2020-1-11T5:39:19Z</time></trkpt>
<trkpt lat="48.454489" lon="2.664602"><ele></ele><time>2020-1-11T5:39:22Z</time></trkpt>
<trkpt lat="48.454445" lon="2.664472"><ele></ele><time>2020-1-11T5:39:25Z</time></trkpt>
<trkpt lat="48.454387" lon="2.664325"><ele></ele><time>2020-1-11T5:39:28Z</time></trkpt>
<trkpt lat="48.454331" lon="2.664189"><ele></ele><time>2020-1-11T5:39:31Z</time></trkpt>
<trkpt lat="48.454279" lon="2.66402"><ele></ele><time>2020-1-11T5:39:34Z</time></trkpt>
<trkpt lat="48.45424" lon="2.663889"><ele></ele><time>2020-1-11T5:39:37Z</time></trkpt>
<trkpt lat="48.454219" lon="2.663748"><ele></ele><time>2020-1-11T5:39:40Z</time></trkpt>
<trkpt lat="48.454185" lon="2.663614"><ele></ele><time>2020-1-11T5:39:43Z</time></trkpt>
<trkpt lat="48.454141" lon="2.663478"><ele></ele><time>2020-1-11T5:39:46Z</time></trkpt>
<trkpt lat="48.454105" lon="2.663334"><ele></ele><time>2020-1-11T5:39:49Z</time></trkpt>
<trkpt lat="48.454053" lon="2.663181"><ele></ele><time>2020-1-11T5:39:52Z</time></trkpt>
<trkpt lat="48.454026" lon="2.663043"><ele></ele><time>2020-1-11T5:39:55Z</time></trkpt>
<trkpt lat="48.453988" lon="2.662894"><ele></ele><time>2020-1-11T5:39:58Z</time></trkpt>
<trkpt lat="48.453934" lon="2.662762"><ele></ele><time>2020-1-11T5:40:1Z</time></trkpt>
<trkpt lat="48.453855" lon="2.662646"><ele></ele><time>2020-1-11T5:40:4Z</time></trkpt>
<trkpt lat="48.453812" lon="2.662524"><ele></ele><time>2020-1-11T5:40:7Z</time></trkpt>
<trkpt lat="48.453731" lon="2.662429"><ele></ele><time>2020-1-11T5:40:10Z</time></trkpt>
<trkpt lat="48.45363" lon="2.662368"><ele></ele><time>2020-1-11T5:40:13Z</time></trkpt>
<trkpt lat="48.453627" lon="2.662187"><ele></ele><time>2020-1-11T5:40:16Z</time></trkpt>
<trkpt lat="48.453702" lon="2.662033"><ele></ele><time>2020-1-11T5:40:19Z</time></trkpt>
<trkpt lat="48.453803" lon="2.661979"><ele></ele><time>2020-1-11T5:40:22Z</time></trkpt>
<trkpt lat="48.453894" lon="2.66205"><ele></ele><time>2020-1-11T5:40:25Z</time></trkpt>
<trkpt lat="48.453988" lon="2.662174"><ele></ele><time>2020-1-11T5:40:28Z</time></trkpt>
<trkpt lat="48.454062" lon="2.662387"><ele></ele><time>2020-1-11T5:40:31Z</time></trkpt>
<trkpt lat="48.454111" lon="2.662607"><ele></ele><time>2020-1-11T5:40:34Z</time></trkpt>
<trkpt lat="48.454145" lon="2.662851"><ele></ele><time>2020-1-11T5:40:37Z</time></trkpt>
<trkpt lat="48.454246" lon="2.663053"><ele></ele><time>2020-1-11T5:40:40Z</time></trkpt>
<trkpt lat="48.454359" lon="2.663268"><ele></ele><time>2020-1-11T5:40:43Z</time></trkpt>
<trkpt lat="48.454418" lon="2.663379"><ele></ele><time>2020-1-11T5:40:46Z</time></trkpt>
<trkpt lat="48.45448" lon="2.663496"><ele></ele><time>2020-1-11T5:40:49Z</time></trkpt>
<trkpt lat="48.454555" lon="2.663619"><ele></ele><time>2020-1-11T5:40:52Z</time></trkpt>
<trkpt lat="48.454633" lon="2.663706"><ele></ele><time>2020-1-11T5:40:55Z</time></trkpt>
<trkpt lat="48.454691" lon="2.663855"><ele></ele><time>2020-1-11T5:40:58Z</time></trkpt>
<trkpt lat="48.454781" lon="2.66401"><ele></ele><time>2020-1-11T5:41:1Z</time></trkpt>
<trkpt lat="48.454867" lon="2.664239"><ele></ele><time>2020-1-11T5:41:4Z</time></trkpt>
<trkpt lat="48.454881" lon="2.664388"><ele></ele><time>2020-1-11T5:41:7Z</time></trkpt>
<trkpt lat="48.454929" lon="2.664532"><ele></ele><time>2020-1-11T5:41:10Z</time></trkpt>
<trkpt lat="48.454996" lon="2.66467"><ele></ele><time>2020-1-11T5:41:13Z</time></trkpt>
<trkpt lat="48.455093" lon="2.664829"><ele></ele><time>2020-1-11T5:41:16Z</time></trkpt>
<trkpt lat="48.455157" lon="2.664995"><ele></ele><time>2020-1-11T5:41:19Z</time></trkpt>
<trkpt lat="48.455185" lon="2.665145"><ele></ele><time>2020-1-11T5:41:22Z</time></trkpt>
<trkpt lat="48.455267" lon="2.665322"><ele></ele><time>2020-1-11T5:41:25Z</time></trkpt>
<trkpt lat="48.455364" lon="2.665448"><ele></ele><time>2020-1-11T5:41:28Z</time></trkpt>
<trkpt lat="48.455473" lon="2.665556"><ele></ele><time>2020-1-11T5:41:31Z</time></trkpt>
<trkpt lat="48.455583" lon="2.665672"><ele></ele><time>2020-1-11T5:41:34Z</time></trkpt>
<trkpt lat="48.455716" lon="2.665738"><ele></ele><time>2020-1-11T5:41:37Z</time></trkpt>
<trkpt lat="48.455828" lon="2.665818"><ele></ele><time>2020-1-11T5:41:40Z</time></trkpt>
<trkpt lat="48.455947" lon="2.665917"><ele></ele><time>2020-1-11T5:41:43Z</time></trkpt>
<trkpt lat="48.456051" lon="2.665991"><ele></ele><time>2020-1-11T5:41:46Z</time></trkpt>
<trkpt lat="48.456185" lon="2.666156"><ele></ele><time>2020-1-11T5:41:49Z</time></trkpt>
<trkpt lat="48.456276" lon="2.666266"><ele></ele><time>2020-1-11T5:41:52Z</time></trkpt>
<trkpt lat="48.45634" lon="2.666365"><ele></ele><time>2020-1-11T5:41:55Z</time></trkpt>
<trkpt lat="48.456493" lon="2.666569"><ele></ele><time>2020-1-11T5:41:58Z</time></trkpt>
<trkpt lat="48.456568" lon="2.666704"><ele></ele><time>2020-1-11T5:42:1Z</time></trkpt>
<trkpt lat="48.456648" lon="2.666834"><ele></ele><time>2020-1-11T5:42:4Z</time></trkpt>
<trkpt lat="48.456717" lon="2.666966"><ele></ele><time>2020-1-11T5:42:7Z</time></trkpt>
<trkpt lat="48.456814" lon="2.667115"><ele></ele><time>2020-1-11T5:42:10Z</time></trkpt>
<trkpt lat="48.456926" lon="2.667247"><ele></ele><time>2020-1-11T5:42:13Z</time></trkpt>
<trkpt lat="48.457074" lon="2.667284"><ele></ele><time>2020-1-11T5:42:16Z</time></trkpt>
<trkpt lat="48.45717" lon="2.667182"><ele></ele><time>2020-1-11T5:42:19Z</time></trkpt>
<trkpt lat="48.45721" lon="2.667017"><ele></ele><time>2020-1-11T5:42:22Z</time></trkpt>
<trkpt lat="48.457292" lon="2.666844"><ele></ele><time>2020-1-11T5:42:25Z</time></trkpt>
<trkpt lat="48.457334" lon="2.66663"><ele></ele><time>2020-1-11T5:42:28Z</time></trkpt>
<trkpt lat="48.457365" lon="2.666494"><ele></ele><time>2020-1-11T5:42:31Z</time></trkpt>
<trkpt lat="48.457377" lon="2.666246"><ele></ele><time>2020-1-11T5:42:34Z</time></trkpt>
<trkpt lat="48.457357" lon="2.66606"><ele></ele><time>2020-1-11T5:42:37Z</time></trkpt>
<trkpt lat="48.457365" lon="2.665915"><ele></ele><time>2020-1-11T5:42:40Z</time></trkpt>
<trkpt lat="48.457339" lon="2.665766"><ele></ele><time>2020-1-11T5:42:43Z</time></trkpt>
<trkpt lat="48.457295" lon="2.665633"><ele></ele><time>2020-1-11T5:42:46Z</time></trkpt>
<trkpt lat="48.45723" lon="2.665536"><ele></ele><time>2020-1-11T5:42:49Z</time></trkpt>
<trkpt lat="48.457138" lon="2.665309"><ele></ele><time>2020-1-11T5:42:52Z</time></trkpt>
<trkpt lat="48.457117" lon="2.665106"><ele></ele><time>2020-1-11T5:42:55Z</time></trkpt>
<trkpt lat="48.457104" lon="2.664932"><ele></ele><time>2020-1-11T5:42:58Z</time></trkpt>
<trkpt lat="48.45709" lon="2.664749"><ele></ele><time>2020-1-11T5:43:1Z</time></trkpt>
<trkpt lat="48.457063" lon="2.664565"><ele></ele><time>2020-1-11T5:43:4Z</time></trkpt>
<trkpt lat="48.45704" lon="2.664311"><ele></ele><time>2020-1-11T5:43:7Z</time></trkpt>
<trkpt lat="48.457029" lon="2.664081"><ele></ele><time>2020-1-11T5:43:10Z</time></trkpt>
<trkpt lat="48.456999" lon="2.663904"><ele></ele><time>2020-1-11T5:43:13Z</time></trkpt>
<trkpt lat="48.456938" lon="2.663698"><ele></ele><time>2020-1-11T5:43:16Z</time></trkpt>
<trkpt lat="48.456861" lon="2.663475"><ele></ele><time>2020-1-11T5:43:19Z</time></trkpt>
<trkpt lat="48.456791" lon="2.663318"><ele></ele><time>2020-1-11T5:43:22Z</time></trkpt>
<trkpt lat="48.456758" lon="2.663122"><ele></ele><time>2020-1-11T5:43:25Z</time></trkpt>
<trkpt lat="48.456671" lon="2.662887"><ele></ele><time>2020-1-11T5:43:28Z</time></trkpt>
<trkpt lat="48.456597" lon="2.662701"><ele></ele><time>2020-1-11T5:43:31Z</time></trkpt>
<trkpt lat="48.45656" lon="2.662479"><ele></ele><time>2020-1-11T5:43:34Z</time></trkpt>
<trkpt lat="48.456489" lon="2.66226"><ele></ele><time>2020-1-11T5:43:37Z</time></trkpt>
<trkpt lat="48.456391" lon="2.662084"><ele></ele><time>2020-1-11T5:43:40Z</time></trkpt>
<trkpt lat="48.456333" lon="2.661898"><ele></ele><time>2020-1-11T5:43:43Z</time></trkpt>
<trkpt lat="48.456317" lon="2.66171"><ele></ele><time>2020-1-11T5:43:46Z</time></trkpt>
<trkpt lat="48.456275" lon="2.661572"><ele></ele><time>2020-1-11T5:43:49Z</time></trkpt>
<trkpt lat="48.45622" lon="2.66145"><ele></ele><time>2020-1-11T5:43:52Z</time></trkpt>
<trkpt lat="48.456206" lon="2.66127"><ele></ele><time>2020-1-11T5:43:55Z</time></trkpt>
<trkpt lat="48.456191" lon="2.661094"><ele></ele><time>2020-1-11T5:43:58Z</time></trkpt>
<trkpt lat="48.456248" lon="2.660892"><ele></ele><time>2020-1-11T5:44:1Z</time></trkpt>
<trkpt lat="48.456247" lon="2.66059"><ele></ele><time>2020-1-11T5:44:4Z</time></trkpt>
<trkpt lat="48.456237" lon="2.660454"><ele></ele><time>2020-1-11T5:44:7Z</time></trkpt>
<trkpt lat="48.456232" lon="2.660284"><ele></ele><time>2020-1-11T5:44:10Z</time></trkpt>
<trkpt lat="48.456253" lon="2.6601"><ele></ele><time>2020-1-11T5:44:13Z</time></trkpt>
<trkpt lat="48.456297" lon="2.659912"><ele></ele><time>2020-1-11T5:44:16Z</time></trkpt>
<trkpt lat="48.456302" lon="2.659715"><ele></ele><time>2020-1-11T5:44:19Z</time></trkpt>
<trkpt lat="48.456355" lon="2.659484"><ele></ele><time>2020-1-11T5:44:22Z</time></trkpt>
<trkpt lat="48.456401" lon="2.659245"><ele></ele><time>2020-1-11T5:44:25Z</time></trkpt>
<trkpt lat="48.456466" lon="2.658977"><ele></ele><time>2020-1-11T5:44:28Z</time></trkpt>
<trkpt lat="48.45653" lon="2.658815"><ele></ele><time>2020-1-11T5:44:31Z</time></trkpt>
<trkpt lat="48.456553" lon="2.658672"><ele></ele><time>2020-1-11T5:44:34Z</time></trkpt>
<trkpt lat="48.456605" lon="2.658559"><ele></ele><time>2020-1-11T5:44:37Z</time></trkpt>
<trkpt lat="48.456702" lon="2.658425"><ele></ele><time>2020-1-11T5:44:40Z</time></trkpt>
<trkpt lat="48.456717" lon="2.658284"><ele></ele><time>2020-1-11T5:44:43Z</time></trkpt>
<trkpt lat="48.456786" lon="2.658165"><ele></ele><time>2020-1-11T5:44:46Z</time></trkpt>
<trkpt lat="48.456864" lon="2.657899"><ele></ele><time>2020-1-11T5:44:49Z</time></trkpt>
<trkpt lat="48.456952" lon="2.657829"><ele></ele><time>2020-1-11T5:44:52Z</time></trkpt>
<trkpt lat="48.457097" lon="2.65782"><ele></ele><time>2020-1-11T5:44:55Z</time></trkpt>
<trkpt lat="48.457257" lon="2.657757"><ele></ele><time>2020-1-11T5:44:58Z</time></trkpt>
<trkpt lat="48.457366" lon="2.657688"><ele></ele><time>2020-1-11T5:45:1Z</time></trkpt>
<trkpt lat="48.457516" lon="2.657627"><ele></ele><time>2020-1-11T5:45:4Z</time></trkpt>
<trkpt lat="48.457605" lon="2.657598"><ele></ele><time>2020-1-11T5:45:7Z</time></trkpt>
<trkpt lat="48.457715" lon="2.657478"><ele></ele><time>2020-1-11T5:45:10Z</time></trkpt>
<trkpt lat="48.457831" lon="2.657403"><ele></ele><time>2020-1-11T5:45:13Z</time></trkpt>
<trkpt lat="48.457966" lon="2.6574"><ele></ele><time>2020-1-11T5:45:16Z</time></trkpt>
<trkpt lat="48.458072" lon="2.657352"><ele></ele><time>2020-1-11T5:45:19Z</time></trkpt>
<trkpt lat="48.458168" lon="2.657341"><ele></ele><time>2020-1-11T5:45:22Z</time></trkpt>
<trkpt lat="48.458257" lon="2.657366"><ele></ele><time>2020-1-11T5:45:25Z</time></trkpt>
<trkpt lat="48.4584" lon="2.657335"><ele></ele><time>2020-1-11T5:45:28Z</time></trkpt>
<trkpt lat="48.458519" lon="2.657213"><ele></ele><time>2020-1-11T5:45:31Z</time></trkpt>
<trkpt lat="48.4586" lon="2.657084"><ele></ele><time>2020-1-11T5:45:34Z</time></trkpt>
<trkpt lat="48.458658" lon="2.656939"><ele></ele><time>2020-1-11T5:45:37Z</time></trkpt>
<trkpt lat="48.458729" lon="2.65678"><ele></ele><time>2020-1-11T5:45:40Z</time></trkpt>
<trkpt lat="48.458803" lon="2.656616"><ele></ele><time>2020-1-11T5:45:43Z</time></trkpt>
<trkpt lat="48.458881" lon="2.656418"><ele></ele><time>2020-1-11T5:45:46Z</time></trkpt>
<trkpt lat="48.458956" lon="2.65621"><ele></ele><time>2020-1-11T5:45:49Z</time></trkpt>
<trkpt lat="48.45905" lon="2.65609"><ele></ele><time>2020-1-11T5:45:52Z</time></trkpt>
<trkpt lat="48.459159" lon="2.655961"><ele></ele><time>2020-1-11T5:45:55Z</time></trkpt>
<trkpt lat="48.459253" lon="2.65577"><ele></ele><time>2020-1-11T5:45:58Z</time></trkpt>
<trkpt lat="48.459312" lon="2.655587"><ele></ele><time>2020-1-11T5:46:1Z</time></trkpt>
<trkpt lat="48.459373" lon="2.655369"><ele></ele><time>2020-1-11T5:46:4Z</time></trkpt>
<trkpt lat="48.459457" lon="2.655178"><ele></ele><time>2020-1-11T5:46:7Z</time></trkpt>
<trkpt lat="48.459538" lon="2.654944"><ele></ele><time>2020-1-11T5:46:10Z</time></trkpt>
<trkpt lat="48.459604" lon="2.654752"><ele></ele><time>2020-1-11T5:46:13Z</time></trkpt>
<trkpt lat="48.459631" lon="2.654502"><ele></ele><time>2020-1-11T5:46:16Z</time></trkpt>
<trkpt lat="48.459638" lon="2.654345"><ele></ele><time>2020-1-11T5:46:19Z</time></trkpt>
<trkpt lat="48.459668" lon="2.654113"><ele></ele><time>2020-1-11T5:46:22Z</time></trkpt>
<trkpt lat="48.459681" lon="2.653925"><ele></ele><time>2020-1-11T5:46:25Z</time></trkpt>
<trkpt lat="48.459624" lon="2.653763"><ele></ele><time>2020-1-11T5:46:28Z</time></trkpt>
<trkpt lat="48.459517" lon="2.65363"><ele></ele><time>2020-1-11T5:46:31Z</time></trkpt>
<trkpt lat="48.459411" lon="2.65351"><ele></ele><time>2020-1-11T5:46:34Z</time></trkpt>
<trkpt lat="48.459298" lon="2.653456"><ele></ele><time>2020-1-11T5:46:37Z</time></trkpt>
<trkpt lat="48.4592" lon="2.653441"><ele></ele><time>2020-1-11T5:46:40Z</time></trkpt>
<trkpt lat="48.459091" lon="2.653402"><ele></ele><time>2020-1-11T5:46:43Z</time></trkpt>
<trkpt lat="48.458983" lon="2.653494"><ele></ele><time>2020-1-11T5:46:46Z</time></trkpt>
<trkpt lat="48.458886" lon="2.653505"><ele></ele><time>2020-1-11T5:46:49Z</time></trkpt>
<trkpt lat="48.458789" lon="2.653498"><ele></ele><time>2020-1-11T5:46:52Z</time></trkpt>
<trkpt lat="48.458654" lon="2.653487"><ele></ele><time>2020-1-11T5:46:55Z</time></trkpt>
<trkpt lat="48.458514" lon="2.653456"><ele></ele><time>2020-1-11T5:46:58Z</time></trkpt>
<trkpt lat="48.458355" lon="2.653455"><ele></ele><time>2020-1-11T5:47:1Z</time></trkpt>
<trkpt lat="48.458209" lon="2.653418"><ele></ele><time>2020-1-11T5:47:4Z</time></trkpt>
<trkpt lat="48.458044" lon="2.653327"><ele></ele><time>2020-1-11T5:47:7Z</time></trkpt>
<trkpt lat="48.45796" lon="2.653275"><ele></ele><time>2020-1-11T5:47:10Z</time></trkpt>
<trkpt lat="48.45782" lon="2.653127"><ele></ele><time>2020-1-11T5:47:13Z</time></trkpt>
<trkpt lat="48.457721" lon="2.652991"><ele></ele><time>2020-1-11T5:47:16Z</time></trkpt>
<trkpt lat="48.457622" lon="2.652858"><ele></ele><time>2020-1-11T5:47:19Z</time></trkpt>
<trkpt lat="48.457603" lon="2.652706"><ele></ele><time>2020-1-11T5:47:22Z</time></trkpt>
<trkpt lat="48.457636" lon="2.652481"><ele></ele><time>2020-1-11T5:47:25Z</time></trkpt>
<trkpt lat="48.457662" lon="2.652298"><ele></ele><time>2020-1-11T5:47:28Z</time></trkpt>
<trkpt lat="48.4577" lon="2.652109"><ele></ele><time>2020-1-11T5:47:31Z</time></trkpt>
<trkpt lat="48.45777" lon="2.651949"><ele></ele><time>2020-1-11T5:47:34Z</time></trkpt>
<trkpt lat="48.457843" lon="2.651809"><ele></ele><time>2020-1-11T5:47:37Z</time></trkpt>
<trkpt lat="48.457917" lon="2.651684"><ele></ele><time>2020-1-11T5:47:40Z</time></trkpt>
<trkpt lat="48.458009" lon="2.651596"><ele></ele><time>2020-1-11T5:47:43Z</time></trkpt>
<trkpt lat="48.45819" lon="2.651493"><ele></ele><time>2020-1-11T5:47:46Z</time></trkpt>
<trkpt lat="48.458354" lon="2.651407"><ele></ele><time>2020-1-11T5:47:49Z</time></trkpt>
<trkpt lat="48.458439" lon="2.651324"><ele></ele><time>2020-1-11T5:47:52Z</time></trkpt>
<trkpt lat="48.458519" lon="2.651221"><ele></ele><time>2020-1-11T5:47:55Z</time></trkpt>
<trkpt lat="48.458579" lon="2.651101"><ele></ele><time>2020-1-11T5:47:58Z</time></trkpt>
<trkpt lat="48.458629" lon="2.650971"><ele></ele><time>2020-1-11T5:48:1Z</time></trkpt>
<trkpt lat="48.458606" lon="2.650706"><ele></ele><time>2020-1-11T5:48:4Z</time></trkpt>
<trkpt lat="48.458559" lon="2.650465"><ele></ele><time>2020-1-11T5:48:7Z</time></trkpt>
<trkpt lat="48.45847" lon="2.650247"><ele></ele><time>2020-1-11T5:48:10Z</time></trkpt>
<trkpt lat="48.458386" lon="2.650065"><ele></ele><time>2020-1-11T5:48:13Z</time></trkpt>
<trkpt lat="48.458292" lon="2.649851"><ele></ele><time>2020-1-11T5:48:16Z</time></trkpt>
<trkpt lat="48.458187" lon="2.649643"><ele></ele><time>2020-1-11T5:48:19Z</time></trkpt>
<trkpt lat="48.458078" lon="2.64947"><ele></ele><time>2020-1-11T5:48:22Z</time></trkpt>
<trkpt lat="48.458045" lon="2.649316"><ele></ele><time>2020-1-11T5:48:25Z</time></trkpt>
<trkpt lat="48.458042" lon="2.649123"><ele></ele><time>2020-1-11T5:48:28Z</time></trkpt>
<trkpt lat="48.45803" lon="2.648921"><ele></ele><time>2020-1-11T5:48:31Z</time></trkpt>
<trkpt lat="48.458106" lon="2.648702"><ele></ele><time>2020-1-11T5:48:34Z</time></trkpt>
<trkpt lat="48.458183" lon="2.648617"><ele></ele><time>2020-1-11T5:48:37Z</time></trkpt>
<trkpt lat="48.45827" lon="2.648509"><ele></ele><time>2020-1-11T5:48:40Z</time></trkpt>
<trkpt lat="48.458352" lon="2.648428"><ele></ele><time>2020-1-11T5:48:43Z</time></trkpt>
<trkpt lat="48.458537" lon="2.648293"><ele></ele><time>2020-1-11T5:48:46Z</time></trkpt>
<trkpt lat="48.458642" lon="2.648242"><ele></ele><time>2020-1-11T5:48:49Z</time></trkpt>
<trkpt lat="48.458742" lon="2.648202"><ele></ele><time>2020-1-11T5:48:52Z</time></trkpt>
<trkpt lat="48.458842" lon="2.648149"><ele></ele><time>2020-1-11T5:48:55Z</time></trkpt>
<trkpt lat="48.458929" lon="2.648101"><ele></ele><time>2020-1-11T5:48:58Z</time></trkpt>
<trkpt lat="48.459103" lon="2.648027"><ele></ele><time>2020-1-11T5:49:1Z</time></trkpt>
<trkpt lat="48.459213" lon="2.647978"><ele></ele><time>2020-1-11T5:49:4Z</time></trkpt>
<trkpt lat="48.459315" lon="2.647894"><ele></ele><time>2020-1-11T5:49:7Z</time></trkpt>
<trkpt lat="48.459381" lon="2.647789"><ele></ele><time>2020-1-11T5:49:10Z</time></trkpt>
<trkpt lat="48.459429" lon="2.647667"><ele></ele><time>2020-1-11T5:49:13Z</time></trkpt>
<trkpt lat="48.459476" lon="2.647418"><ele></ele><time>2020-1-11T5:49:16Z</time></trkpt>
<trkpt lat="48.459508" lon="2.647172"><ele></ele><time>2020-1-11T5:49:19Z</time></trkpt>
<trkpt lat="48.459512" lon="2.646932"><ele></ele><time>2020-1-11T5:49:22Z</time></trkpt>
<trkpt lat="48.459493" lon="2.646675"><ele></ele><time>2020-1-11T5:49:25Z</time></trkpt>
<trkpt lat="48.459488" lon="2.646408"><ele></ele><time>2020-1-11T5:49:28Z</time></trkpt>
<trkpt lat="48.459477" lon="2.646271"><ele></ele><time>2020-1-11T5:49:31Z</time></trkpt>
<trkpt lat="48.459453" lon="2.64612"><ele></ele><time>2020-1-11T5:49:34Z</time></trkpt>
<trkpt lat="48.459414" lon="2.645988"><ele></ele><time>2020-1-11T5:49:37Z</time></trkpt>
<trkpt lat="48.45934" lon="2.64586"><ele></ele><time>2020-1-11T5:49:40Z</time></trkpt>
<trkpt lat="48.459331" lon="2.645692"><ele></ele><time>2020-1-11T5:49:43Z</time></trkpt>
<trkpt lat="48.459235" lon="2.645617"><ele></ele><time>2020-1-11T5:49:46Z</time></trkpt>
<trkpt lat="48.459176" lon="2.645471"><ele></ele><time>2020-1-11T5:49:49Z</time></trkpt>
<trkpt lat="48.459113" lon="2.645232"><ele></ele><time>2020-1-11T5:49:52Z</time></trkpt>
<trkpt lat="48.459076" lon="2.645098"><ele></ele><time>2020-1-11T5:49:55Z</time></trkpt>
<trkpt lat="48.459043" lon="2.644951"><ele></ele><time>2020-1-11T5:49:58Z</time></trkpt>
<trkpt lat="48.459012" lon="2.64467"><ele></ele><time>2020-1-11T5:50:1Z</time></trkpt>
<trkpt lat="48.459012" lon="2.644397"><ele></ele><time>2020-1-11T5:50:4Z</time></trkpt>
<trkpt lat="48.459003" lon="2.644249"><ele></ele><time>2020-1-11T5:50:7Z</time></trkpt>
<trkpt lat="48.459014" lon="2.644093"><ele></ele><time>2020-1-11T5:50:10Z</time></trkpt>
<trkpt lat="48.459034" lon="2.643843"><ele></ele><time>2020-1-11T5:50:13Z</time></trkpt>
<trkpt lat="48.459052" lon="2.6437"><ele></ele><time>2020-1-11T5:50:16Z</time></trkpt>
<trkpt lat="48.459093" lon="2.643578"><ele></ele><time>2020-1-11T5:50:19Z</time></trkpt>
<trkpt lat="48.459182" lon="2.643331"><ele></ele><time>2020-1-11T5:50:22Z</time></trkpt>
<trkpt lat="48.459251" lon="2.643119"><ele></ele><time>2020-1-11T5:50:25Z</time></trkpt>
<trkpt lat="48.45929" lon="2.642975"><ele></ele><time>2020-1-11T5:50:28Z</time></trkpt>
<trkpt lat="48.459314" lon="2.642832"><ele></ele><time>2020-1-11T5:50:31Z</time></trkpt>
<trkpt lat="48.45933" lon="2.642676"><ele></ele><time>2020-1-11T5:50:34Z</time></trkpt>
<trkpt lat="48.45935" lon="2.642453"><ele></ele><time>2020-1-11T5:50:37Z</time></trkpt>
<trkpt lat="48.45936" lon="2.642174"><ele></ele><time>2020-1-11T5:50:40Z</time></trkpt>
<trkpt lat="48.459404" lon="2.641936"><ele></ele><time>2020-1-11T5:50:43Z</time></trkpt>
<trkpt lat="48.459422" lon="2.64178"><ele></ele><time>2020-1-11T5:50:46Z</time></trkpt>
<trkpt lat="48.459449" lon="2.641547"><ele></ele><time>2020-1-11T5:50:49Z</time></trkpt>
<trkpt lat="48.459419" lon="2.641409"><ele></ele><time>2020-1-11T5:50:52Z</time></trkpt>
<trkpt lat="48.459331" lon="2.641307"><ele></ele><time>2020-1-11T5:50:55Z</time></trkpt>
<trkpt lat="48.459221" lon="2.641264"><ele></ele><time>2020-1-11T5:50:58Z</time></trkpt>
<trkpt lat="48.459098" lon="2.641234"><ele></ele><time>2020-1-11T5:51:1Z</time></trkpt>
<trkpt lat="48.458991" lon="2.641207"><ele></ele><time>2020-1-11T5:51:4Z</time></trkpt>
<trkpt lat="48.458865" lon="2.641227"><ele></ele><time>2020-1-11T5:51:7Z</time></trkpt>
<trkpt lat="48.458756" lon="2.641203"><ele></ele><time>2020-1-11T5:51:10Z</time></trkpt>
<trkpt lat="48.458634" lon="2.641186"><ele></ele><time>2020-1-11T5:51:13Z</time></trkpt>
<trkpt lat="48.458522" lon="2.6412"><ele></ele><time>2020-1-11T5:51:16Z</time></trkpt>
<trkpt lat="48.458418" lon="2.641214"><ele></ele><time>2020-1-11T5:51:19Z</time></trkpt>
<trkpt lat="48.45829" lon="2.641209"><ele></ele><time>2020-1-11T5:51:22Z</time></trkpt>
<trkpt lat="48.458161" lon="2.641178"><ele></ele><time>2020-1-11T5:51:25Z</time></trkpt>
<trkpt lat="48.458038" lon="2.641137"><ele></ele><time>2020-1-11T5:51:28Z</time></trkpt>
<trkpt lat="48.457929" lon="2.641028"><ele></ele><time>2020-1-11T5:51:31Z</time></trkpt>
<trkpt lat="48.457858" lon="2.640879"><ele></ele><time>2020-1-11T5:51:34Z</time></trkpt>
<trkpt lat="48.457802" lon="2.640737"><ele></ele><time>2020-1-11T5:51:37Z</time></trkpt>
<trkpt lat="48.457731" lon="2.640551"><ele></ele><time>2020-1-11T5:51:40Z</time></trkpt>
<trkpt lat="48.457654" lon="2.64039"><ele></ele><time>2020-1-11T5:51:43Z</time></trkpt>
<trkpt lat="48.457601" lon="2.640258"><ele></ele><time>2020-1-11T5:51:46Z</time></trkpt>
<trkpt lat="48.457548" lon="2.640084"><ele></ele><time>2020-1-11T5:51:49Z</time></trkpt>
<trkpt lat="48.45752" lon="2.639878"><ele></ele><time>2020-1-11T5:51:52Z</time></trkpt>
<trkpt lat="48.457523" lon="2.639646"><ele></ele><time>2020-1-11T5:51:55Z</time></trkpt>
<trkpt lat="48.457539" lon="2.639423"><ele></ele><time>2020-1-11T5:51:58Z</time></trkpt>
<trkpt lat="48.457561" lon="2.639204"><ele></ele><time>2020-1-11T5:52:1Z</time></trkpt>
<trkpt lat="48.457591" lon="2.638932"><ele></ele><time>2020-1-11T5:52:4Z</time></trkpt>
<trkpt lat="48.45762" lon="2.638787"><ele></ele><time>2020-1-11T5:52:7Z</time></trkpt>
<trkpt lat="48.457641" lon="2.638517"><ele></ele><time>2020-1-11T5:52:10Z</time></trkpt>
<trkpt lat="48.457542" lon="2.638316"><ele></ele><time>2020-1-11T5:52:13Z</time></trkpt>
<trkpt lat="48.45745" lon="2.638305"><ele></ele><time>2020-1-11T5:52:16Z</time></trkpt>
<trkpt lat="48.457318" lon="2.638468"><ele></ele><time>2020-1-11T5:52:19Z</time></trkpt>
<trkpt lat="48.457237" lon="2.638666"><ele></ele><time>2020-1-11T5:52:22Z</time></trkpt>
<trkpt lat="48.45721" lon="2.638879"><ele></ele><time>2020-1-11T5:52:25Z</time></trkpt>
<trkpt lat="48.457145" lon="2.639031"><ele></ele><time>2020-1-11T5:52:28Z</time></trkpt>
<trkpt lat="48.457024" lon="2.63914"><ele></ele><time>2020-1-11T5:52:31Z</time></trkpt>
<trkpt lat="48.456898" lon="2.639215"><ele></ele><time>2020-1-11T5:52:34Z</time></trkpt>
<trkpt lat="48.456808" lon="2.639246"><ele></ele><time>2020-1-11T5:52:37Z</time></trkpt>
<trkpt lat="48.45671" lon="2.639286"><ele></ele><time>2020-1-11T5:52:40Z</time></trkpt>
<trkpt lat="48.456595" lon="2.639335"><ele></ele><time>2020-1-11T5:52:43Z</time></trkpt>
<trkpt lat="48.456427" lon="2.639301"><ele></ele><time>2020-1-11T5:52:46Z</time></trkpt>
<trkpt lat="48.45629" lon="2.639225"><ele></ele><time>2020-1-11T5:52:49Z</time></trkpt>
<trkpt lat="48.456239" lon="2.639102"><ele></ele><time>2020-1-11T5:52:52Z</time></trkpt>
<trkpt lat="48.456197" lon="2.63897"><ele></ele><time>2020-1-11T5:52:55Z</time></trkpt>
<trkpt lat="48.456136" lon="2.63884"><ele></ele><time>2020-1-11T5:52:58Z</time></trkpt>
<trkpt lat="48.456054" lon="2.638765"><ele></ele><time>2020-1-11T5:53:1Z</time></trkpt>
<trkpt lat="48.455882" lon="2.638772"><ele></ele><time>2020-1-11T5:53:4Z</time></trkpt>
<trkpt lat="48.455784" lon="2.638797"><ele></ele><time>2020-1-11T5:53:7Z</time></trkpt>
<trkpt lat="48.455627" lon="2.638799"><ele></ele><time>2020-1-11T5:53:10Z</time></trkpt>
<trkpt lat="48.455505" lon="2.63867"><ele></ele><time>2020-1-11T5:53:13Z</time></trkpt>
<trkpt lat="48.455377" lon="2.638579"><ele></ele><time>2020-1-11T5:53:16Z</time></trkpt>
<trkpt lat="48.455288" lon="2.638549"><ele></ele><time>2020-1-11T5:53:19Z</time></trkpt>
<trkpt lat="48.455189" lon="2.63855"><ele></ele><time>2020-1-11T5:53:22Z</time></trkpt>
<trkpt lat="48.45502" lon="2.638548"><ele></ele><time>2020-1-11T5:53:25Z</time></trkpt>
<trkpt lat="48.454873" lon="2.638475"><ele></ele><time>2020-1-11T5:53:28Z</time></trkpt>
<trkpt lat="48.454754" lon="2.638338"><ele></ele><time>2020-1-11T5:53:31Z</time></trkpt>
<trkpt lat="48.454658" lon="2.638173"><ele></ele><time>2020-1-11T5:53:34Z</time></trkpt>
<trkpt lat="48.454542" lon="2.63798"><ele></ele><time>2020-1-11T5:53:37Z</time></trkpt>
<trkpt lat="48.454473" lon="2.637847"><ele></ele><time>2020-1-11T5:53:40Z</time></trkpt>
<trkpt lat="48.454418" lon="2.637731"><ele></ele><time>2020-1-11T5:53:43Z</time></trkpt>
<trkpt lat="48.454361" lon="2.637506"><ele></ele><time>2020-1-11T5:53:46Z</time></trkpt>
<trkpt lat="48.454349" lon="2.63736"><ele></ele><time>2020-1-11T5:53:49Z</time></trkpt>
<trkpt lat="48.454326" lon="2.637195"><ele></ele><time>2020-1-11T5:53:52Z</time></trkpt>
<trkpt lat="48.454302" lon="2.637057"><ele></ele><time>2020-1-11T5:53:55Z</time></trkpt>
<trkpt lat="48.454266" lon="2.636918"><ele></ele><time>2020-1-11T5:53:58Z</time></trkpt>
<trkpt lat="48.454213" lon="2.636696"><ele></ele><time>2020-1-11T5:54:1Z</time></trkpt>
<trkpt lat="48.454105" lon="2.636541"><ele></ele><time>2020-1-11T5:54:4Z</time></trkpt>
<trkpt lat="48.453971" lon="2.636429"><ele></ele><time>2020-1-11T5:54:7Z</time></trkpt>
<trkpt lat="48.453829" lon="2.636368"><ele></ele><time>2020-1-11T5:54:10Z</time></trkpt>
<trkpt lat="48.453635" lon="2.636427"><ele></ele><time>2020-1-11T5:54:13Z</time></trkpt>
<trkpt lat="48.453541" lon="2.636466"><ele></ele><time>2020-1-11T5:54:16Z</time></trkpt>
<trkpt lat="48.453454" lon="2.636505"><ele></ele><time>2020-1-11T5:54:19Z</time></trkpt>
<trkpt lat="48.453362" lon="2.63654"><ele></ele><time>2020-1-11T5:54:22Z</time></trkpt>
<trkpt lat="48.453201" lon="2.636623"><ele></ele><time>2020-1-11T5:54:25Z</time></trkpt>
<trkpt lat="48.453114" lon="2.636664"><ele></ele><time>2020-1-11T5:54:28Z</time></trkpt>
<trkpt lat="48.452967" lon="2.636667"><ele></ele><time>2020-1-11T5:54:31Z</time></trkpt>
<trkpt lat="48.452843" lon="2.636534"><ele></ele><time>2020-1-11T5:54:34Z</time></trkpt>
<trkpt lat="48.452729" lon="2.636337"><ele></ele><time>2020-1-11T5:54:37Z</time></trkpt>
<trkpt lat="48.452651" lon="2.63617"><ele></ele><time>2020-1-11T5:54:40Z</time></trkpt>
<trkpt lat="48.45253" lon="2.636079"><ele></ele><time>2020-1-11T5:54:43Z</time></trkpt>
<trkpt lat="48.45239" lon="2.636112"><ele></ele><time>2020-1-11T5:54:46Z</time></trkpt>
<trkpt lat="48.452237" lon="2.63614"><ele></ele><time>2020-1-11T5:54:49Z</time></trkpt>
<trkpt lat="48.45208" lon="2.636098"><ele></ele><time>2020-1-11T5:54:52Z</time></trkpt>
<trkpt lat="48.45198" lon="2.635899"><ele></ele><time>2020-1-11T5:54:55Z</time></trkpt>
<trkpt lat="48.451961" lon="2.635599"><ele></ele><time>2020-1-11T5:54:58Z</time></trkpt>
<trkpt lat="48.451962" lon="2.635462"><ele></ele><time>2020-1-11T5:55:1Z</time></trkpt>
<trkpt lat="48.451955" lon="2.635317"><ele></ele><time>2020-1-11T5:55:4Z</time></trkpt>
<trkpt lat="48.451947" lon="2.635172"><ele></ele><time>2020-1-11T5:55:7Z</time></trkpt>
<trkpt lat="48.451957" lon="2.634901"><ele></ele><time>2020-1-11T5:55:10Z</time></trkpt>
<trkpt lat="48.451988" lon="2.634665"><ele></ele><time>2020-1-11T5:55:13Z</time></trkpt>
<trkpt lat="48.452011" lon="2.634438"><ele></ele><time>2020-1-11T5:55:16Z</time></trkpt>
<trkpt lat="48.452015" lon="2.634216"><ele></ele><time>2020-1-11T5:55:19Z</time></trkpt>
<trkpt lat="48.452024" lon="2.634018"><ele></ele><time>2020-1-11T5:55:22Z</time></trkpt>
<trkpt lat="48.452046" lon="2.633856"><ele></ele><time>2020-1-11T5:55:25Z</time></trkpt>
<trkpt lat="48.452112" lon="2.633693"><ele></ele><time>2020-1-11T5:55:28Z</time></trkpt>
<trkpt lat="48.452023" lon="2.633785"><ele></ele><time>2020-1-11T5:55:31Z</time></trkpt>
<trkpt lat="48.452009" lon="2.633974"><ele></ele><time>2020-1-11T5:55:34Z</time></trkpt>
<trkpt lat="48.451993" lon="2.634239"><ele></ele><time>2020-1-11T5:55:37Z</time></trkpt>
<trkpt lat="48.45198" lon="2.634494"><ele></ele><time>2020-1-11T5:55:40Z</time></trkpt>
<trkpt lat="48.451993" lon="2.634683"><ele></ele><time>2020-1-11T5:55:43Z</time></trkpt>
<trkpt lat="48.451961" lon="2.63486"><ele></ele><time>2020-1-11T5:55:46Z</time></trkpt>
<trkpt lat="48.451974" lon="2.634995"><ele></ele><time>2020-1-11T5:55:49Z</time></trkpt>
<trkpt lat="48.451933" lon="2.635142"><ele></ele><time>2020-1-11T5:55:52Z</time></trkpt>
<trkpt lat="48.451765" lon="2.635489"><ele></ele><time>2020-1-11T5:55:55Z</time></trkpt>
<trkpt lat="48.4517" lon="2.635598"><ele></ele><time>2020-1-11T5:55:58Z</time></trkpt>
<trkpt lat="48.451745" lon="2.635805"><ele></ele><time>2020-1-11T5:56:1Z</time></trkpt>
<trkpt lat="48.451762" lon="2.636012"><ele></ele><time>2020-1-11T5:56:4Z</time></trkpt>
<trkpt lat="48.451758" lon="2.636213"><ele></ele><time>2020-1-11T5:56:7Z</time></trkpt>
<trkpt lat="48.451667" lon="2.636306"><ele></ele><time>2020-1-11T5:56:10Z</time></trkpt>
<trkpt lat="48.451539" lon="2.636379"><ele></ele><time>2020-1-11T5:56:13Z</time></trkpt>
<trkpt lat="48.451415" lon="2.636422"><ele></ele><time>2020-1-11T5:56:16Z</time></trkpt>
<trkpt lat="48.451303" lon="2.636505"><ele></ele><time>2020-1-11T5:56:19Z</time></trkpt>
<trkpt lat="48.451212" lon="2.636709"><ele></ele><time>2020-1-11T5:56:22Z</time></trkpt>
<trkpt lat="48.451153" lon="2.636899"><ele></ele><time>2020-1-11T5:56:25Z</time></trkpt>
<trkpt lat="48.451082" lon="2.6371"><ele></ele><time>2020-1-11T5:56:28Z</time></trkpt>
<trkpt lat="48.450985" lon="2.63728"><ele></ele><time>2020-1-11T5:56:31Z</time></trkpt>
<trkpt lat="48.450927" lon="2.637469"><ele></ele><time>2020-1-11T5:56:34Z</time></trkpt>
<trkpt lat="48.450905" lon="2.63773"><ele></ele><time>2020-1-11T5:56:37Z</time></trkpt>
<trkpt lat="48.450898" lon="2.637886"><ele></ele><time>2020-1-11T5:56:40Z</time></trkpt>
<trkpt lat="48.450895" lon="2.63803"><ele></ele><time>2020-1-11T5:56:43Z</time></trkpt>
<trkpt lat="48.450894" lon="2.638166"><ele></ele><time>2020-1-11T5:56:46Z</time></trkpt>
<trkpt lat="48.450882" lon="2.638306"><ele></ele><time>2020-1-11T5:56:49Z</time></trkpt>
<trkpt lat="48.450871" lon="2.638552"><ele></ele><time>2020-1-11T5:56:52Z</time></trkpt>
<trkpt lat="48.450886" lon="2.638788"><ele></ele><time>2020-1-11T5:56:55Z</time></trkpt>
<trkpt lat="48.450904" lon="2.639053"><ele></ele><time>2020-1-11T5:56:58Z</time></trkpt>
<trkpt lat="48.450921" lon="2.639203"><ele></ele><time>2020-1-11T5:57:1Z</time></trkpt>
<trkpt lat="48.450925" lon="2.63936"><ele></ele><time>2020-1-11T5:57:4Z</time></trkpt>
<trkpt lat="48.450921" lon="2.639604"><ele></ele><time>2020-1-11T5:57:7Z</time></trkpt>
<trkpt lat="48.450978" lon="2.639825"><ele></ele><time>2020-1-11T5:57:10Z</time></trkpt>
<trkpt lat="48.451055" lon="2.640116"><ele></ele><time>2020-1-11T5:57:13Z</time></trkpt>
<trkpt lat="48.451007" lon="2.640282"><ele></ele><time>2020-1-11T5:57:16Z</time></trkpt>
<trkpt lat="48.450948" lon="2.640439"><ele></ele><time>2020-1-11T5:57:19Z</time></trkpt>
<trkpt lat="48.450897" lon="2.640641"><ele></ele><time>2020-1-11T5:57:22Z</time></trkpt>
<trkpt lat="48.450822" lon="2.64086"><ele></ele><time>2020-1-11T5:57:25Z</time></trkpt>
<trkpt lat="48.450758" lon="2.641053"><ele></ele><time>2020-1-11T5:57:28Z</time></trkpt>
<trkpt lat="48.450641" lon="2.64116"><ele></ele><time>2020-1-11T5:57:31Z</time></trkpt>
<trkpt lat="48.450488" lon="2.641357"><ele></ele><time>2020-1-11T5:57:34Z</time></trkpt>
<trkpt lat="48.450407" lon="2.641449"><ele></ele><time>2020-1-11T5:57:37Z</time></trkpt>
<trkpt lat="48.450329" lon="2.641537"><ele></ele><time>2020-1-11T5:57:40Z</time></trkpt>
<trkpt lat="48.450257" lon="2.641625"><ele></ele><time>2020-1-11T5:57:43Z</time></trkpt>
<trkpt lat="48.450189" lon="2.641782"><ele></ele><time>2020-1-11T5:57:46Z</time></trkpt>
<trkpt lat="48.450102" lon="2.641939"><ele></ele><time>2020-1-11T5:57:49Z</time></trkpt>
<trkpt lat="48.450007" lon="2.642037"><ele></ele><time>2020-1-11T5:57:52Z</time></trkpt>
<trkpt lat="48.449927" lon="2.642181"><ele></ele><time>2020-1-11T5:57:55Z</time></trkpt>
<trkpt lat="48.449828" lon="2.642327"><ele></ele><time>2020-1-11T5:57:58Z</time></trkpt>
<trkpt lat="48.449736" lon="2.642491"><ele></ele><time>2020-1-11T5:58:1Z</time></trkpt>
<trkpt lat="48.449637" lon="2.642636"><ele></ele><time>2020-1-11T5:58:4Z</time></trkpt>
<trkpt lat="48.449531" lon="2.6428"><ele></ele><time>2020-1-11T5:58:7Z</time></trkpt>
<trkpt lat="48.449424" lon="2.642938"><ele></ele><time>2020-1-11T5:58:10Z</time></trkpt>
<trkpt lat="48.449332" lon="2.643153"><ele></ele><time>2020-1-11T5:58:13Z</time></trkpt>
<trkpt lat="48.449293" lon="2.643386"><ele></ele><time>2020-1-11T5:58:16Z</time></trkpt>
<trkpt lat="48.449365" lon="2.643573"><ele></ele><time>2020-1-11T5:58:19Z</time></trkpt>
<trkpt lat="48.449427" lon="2.643682"><ele></ele><time>2020-1-11T5:58:22Z</time></trkpt>
<trkpt lat="48.449546" lon="2.643904"><ele></ele><time>2020-1-11T5:58:25Z</time></trkpt>
<trkpt lat="48.449601" lon="2.644028"><ele></ele><time>2020-1-11T5:58:28Z</time></trkpt>
<trkpt lat="48.449643" lon="2.644255"><ele></ele><time>2020-1-11T5:58:31Z</time></trkpt>
<trkpt lat="48.449603" lon="2.644478"><ele></ele><time>2020-1-11T5:58:34Z</time></trkpt>
<trkpt lat="48.449605" lon="2.644627"><ele></ele><time>2020-1-11T5:58:37Z</time></trkpt>
<trkpt lat="48.449609" lon="2.644778"><ele></ele><time>2020-1-11T5:58:40Z</time></trkpt>
<trkpt lat="48.449618" lon="2.644932"><ele></ele><time>2020-1-11T5:58:43Z</time></trkpt>
<trkpt lat="48.449621" lon="2.645131"><ele></ele><time>2020-1-11T5:58:46Z</time></trkpt>
<trkpt lat="48.449626" lon="2.645332"><ele></ele><time>2020-1-11T5:58:49Z</time></trkpt>
<trkpt lat="48.449637" lon="2.645488"><ele></ele><time>2020-1-11T5:58:52Z</time></trkpt>
<trkpt lat="48.44966" lon="2.645661"><ele></ele><time>2020-1-11T5:58:55Z</time></trkpt>
<trkpt lat="48.449641" lon="2.645835"><ele></ele><time>2020-1-11T5:58:58Z</time></trkpt>
<trkpt lat="48.449631" lon="2.646088"><ele></ele><time>2020-1-11T5:59:1Z</time></trkpt>
<trkpt lat="48.449625" lon="2.646278"><ele></ele><time>2020-1-11T5:59:4Z</time></trkpt>
<trkpt lat="48.44962" lon="2.646415"><ele></ele><time>2020-1-11T5:59:7Z</time></trkpt>
<trkpt lat="48.449618" lon="2.646641"><ele></ele><time>2020-1-11T5:59:10Z</time></trkpt>
<trkpt lat="48.449613" lon="2.646826"><ele></ele><time>2020-1-11T5:59:13Z</time></trkpt>
<trkpt lat="48.449597" lon="2.647031"><ele></ele><time>2020-1-11T5:59:16Z</time></trkpt>
<trkpt lat="48.449468" lon="2.647085"><ele></ele><time>2020-1-11T5:59:19Z</time></trkpt>
<trkpt lat="48.449311" lon="2.647071"><ele></ele><time>2020-1-11T5:59:22Z</time></trkpt>
<trkpt lat="48.449164" lon="2.647112"><ele></ele><time>2020-1-11T5:59:25Z</time></trkpt>
<trkpt lat="48.449041" lon="2.647275"><ele></ele><time>2020-1-11T5:59:28Z</time></trkpt>
<trkpt lat="48.448987" lon="2.647451"><ele></ele><time>2020-1-11T5:59:31Z</time></trkpt>
<trkpt lat="48.448953" lon="2.647581"><ele></ele><time>2020-1-11T5:59:34Z</time></trkpt>
<trkpt lat="48.448901" lon="2.647813"><ele></ele><time>2020-1-11T5:59:37Z</time></trkpt>
<trkpt lat="48.448834" lon="2.647992"><ele></ele><time>2020-1-11T5:59:40Z</time></trkpt>
<trkpt lat="48.448796" lon="2.648127"><ele></ele><time>2020-1-11T5:59:43Z</time></trkpt>
<trkpt lat="48.448724" lon="2.648349"><ele></ele><time>2020-1-11T5:59:46Z</time></trkpt>
<trkpt lat="48.448662" lon="2.648457"><ele></ele><time>2020-1-11T5:59:49Z</time></trkpt>
<trkpt lat="48.448579" lon="2.648662"><ele></ele><time>2020-1-11T5:59:52Z</time></trkpt>
<trkpt lat="48.448492" lon="2.648761"><ele></ele><time>2020-1-11T5:59:55Z</time></trkpt>
<trkpt lat="48.448455" lon="2.648953"><ele></ele><time>2020-1-11T5:59:58Z</time></trkpt>
<trkpt lat="48.448419" lon="2.649089"><ele></ele><time>2020-1-11T6:0:1Z</time></trkpt>
<trkpt lat="48.448371" lon="2.649238"><ele></ele><time>2020-1-11T6:0:4Z</time></trkpt>
<trkpt lat="48.448328" lon="2.649379"><ele></ele><time>2020-1-11T6:0:7Z</time></trkpt>
<trkpt lat="48.448268" lon="2.649558"><ele></ele><time>2020-1-11T6:0:10Z</time></trkpt>
<trkpt lat="48.448181" lon="2.649686"><ele></ele><time>2020-1-11T6:0:13Z</time></trkpt>
<trkpt lat="48.44814" lon="2.649815"><ele></ele><time>2020-1-11T6:0:16Z</time></trkpt>
<trkpt lat="48.448037" lon="2.650125"><ele></ele><time>2020-1-11T6:0:19Z</time></trkpt>
<trkpt lat="48.447992" lon="2.650419"><ele></ele><time>2020-1-11T6:0:22Z</time></trkpt>
<trkpt lat="48.447878" lon="2.650628"><ele></ele><time>2020-1-11T6:0:25Z</time></trkpt>
<trkpt lat="48.447829" lon="2.65085"><ele></ele><time>2020-1-11T6:0:28Z</time></trkpt>
<trkpt lat="48.447846" lon="2.651022"><ele></ele><time>2020-1-11T6:0:31Z</time></trkpt>
<trkpt lat="48.447903" lon="2.651236"><ele></ele><time>2020-1-11T6:0:34Z</time></trkpt>
<trkpt lat="48.447955" lon="2.651448"><ele></ele><time>2020-1-11T6:0:37Z</time></trkpt>
<trkpt lat="48.448039" lon="2.651677"><ele></ele><time>2020-1-11T6:0:40Z</time></trkpt>
<trkpt lat="48.448094" lon="2.651785"><ele></ele><time>2020-1-11T6:0:43Z</time></trkpt>
<trkpt lat="48.44817" lon="2.65203"><ele></ele><time>2020-1-11T6:0:46Z</time></trkpt>
<trkpt lat="48.448205" lon="2.652156"><ele></ele><time>2020-1-11T6:0:49Z</time></trkpt>
<trkpt lat="48.448239" lon="2.652282"><ele></ele><time>2020-1-11T6:0:52Z</time></trkpt>
<trkpt lat="48.448322" lon="2.652532"><ele></ele><time>2020-1-11T6:0:55Z</time></trkpt>
<trkpt lat="48.448381" lon="2.652652"><ele></ele><time>2020-1-11T6:0:58Z</time></trkpt>
<trkpt lat="48.448456" lon="2.652776"><ele></ele><time>2020-1-11T6:1:1Z</time></trkpt>
<trkpt lat="48.44855" lon="2.652906"><ele></ele><time>2020-1-11T6:1:4Z</time></trkpt>
<trkpt lat="48.44862" lon="2.653034"><ele></ele><time>2020-1-11T6:1:7Z</time></trkpt>
<trkpt lat="48.448701" lon="2.65314"><ele></ele><time>2020-1-11T6:1:10Z</time></trkpt>
<trkpt lat="48.448793" lon="2.653206"><ele></ele><time>2020-1-11T6:1:13Z</time></trkpt>
<trkpt lat="48.448869" lon="2.653298"><ele></ele><time>2020-1-11T6:1:16Z</time></trkpt>
<trkpt lat="48.448929" lon="2.653526"><ele></ele><time>2020-1-11T6:1:19Z</time></trkpt>
<trkpt lat="48.448988" lon="2.653745"><ele></ele><time>2020-1-11T6:1:22Z</time></trkpt>
<trkpt lat="48.449045" lon="2.654014"><ele></ele><time>2020-1-11T6:1:25Z</time></trkpt>
<trkpt lat="48.449066" lon="2.654242"><ele></ele><time>2020-1-11T6:1:28Z</time></trkpt>
<trkpt lat="48.449" lon="2.654483"><ele></ele><time>2020-1-11T6:1:31Z</time></trkpt>
<trkpt lat="48.448986" lon="2.654689"><ele></ele><time>2020-1-11T6:1:34Z</time></trkpt>
<trkpt lat="48.448984" lon="2.654936"><ele></ele><time>2020-1-11T6:1:37Z</time></trkpt>
<trkpt lat="48.448883" lon="2.654998"><ele></ele><time>2020-1-11T6:1:40Z</time></trkpt>
<trkpt lat="48.448811" lon="2.655094"><ele></ele><time>2020-1-11T6:1:43Z</time></trkpt>
<trkpt lat="48.44877" lon="2.65523"><ele></ele><time>2020-1-11T6:1:46Z</time></trkpt>
<trkpt lat="48.448699" lon="2.655434"><ele></ele><time>2020-1-11T6:1:49Z</time></trkpt>
<trkpt lat="48.448701" lon="2.655638"><ele></ele><time>2020-1-11T6:1:52Z</time></trkpt>
<trkpt lat="48.448659" lon="2.655777"><ele></ele><time>2020-1-11T6:1:55Z</time></trkpt>
<trkpt lat="48.448615" lon="2.6559"><ele></ele><time>2020-1-11T6:1:58Z</time></trkpt>
<trkpt lat="48.448599" lon="2.65612"><ele></ele><time>2020-1-11T6:2:1Z</time></trkpt>
<trkpt lat="48.448557" lon="2.656359"><ele></ele><time>2020-1-11T6:2:4Z</time></trkpt>
<trkpt lat="48.448511" lon="2.656476"><ele></ele><time>2020-1-11T6:2:7Z</time></trkpt>
<trkpt lat="48.448444" lon="2.65664"><ele></ele><time>2020-1-11T6:2:10Z</time></trkpt>
<trkpt lat="48.448383" lon="2.656814"><ele></ele><time>2020-1-11T6:2:13Z</time></trkpt>
<trkpt lat="48.448308" lon="2.657007"><ele></ele><time>2020-1-11T6:2:16Z</time></trkpt>
<trkpt lat="48.448276" lon="2.657185"><ele></ele><time>2020-1-11T6:2:19Z</time></trkpt>
<trkpt lat="48.448238" lon="2.657347"><ele></ele><time>2020-1-11T6:2:22Z</time></trkpt>
<trkpt lat="48.448159" lon="2.657505"><ele></ele><time>2020-1-11T6:2:25Z</time></trkpt>
<trkpt lat="48.448113" lon="2.657712"><ele></ele><time>2020-1-11T6:2:28Z</time></trkpt>
<trkpt lat="48.448059" lon="2.657886"><ele></ele><time>2020-1-11T6:2:31Z</time></trkpt>
<trkpt lat="48.448005" lon="2.658099"><ele></ele><time>2020-1-11T6:2:34Z</time></trkpt>
<trkpt lat="48.447983" lon="2.658311"><ele></ele><time>2020-1-11T6:2:37Z</time></trkpt>
<trkpt lat="48.447929" lon="2.658493"><ele></ele><time>2020-1-11T6:2:40Z</time></trkpt>
<trkpt lat="48.447863" lon="2.658614"><ele></ele><time>2020-1-11T6:2:43Z</time></trkpt>
<trkpt lat="48.447832" lon="2.658765"><ele></ele><time>2020-1-11T6:2:46Z</time></trkpt>
<trkpt lat="48.447775" lon="2.658879"><ele></ele><time>2020-1-11T6:2:49Z</time></trkpt>
<trkpt lat="48.447736" lon="2.659088"><ele></ele><time>2020-1-11T6:2:52Z</time></trkpt>
<trkpt lat="48.447694" lon="2.659214"><ele></ele><time>2020-1-11T6:2:55Z</time></trkpt>
<trkpt lat="48.447616" lon="2.659503"><ele></ele><time>2020-1-11T6:2:58Z</time></trkpt>
<trkpt lat="48.447556" lon="2.659653"><ele></ele><time>2020-1-11T6:3:1Z</time></trkpt>
<trkpt lat="48.44753" lon="2.659784"><ele></ele><time>2020-1-11T6:3:4Z</time></trkpt>
<trkpt lat="48.44752" lon="2.659985"><ele></ele><time>2020-1-11T6:3:7Z</time></trkpt>
<trkpt lat="48.447411" lon="2.660154"><ele></ele><time>2020-1-11T6:3:10Z</time></trkpt>
<trkpt lat="48.447342" lon="2.660244"><ele></ele><time>2020-1-11T6:3:13Z</time></trkpt>
<trkpt lat="48.447277" lon="2.660405"><ele></ele><time>2020-1-11T6:3:16Z</time></trkpt>
<trkpt lat="48.447171" lon="2.660497"><ele></ele><time>2020-1-11T6:3:19Z</time></trkpt>
<trkpt lat="48.447057" lon="2.660548"><ele></ele><time>2020-1-11T6:3:22Z</time></trkpt>
<trkpt lat="48.446949" lon="2.660655"><ele></ele><time>2020-1-11T6:3:25Z</time></trkpt>
<trkpt lat="48.446816" lon="2.66076"><ele></ele><time>2020-1-11T6:3:28Z</time></trkpt>
<trkpt lat="48.446728" lon="2.660792"><ele></ele><time>2020-1-11T6:3:31Z</time></trkpt>
<trkpt lat="48.446641" lon="2.660848"><ele></ele><time>2020-1-11T6:3:34Z</time></trkpt>
<trkpt lat="48.446533" lon="2.660963"><ele></ele><time>2020-1-11T6:3:37Z</time></trkpt>
<trkpt lat="48.446389" lon="2.661028"><ele></ele><time>2020-1-11T6:3:40Z</time></trkpt>
<trkpt lat="48.446249" lon="2.661123"><ele></ele><time>2020-1-11T6:3:43Z</time></trkpt>
<trkpt lat="48.446151" lon="2.661252"><ele></ele><time>2020-1-11T6:3:46Z</time></trkpt>
<trkpt lat="48.446063" lon="2.661288"><ele></ele><time>2020-1-11T6:3:49Z</time></trkpt>
<trkpt lat="48.445964" lon="2.661266"><ele></ele><time>2020-1-11T6:3:52Z</time></trkpt>
<trkpt lat="48.445747" lon="2.66135"><ele></ele><time>2020-1-11T6:3:55Z</time></trkpt>
<trkpt lat="48.44559" lon="2.661489"><ele></ele><time>2020-1-11T6:3:58Z</time></trkpt>
<trkpt lat="48.445456" lon="2.661528"><ele></ele><time>2020-1-11T6:4:1Z</time></trkpt>
<trkpt lat="48.445344" lon="2.661594"><ele></ele><time>2020-1-11T6:4:4Z</time></trkpt>
<trkpt lat="48.445336" lon="2.661426"><ele></ele><time>2020-1-11T6:4:7Z</time></trkpt>
<trkpt lat="48.445408" lon="2.661207"><ele></ele><time>2020-1-11T6:4:10Z</time></trkpt>
<trkpt lat="48.445487" lon="2.661001"><ele></ele><time>2020-1-11T6:4:13Z</time></trkpt>
<trkpt lat="48.445529" lon="2.660877"><ele></ele><time>2020-1-11T6:4:16Z</time></trkpt>
<trkpt lat="48.445616" lon="2.660648"><ele></ele><time>2020-1-11T6:4:19Z</time></trkpt>
<trkpt lat="48.445706" lon="2.660434"><ele></ele><time>2020-1-11T6:4:22Z</time></trkpt>
<trkpt lat="48.445765" lon="2.660321"><ele></ele><time>2020-1-11T6:4:25Z</time></trkpt>
<trkpt lat="48.445814" lon="2.660185"><ele></ele><time>2020-1-11T6:4:28Z</time></trkpt>
<trkpt lat="48.445947" lon="2.659991"><ele></ele><time>2020-1-11T6:4:31Z</time></trkpt>
<trkpt lat="48.446028" lon="2.659764"><ele></ele><time>2020-1-11T6:4:34Z</time></trkpt>
<trkpt lat="48.446095" lon="2.659672"><ele></ele><time>2020-1-11T6:4:37Z</time></trkpt>
<trkpt lat="48.446201" lon="2.659528"><ele></ele><time>2020-1-11T6:4:40Z</time></trkpt>
<trkpt lat="48.44627" lon="2.659422"><ele></ele><time>2020-1-11T6:4:43Z</time></trkpt>
<trkpt lat="48.446307" lon="2.659242"><ele></ele><time>2020-1-11T6:4:46Z</time></trkpt>
<trkpt lat="48.446418" lon="2.65903"><ele></ele><time>2020-1-11T6:4:49Z</time></trkpt>
<trkpt lat="48.446484" lon="2.658933"><ele></ele><time>2020-1-11T6:4:52Z</time></trkpt>
<trkpt lat="48.446531" lon="2.658773"><ele></ele><time>2020-1-11T6:4:55Z</time></trkpt>
<trkpt lat="48.446573" lon="2.65862"><ele></ele><time>2020-1-11T6:4:58Z</time></trkpt>
<trkpt lat="48.446629" lon="2.658463"><ele></ele><time>2020-1-11T6:5:1Z</time></trkpt>
<trkpt lat="48.446681" lon="2.658315"><ele></ele><time>2020-1-11T6:5:4Z</time></trkpt>
<trkpt lat="48.446724" lon="2.658098"><ele></ele><time>2020-1-11T6:5:7Z</time></trkpt>
<trkpt lat="48.446727" lon="2.657851"><ele></ele><time>2020-1-11T6:5:10Z</time></trkpt>
<trkpt lat="48.446797" lon="2.657687"><ele></ele><time>2020-1-11T6:5:13Z</time></trkpt>
<trkpt lat="48.446857" lon="2.657406"><ele></ele><time>2020-1-11T6:5:16Z</time></trkpt>
<trkpt lat="48.446814" lon="2.657226"><ele></ele><time>2020-1-11T6:5:19Z</time></trkpt>
<trkpt lat="48.446835" lon="2.657033"><ele></ele><time>2020-1-11T6:5:22Z</time></trkpt>
<trkpt lat="48.446895" lon="2.656879"><ele></ele><time>2020-1-11T6:5:25Z</time></trkpt>
<trkpt lat="48.446943" lon="2.656713"><ele></ele><time>2020-1-11T6:5:28Z</time></trkpt>
<trkpt lat="48.446995" lon="2.656563"><ele></ele><time>2020-1-11T6:5:31Z</time></trkpt>
<trkpt lat="48.447019" lon="2.656375"><ele></ele><time>2020-1-11T6:5:34Z</time></trkpt>
<trkpt lat="48.447099" lon="2.656249"><ele></ele><time>2020-1-11T6:5:37Z</time></trkpt>
<trkpt lat="48.447096" lon="2.656062"><ele></ele><time>2020-1-11T6:5:40Z</time></trkpt>
<trkpt lat="48.447115" lon="2.6559"><ele></ele><time>2020-1-11T6:5:43Z</time></trkpt>
<trkpt lat="48.44712" lon="2.655756"><ele></ele><time>2020-1-11T6:5:46Z</time></trkpt>
<trkpt lat="48.447139" lon="2.655615"><ele></ele><time>2020-1-11T6:5:49Z</time></trkpt>
<trkpt lat="48.447183" lon="2.65537"><ele></ele><time>2020-1-11T6:5:52Z</time></trkpt>
<trkpt lat="48.447225" lon="2.655163"><ele></ele><time>2020-1-11T6:5:55Z</time></trkpt>
<trkpt lat="48.447238" lon="2.654979"><ele></ele><time>2020-1-11T6:5:58Z</time></trkpt>
<trkpt lat="48.44729" lon="2.654846"><ele></ele><time>2020-1-11T6:6:1Z</time></trkpt>
<trkpt lat="48.447302" lon="2.654711"><ele></ele><time>2020-1-11T6:6:4Z</time></trkpt>
<trkpt lat="48.447339" lon="2.654549"><ele></ele><time>2020-1-11T6:6:7Z</time></trkpt>
<trkpt lat="48.447316" lon="2.654382"><ele></ele><time>2020-1-11T6:6:10Z</time></trkpt>
<trkpt lat="48.447195" lon="2.654332"><ele></ele><time>2020-1-11T6:6:13Z</time></trkpt>
<trkpt lat="48.447117" lon="2.654227"><ele></ele><time>2020-1-11T6:6:16Z</time></trkpt>
<trkpt lat="48.446936" lon="2.654024"><ele></ele><time>2020-1-11T6:6:19Z</time></trkpt>
<trkpt lat="48.446829" lon="2.653894"><ele></ele><time>2020-1-11T6:6:22Z</time></trkpt>
<trkpt lat="48.446721" lon="2.653785"><ele></ele><time>2020-1-11T6:6:25Z</time></trkpt>
<trkpt lat="48.446598" lon="2.653666"><ele></ele><time>2020-1-11T6:6:28Z</time></trkpt>
<trkpt lat="48.446489" lon="2.653571"><ele></ele><time>2020-1-11T6:6:31Z</time></trkpt>
<trkpt lat="48.446378" lon="2.653489"><ele></ele><time>2020-1-11T6:6:34Z</time></trkpt>
<trkpt lat="48.446294" lon="2.65342"><ele></ele><time>2020-1-11T6:6:37Z</time></trkpt>
<trkpt lat="48.446194" lon="2.653312"><ele></ele><time>2020-1-11T6:6:40Z</time></trkpt>
<trkpt lat="48.446113" lon="2.653247"><ele></ele><time>2020-1-11T6:6:43Z</time></trkpt>
<trkpt lat="48.446027" lon="2.653171"><ele></ele><time>2020-1-11T6:6:46Z</time></trkpt>
<trkpt lat="48.445893" lon="2.653128"><ele></ele><time>2020-1-11T6:6:49Z</time></trkpt>
<trkpt lat="48.445823" lon="2.653041"><ele></ele><time>2020-1-11T6:6:52Z</time></trkpt>
<trkpt lat="48.445723" lon="2.653053"><ele></ele><time>2020-1-11T6:6:55Z</time></trkpt>
<trkpt lat="48.445621" lon="2.653095"><ele></ele><time>2020-1-11T6:6:58Z</time></trkpt>
<trkpt lat="48.445521" lon="2.65307"><ele></ele><time>2020-1-11T6:7:1Z</time></trkpt>
<trkpt lat="48.445427" lon="2.653051"><ele></ele><time>2020-1-11T6:7:4Z</time></trkpt>
<trkpt lat="48.445341" lon="2.653008"><ele></ele><time>2020-1-11T6:7:7Z</time></trkpt>
<trkpt lat="48.44522" lon="2.652994"><ele></ele><time>2020-1-11T6:7:10Z</time></trkpt>
<trkpt lat="48.445041" lon="2.653107"><ele></ele><time>2020-1-11T6:7:13Z</time></trkpt>
<trkpt lat="48.444898" lon="2.653032"><ele></ele><time>2020-1-11T6:7:16Z</time></trkpt>
<trkpt lat="48.444813" lon="2.652957"><ele></ele><time>2020-1-11T6:7:19Z</time></trkpt>
<trkpt lat="48.44469" lon="2.652776"><ele></ele><time>2020-1-11T6:7:22Z</time></trkpt>
<trkpt lat="48.444604" lon="2.652675"><ele></ele><time>2020-1-11T6:7:25Z</time></trkpt>
<trkpt lat="48.444494" lon="2.652498"><ele></ele><time>2020-1-11T6:7:28Z</time></trkpt>
<trkpt lat="48.444417" lon="2.65241"><ele></ele><time>2020-1-11T6:7:31Z</time></trkpt>
<trkpt lat="48.444272" lon="2.652384"><ele></ele><time>2020-1-11T6:7:34Z</time></trkpt>
<trkpt lat="48.444193" lon="2.652305"><ele></ele><time>2020-1-11T6:7:37Z</time></trkpt>
<trkpt lat="48.444187" lon="2.652145"><ele></ele><time>2020-1-11T6:7:40Z</time></trkpt>
<trkpt lat="48.444088" lon="2.652067"><ele></ele><time>2020-1-11T6:7:43Z</time></trkpt>
<trkpt lat="48.443989" lon="2.651943"><ele></ele><time>2020-1-11T6:7:46Z</time></trkpt>
<trkpt lat="48.443868" lon="2.651854"><ele></ele><time>2020-1-11T6:7:49Z</time></trkpt>
<trkpt lat="48.443766" lon="2.65188"><ele></ele><time>2020-1-11T6:7:52Z</time></trkpt>
<trkpt lat="48.443718" lon="2.652048"><ele></ele><time>2020-1-11T6:7:55Z</time></trkpt>
<trkpt lat="48.443691" lon="2.652216"><ele></ele><time>2020-1-11T6:7:58Z</time></trkpt>
<trkpt lat="48.443653" lon="2.652389"><ele></ele><time>2020-1-11T6:8:1Z</time></trkpt>
<trkpt lat="48.443639" lon="2.652571"><ele></ele><time>2020-1-11T6:8:4Z</time></trkpt>
<trkpt lat="48.443602" lon="2.652726"><ele></ele><time>2020-1-11T6:8:7Z</time></trkpt>
<trkpt lat="48.443571" lon="2.652918"><ele></ele><time>2020-1-11T6:8:10Z</time></trkpt>
<trkpt lat="48.443524" lon="2.65312"><ele></ele><time>2020-1-11T6:8:13Z</time></trkpt>
<trkpt lat="48.443492" lon="2.65333"><ele></ele><time>2020-1-11T6:8:16Z</time></trkpt>
<trkpt lat="48.4435" lon="2.653525"><ele></ele><time>2020-1-11T6:8:19Z</time></trkpt>
<trkpt lat="48.443493" lon="2.6537"><ele></ele><time>2020-1-11T6:8:22Z</time></trkpt>
<trkpt lat="48.443432" lon="2.653907"><ele></ele><time>2020-1-11T6:8:25Z</time></trkpt>
<trkpt lat="48.443381" lon="2.654096"><ele></ele><time>2020-1-11T6:8:28Z</time></trkpt>
<trkpt lat="48.443354" lon="2.654296"><ele></ele><time>2020-1-11T6:8:31Z</time></trkpt>
<trkpt lat="48.443352" lon="2.654459"><ele></ele><time>2020-1-11T6:8:34Z</time></trkpt>
<trkpt lat="48.443307" lon="2.654647"><ele></ele><time>2020-1-11T6:8:37Z</time></trkpt>
<trkpt lat="48.443297" lon="2.654813"><ele></ele><time>2020-1-11T6:8:40Z</time></trkpt>
<trkpt lat="48.443276" lon="2.654967"><ele></ele><time>2020-1-11T6:8:43Z</time></trkpt>
<trkpt lat="48.443254" lon="2.655163"><ele></ele><time>2020-1-11T6:8:46Z</time></trkpt>
<trkpt lat="48.443235" lon="2.65533"><ele></ele><time>2020-1-11T6:8:49Z</time></trkpt>
<trkpt lat="48.443209" lon="2.655486"><ele></ele><time>2020-1-11T6:8:52Z</time></trkpt>
<trkpt lat="48.443159" lon="2.655655"><ele></ele><time>2020-1-11T6:8:55Z</time></trkpt>
<trkpt lat="48.443107" lon="2.655815"><ele></ele><time>2020-1-11T6:8:58Z</time></trkpt>
<trkpt lat="48.443056" lon="2.655943"><ele></ele><time>2020-1-11T6:9:1Z</time></trkpt>
<trkpt lat="48.443017" lon="2.656097"><ele></ele><time>2020-1-11T6:9:4Z</time></trkpt>
<trkpt lat="48.442973" lon="2.656276"><ele></ele><time>2020-1-11T6:9:7Z</time></trkpt>
<trkpt lat="48.442928" lon="2.656456"><ele></ele><time>2020-1-11T6:9:10Z</time></trkpt>
<trkpt lat="48.44287" lon="2.656661"><ele></ele><time>2020-1-11T6:9:13Z</time></trkpt>
<trkpt lat="48.442824" lon="2.656805"><ele></ele><time>2020-1-11T6:9:16Z</time></trkpt>
<trkpt lat="48.442785" lon="2.656929"><ele></ele><time>2020-1-11T6:9:19Z</time></trkpt>
<trkpt lat="48.442725" lon="2.657145"><ele></ele><time>2020-1-11T6:9:22Z</time></trkpt>
<trkpt lat="48.442658" lon="2.657303"><ele></ele><time>2020-1-11T6:9:25Z</time></trkpt>
<trkpt lat="48.442591" lon="2.657501"><ele></ele><time>2020-1-11T6:9:28Z</time></trkpt>
<trkpt lat="48.442553" lon="2.657703"><ele></ele><time>2020-1-11T6:9:31Z</time></trkpt>
<trkpt lat="48.442493" lon="2.657908"><ele></ele><time>2020-1-11T6:9:34Z</time></trkpt>
<trkpt lat="48.442453" lon="2.658081"><ele></ele><time>2020-1-11T6:9:37Z</time></trkpt>
<trkpt lat="48.442425" lon="2.658253"><ele></ele><time>2020-1-11T6:9:40Z</time></trkpt>
<trkpt lat="48.442393" lon="2.65849"><ele></ele><time>2020-1-11T6:9:43Z</time></trkpt>
<trkpt lat="48.442299" lon="2.658699"><ele></ele><time>2020-1-11T6:9:46Z</time></trkpt>
<trkpt lat="48.442251" lon="2.658951"><ele></ele><time>2020-1-11T6:9:49Z</time></trkpt>
<trkpt lat="48.442193" lon="2.659127"><ele></ele><time>2020-1-11T6:9:52Z</time></trkpt>
<trkpt lat="48.442173" lon="2.659279"><ele></ele><time>2020-1-11T6:9:55Z</time></trkpt>
<trkpt lat="48.442148" lon="2.659437"><ele></ele><time>2020-1-11T6:9:58Z</time></trkpt>
<trkpt lat="48.44211" lon="2.65958"><ele></ele><time>2020-1-11T6:10:1Z</time></trkpt>
<trkpt lat="48.44209" lon="2.659754"><ele></ele><time>2020-1-11T6:10:4Z</time></trkpt>
<trkpt lat="48.442081" lon="2.659936"><ele></ele><time>2020-1-11T6:10:7Z</time></trkpt>
<trkpt lat="48.442071" lon="2.660118"><ele></ele><time>2020-1-11T6:10:10Z</time></trkpt>
<trkpt lat="48.442055" lon="2.660305"><ele></ele><time>2020-1-11T6:10:13Z</time></trkpt>
<trkpt lat="48.442071" lon="2.660483"><ele></ele><time>2020-1-11T6:10:16Z</time></trkpt>
<trkpt lat="48.442035" lon="2.660613"><ele></ele><time>2020-1-11T6:10:19Z</time></trkpt>
<trkpt lat="48.441936" lon="2.660747"><ele></ele><time>2020-1-11T6:10:22Z</time></trkpt>
<trkpt lat="48.441946" lon="2.660913"><ele></ele><time>2020-1-11T6:10:25Z</time></trkpt>
<trkpt lat="48.441963" lon="2.661087"><ele></ele><time>2020-1-11T6:10:28Z</time></trkpt>
<trkpt lat="48.441945" lon="2.661249"><ele></ele><time>2020-1-11T6:10:31Z</time></trkpt>
<trkpt lat="48.441909" lon="2.661391"><ele></ele><time>2020-1-11T6:10:34Z</time></trkpt>
<trkpt lat="48.441902" lon="2.66156"><ele></ele><time>2020-1-11T6:10:37Z</time></trkpt>
<trkpt lat="48.441902" lon="2.661709"><ele></ele><time>2020-1-11T6:10:40Z</time></trkpt>
<trkpt lat="48.441873" lon="2.661859"><ele></ele><time>2020-1-11T6:10:43Z</time></trkpt>
<trkpt lat="48.44188" lon="2.662032"><ele></ele><time>2020-1-11T6:10:46Z</time></trkpt>
<trkpt lat="48.441871" lon="2.662207"><ele></ele><time>2020-1-11T6:10:49Z</time></trkpt>
<trkpt lat="48.4419" lon="2.662368"><ele></ele><time>2020-1-11T6:10:52Z</time></trkpt>
<trkpt lat="48.44186" lon="2.662492"><ele></ele><time>2020-1-11T6:10:55Z</time></trkpt>
<trkpt lat="48.44184" lon="2.662664"><ele></ele><time>2020-1-11T6:10:58Z</time></trkpt>
<trkpt lat="48.441772" lon="2.662851"><ele></ele><time>2020-1-11T6:11:1Z</time></trkpt>
<trkpt lat="48.441775" lon="2.663025"><ele></ele><time>2020-1-11T6:11:4Z</time></trkpt>
<trkpt lat="48.44178" lon="2.663209"><ele></ele><time>2020-1-11T6:11:7Z</time></trkpt>
<trkpt lat="48.441773" lon="2.663369"><ele></ele><time>2020-1-11T6:11:10Z</time></trkpt>
<trkpt lat="48.441776" lon="2.663549"><ele></ele><time>2020-1-11T6:11:13Z</time></trkpt>
<trkpt lat="48.441755" lon="2.663706"><ele></ele><time>2020-1-11T6:11:16Z</time></trkpt>
<trkpt lat="48.441721" lon="2.663839"><ele></ele><time>2020-1-11T6:11:19Z</time></trkpt>
<trkpt lat="48.441652" lon="2.663972"><ele></ele><time>2020-1-11T6:11:22Z</time></trkpt>
<trkpt lat="48.441629" lon="2.664112"><ele></ele><time>2020-1-11T6:11:25Z</time></trkpt>
<trkpt lat="48.441649" lon="2.664264"><ele></ele><time>2020-1-11T6:11:28Z</time></trkpt>
<trkpt lat="48.44161" lon="2.664404"><ele></ele><time>2020-1-11T6:11:31Z</time></trkpt>
<trkpt lat="48.441586" lon="2.664572"><ele></ele><time>2020-1-11T6:11:34Z</time></trkpt>
<trkpt lat="48.441596" lon="2.664725"><ele></ele><time>2020-1-11T6:11:37Z</time></trkpt>
<trkpt lat="48.441575" lon="2.664872"><ele></ele><time>2020-1-11T6:11:40Z</time></trkpt>
<trkpt lat="48.441548" lon="2.665031"><ele></ele><time>2020-1-11T6:11:43Z</time></trkpt>
<trkpt lat="48.441545" lon="2.665168"><ele></ele><time>2020-1-11T6:11:46Z</time></trkpt>
<trkpt lat="48.441548" lon="2.665308"><ele></ele><time>2020-1-11T6:11:49Z</time></trkpt>
<trkpt lat="48.441554" lon="2.665472"><ele></ele><time>2020-1-11T6:11:52Z</time></trkpt>
<trkpt lat="48.441569" lon="2.665618"><ele></ele><time>2020-1-11T6:11:55Z</time></trkpt>
<trkpt lat="48.441559" lon="2.665783"><ele></ele><time>2020-1-11T6:11:58Z</time></trkpt>
<trkpt lat="48.441586" lon="2.66594"><ele></ele><time>2020-1-11T6:12:1Z</time></trkpt>
<trkpt lat="48.441579" lon="2.66609"><ele></ele><time>2020-1-11T6:12:4Z</time></trkpt>
<trkpt lat="48.441592" lon="2.666257"><ele></ele><time>2020-1-11T6:12:7Z</time></trkpt>
<trkpt lat="48.441555" lon="2.666395"><ele></ele><time>2020-1-11T6:12:10Z</time></trkpt>
<trkpt lat="48.441532" lon="2.666542"><ele></ele><time>2020-1-11T6:12:13Z</time></trkpt>
<trkpt lat="48.441562" lon="2.666723"><ele></ele><time>2020-1-11T6:12:16Z</time></trkpt>
<trkpt lat="48.441577" lon="2.666892"><ele></ele><time>2020-1-11T6:12:19Z</time></trkpt>
<trkpt lat="48.441604" lon="2.667033"><ele></ele><time>2020-1-11T6:12:22Z</time></trkpt>
<trkpt lat="48.441586" lon="2.667214"><ele></ele><time>2020-1-11T6:12:25Z</time></trkpt>
<trkpt lat="48.441624" lon="2.667356"><ele></ele><time>2020-1-11T6:12:28Z</time></trkpt>
<trkpt lat="48.441634" lon="2.66755"><ele></ele><time>2020-1-11T6:12:31Z</time></trkpt>
<trkpt lat="48.441605" lon="2.66772"><ele></ele><time>2020-1-11T6:12:34Z</time></trkpt>
<trkpt lat="48.441616" lon="2.667886"><ele></ele><time>2020-1-11T6:12:37Z</time></trkpt>
<trkpt lat="48.441636" lon="2.668047"><ele></ele><time>2020-1-11T6:12:40Z</time></trkpt>
<trkpt lat="48.441632" lon="2.668212"><ele></ele><time>2020-1-11T6:12:43Z</time></trkpt>
<trkpt lat="48.44163" lon="2.668357"><ele></ele><time>2020-1-11T6:12:46Z</time></trkpt>
<trkpt lat="48.441585" lon="2.668496"><ele></ele><time>2020-1-11T6:12:49Z</time></trkpt>
<trkpt lat="48.441484" lon="2.668505"><ele></ele><time>2020-1-11T6:12:52Z</time></trkpt>
<trkpt lat="48.441384" lon="2.668412"><ele></ele><time>2020-1-11T6:12:55Z</time></trkpt>
<trkpt lat="48.441306" lon="2.668491"><ele></ele><time>2020-1-11T6:12:58Z</time></trkpt>
<trkpt lat="48.44136" lon="2.668619"><ele></ele><time>2020-1-11T6:13:1Z</time></trkpt>
<trkpt lat="48.441321" lon="2.668764"><ele></ele><time>2020-1-11T6:13:4Z</time></trkpt>
<trkpt lat="48.441174" lon="2.668707"><ele></ele><time>2020-1-11T6:13:7Z</time></trkpt>
<trkpt lat="48.44103" lon="2.668614"><ele></ele><time>2020-1-11T6:13:10Z</time></trkpt>
<trkpt lat="48.440906" lon="2.668503"><ele></ele><time>2020-1-11T6:13:13Z</time></trkpt>
<trkpt lat="48.440782" lon="2.668411"><ele></ele><time>2020-1-11T6:13:16Z</time></trkpt>
<trkpt lat="48.440693" lon="2.668376"><ele></ele><time>2020-1-11T6:13:19Z</time></trkpt>
<trkpt lat="48.44056" lon="2.668298"><ele></ele><time>2020-1-11T6:13:22Z</time></trkpt>
<trkpt lat="48.440426" lon="2.668279"><ele></ele><time>2020-1-11T6:13:25Z</time></trkpt>
<trkpt lat="48.440272" lon="2.668151"><ele></ele><time>2020-1-11T6:13:28Z</time></trkpt>
<trkpt lat="48.440033" lon="2.668024"><ele></ele><time>2020-1-11T6:13:31Z</time></trkpt>
<trkpt lat="48.439941" lon="2.667978"><ele></ele><time>2020-1-11T6:13:34Z</time></trkpt>
<trkpt lat="48.439838" lon="2.667919"><ele></ele><time>2020-1-11T6:13:37Z</time></trkpt>
<trkpt lat="48.439709" lon="2.667871"><ele></ele><time>2020-1-11T6:13:40Z</time></trkpt>
<trkpt lat="48.439554" lon="2.667815"><ele></ele><time>2020-1-11T6:13:43Z</time></trkpt>
<trkpt lat="48.439424" lon="2.667881"><ele></ele><time>2020-1-11T6:13:46Z</time></trkpt>
<trkpt lat="48.439321" lon="2.667926"><ele></ele><time>2020-1-11T6:13:49Z</time></trkpt>
<trkpt lat="48.439145" lon="2.66791"><ele></ele><time>2020-1-11T6:13:52Z</time></trkpt>
<trkpt lat="48.439052" lon="2.6679"><ele></ele><time>2020-1-11T6:13:55Z</time></trkpt>
<trkpt lat="48.438959" lon="2.667867"><ele></ele><time>2020-1-11T6:13:58Z</time></trkpt>
<trkpt lat="48.438859" lon="2.667853"><ele></ele><time>2020-1-11T6:14:1Z</time></trkpt>
<trkpt lat="48.438754" lon="2.667858"><ele></ele><time>2020-1-11T6:14:4Z</time></trkpt>
<trkpt lat="48.438583" lon="2.667807"><ele></ele><time>2020-1-11T6:14:7Z</time></trkpt>
<trkpt lat="48.438439" lon="2.667747"><ele></ele><time>2020-1-11T6:14:10Z</time></trkpt>
<trkpt lat="48.438349" lon="2.667693"><ele></ele><time>2020-1-11T6:14:13Z</time></trkpt>
<trkpt lat="48.438287" lon="2.667592"><ele></ele><time>2020-1-11T6:14:16Z</time></trkpt>
<trkpt lat="48.438189" lon="2.667536"><ele></ele><time>2020-1-11T6:14:19Z</time></trkpt>
<trkpt lat="48.438054" lon="2.667468"><ele></ele><time>2020-1-11T6:14:22Z</time></trkpt>
<trkpt lat="48.437915" lon="2.6674"><ele></ele><time>2020-1-11T6:14:25Z</time></trkpt>
<trkpt lat="48.437784" lon="2.667334"><ele></ele><time>2020-1-11T6:14:28Z</time></trkpt>
<trkpt lat="48.437647" lon="2.66734"><ele></ele><time>2020-1-11T6:14:31Z</time></trkpt>
<trkpt lat="48.437533" lon="2.66728"><ele></ele><time>2020-1-11T6:14:34Z</time></trkpt>
<trkpt lat="48.437395" lon="2.667229"><ele></ele><time>2020-1-11T6:14:37Z</time></trkpt>
<trkpt lat="48.437257" lon="2.667183"><ele></ele><time>2020-1-11T6:14:40Z</time></trkpt>
<trkpt lat="48.43713" lon="2.667101"><ele></ele><time>2020-1-11T6:14:43Z</time></trkpt>
<trkpt lat="48.437038" lon="2.667063"><ele></ele><time>2020-1-11T6:14:46Z</time></trkpt>
<trkpt lat="48.436911" lon="2.667079"><ele></ele><time>2020-1-11T6:14:49Z</time></trkpt>
<trkpt lat="48.436755" lon="2.667125"><ele></ele><time>2020-1-11T6:14:52Z</time></trkpt>
<trkpt lat="48.436566" lon="2.667127"><ele></ele><time>2020-1-11T6:14:55Z</time></trkpt>
<trkpt lat="48.43646" lon="2.667174"><ele></ele><time>2020-1-11T6:14:58Z</time></trkpt>
<trkpt lat="48.436329" lon="2.667103"><ele></ele><time>2020-1-11T6:15:1Z</time></trkpt>
<trkpt lat="48.436201" lon="2.667066"><ele></ele><time>2020-1-11T6:15:4Z</time></trkpt>
<trkpt lat="48.436112" lon="2.667"><ele></ele><time>2020-1-11T6:15:7Z</time></trkpt>
<trkpt lat="48.436034" lon="2.666911"><ele></ele><time>2020-1-11T6:15:10Z</time></trkpt>
<trkpt lat="48.435945" lon="2.666928"><ele></ele><time>2020-1-11T6:15:13Z</time></trkpt>
<trkpt lat="48.435873" lon="2.666828"><ele></ele><time>2020-1-11T6:15:16Z</time></trkpt>
<trkpt lat="48.435776" lon="2.666736"><ele></ele><time>2020-1-11T6:15:19Z</time></trkpt>
<trkpt lat="48.435637" lon="2.666661"><ele></ele><time>2020-1-11T6:15:22Z</time></trkpt>
<trkpt lat="48.435523" lon="2.666619"><ele></ele><time>2020-1-11T6:15:25Z</time></trkpt>
<trkpt lat="48.435455" lon="2.666457"><ele></ele><time>2020-1-11T6:15:28Z</time></trkpt>
<trkpt lat="48.435376" lon="2.666375"><ele></ele><time>2020-1-11T6:15:31Z</time></trkpt>
<trkpt lat="48.435265" lon="2.666339"><ele></ele><time>2020-1-11T6:15:34Z</time></trkpt>
<trkpt lat="48.435137" lon="2.666329"><ele></ele><time>2020-1-11T6:15:37Z</time></trkpt>
<trkpt lat="48.435036" lon="2.666355"><ele></ele><time>2020-1-11T6:15:40Z</time></trkpt>
<trkpt lat="48.434941" lon="2.666359"><ele></ele><time>2020-1-11T6:15:43Z</time></trkpt>
<trkpt lat="48.434833" lon="2.666371"><ele></ele><time>2020-1-11T6:15:46Z</time></trkpt>
<trkpt lat="48.434734" lon="2.666374"><ele></ele><time>2020-1-11T6:15:49Z</time></trkpt>
<trkpt lat="48.434639" lon="2.666345"><ele></ele><time>2020-1-11T6:15:52Z</time></trkpt>
<trkpt lat="48.434541" lon="2.666313"><ele></ele><time>2020-1-11T6:15:55Z</time></trkpt>
<trkpt lat="48.434409" lon="2.666316"><ele></ele><time>2020-1-11T6:15:58Z</time></trkpt>
<trkpt lat="48.434312" lon="2.666279"><ele></ele><time>2020-1-11T6:16:1Z</time></trkpt>
<trkpt lat="48.434223" lon="2.666214"><ele></ele><time>2020-1-11T6:16:4Z</time></trkpt>
<trkpt lat="48.434137" lon="2.666263"><ele></ele><time>2020-1-11T6:16:7Z</time></trkpt>
<trkpt lat="48.434057" lon="2.666191"><ele></ele><time>2020-1-11T6:16:10Z</time></trkpt>
<trkpt lat="48.433959" lon="2.666118"><ele></ele><time>2020-1-11T6:16:13Z</time></trkpt>
<trkpt lat="48.433832" lon="2.666078"><ele></ele><time>2020-1-11T6:16:16Z</time></trkpt>
<trkpt lat="48.43374" lon="2.666049"><ele></ele><time>2020-1-11T6:16:19Z</time></trkpt>
<trkpt lat="48.433608" lon="2.666005"><ele></ele><time>2020-1-11T6:16:22Z</time></trkpt>
<trkpt lat="48.433578" lon="2.665851"><ele></ele><time>2020-1-11T6:16:25Z</time></trkpt>
<trkpt lat="48.433463" lon="2.665822"><ele></ele><time>2020-1-11T6:16:28Z</time></trkpt>
<trkpt lat="48.433451" lon="2.665968"><ele></ele><time>2020-1-11T6:16:31Z</time></trkpt>
<trkpt lat="48.433363" lon="2.666017"><ele></ele><time>2020-1-11T6:16:34Z</time></trkpt>
<trkpt lat="48.433246" lon="2.666015"><ele></ele><time>2020-1-11T6:16:37Z</time></trkpt>
<trkpt lat="48.433119" lon="2.665971"><ele></ele><time>2020-1-11T6:16:40Z</time></trkpt>
<trkpt lat="48.432972" lon="2.665906"><ele></ele><time>2020-1-11T6:16:43Z</time></trkpt>
<trkpt lat="48.432859" lon="2.665795"><ele></ele><time>2020-1-11T6:16:46Z</time></trkpt>
<trkpt lat="48.432709" lon="2.665825"><ele></ele><time>2020-1-11T6:16:49Z</time></trkpt>
<trkpt lat="48.432578" lon="2.665842"><ele></ele><time>2020-1-11T6:16:52Z</time></trkpt>
<trkpt lat="48.432451" lon="2.665837"><ele></ele><time>2020-1-11T6:16:55Z</time></trkpt>
<trkpt lat="48.432349" lon="2.665801"><ele></ele><time>2020-1-11T6:16:58Z</time></trkpt>
<trkpt lat="48.432203" lon="2.665741"><ele></ele><time>2020-1-11T6:17:1Z</time></trkpt>
<trkpt lat="48.432045" lon="2.665671"><ele></ele><time>2020-1-11T6:17:4Z</time></trkpt>
<trkpt lat="48.431883" lon="2.665631"><ele></ele><time>2020-1-11T6:17:7Z</time></trkpt>
<trkpt lat="48.431737" lon="2.665668"><ele></ele><time>2020-1-11T6:17:10Z</time></trkpt>
<trkpt lat="48.431583" lon="2.665655"><ele></ele><time>2020-1-11T6:17:13Z</time></trkpt>
<trkpt lat="48.431435" lon="2.665603"><ele></ele><time>2020-1-11T6:17:16Z</time></trkpt>
<trkpt lat="48.431295" lon="2.665615"><ele></ele><time>2020-1-11T6:17:19Z</time></trkpt>
<trkpt lat="48.431139" lon="2.66563"><ele></ele><time>2020-1-11T6:17:22Z</time></trkpt>
<trkpt lat="48.431019" lon="2.66562"><ele></ele><time>2020-1-11T6:17:25Z</time></trkpt>
<trkpt lat="48.430913" lon="2.665682"><ele></ele><time>2020-1-11T6:17:28Z</time></trkpt>
<trkpt lat="48.430808" lon="2.665669"><ele></ele><time>2020-1-11T6:17:31Z</time></trkpt>
<trkpt lat="48.430724" lon="2.665728"><ele></ele><time>2020-1-11T6:17:34Z</time></trkpt>
<trkpt lat="48.430671" lon="2.665859"><ele></ele><time>2020-1-11T6:17:37Z</time></trkpt>
<trkpt lat="48.430629" lon="2.665982"><ele></ele><time>2020-1-11T6:17:40Z</time></trkpt>
<trkpt lat="48.430537" lon="2.66607"><ele></ele><time>2020-1-11T6:17:43Z</time></trkpt>
<trkpt lat="48.430492" lon="2.666201"><ele></ele><time>2020-1-11T6:17:46Z</time></trkpt>
<trkpt lat="48.430387" lon="2.666346"><ele></ele><time>2020-1-11T6:17:49Z</time></trkpt>
<trkpt lat="48.430298" lon="2.666512"><ele></ele><time>2020-1-11T6:17:52Z</time></trkpt>
<trkpt lat="48.430234" lon="2.666618"><ele></ele><time>2020-1-11T6:17:55Z</time></trkpt>
<trkpt lat="48.430131" lon="2.666695"><ele></ele><time>2020-1-11T6:17:58Z</time></trkpt>
<trkpt lat="48.430068" lon="2.66681"><ele></ele><time>2020-1-11T6:18:1Z</time></trkpt>
<trkpt lat="48.430017" lon="2.666971"><ele></ele><time>2020-1-11T6:18:4Z</time></trkpt>
<trkpt lat="48.430015" lon="2.66714"><ele></ele><time>2020-1-11T6:18:7Z</time></trkpt>
<trkpt lat="48.430023" lon="2.667289"><ele></ele><time>2020-1-11T6:18:10Z</time></trkpt>
<trkpt lat="48.430045" lon="2.667437"><ele></ele><time>2020-1-11T6:18:13Z</time></trkpt>
<trkpt lat="48.430051" lon="2.667607"><ele></ele><time>2020-1-11T6:18:16Z</time></trkpt>
<trkpt lat="48.429996" lon="2.667743"><ele></ele><time>2020-1-11T6:18:19Z</time></trkpt>
<trkpt lat="48.429968" lon="2.667874"><ele></ele><time>2020-1-11T6:18:22Z</time></trkpt>
<trkpt lat="48.429969" lon="2.668027"><ele></ele><time>2020-1-11T6:18:25Z</time></trkpt>
<trkpt lat="48.429894" lon="2.668109"><ele></ele><time>2020-1-11T6:18:28Z</time></trkpt>
<trkpt lat="48.429808" lon="2.668027"><ele></ele><time>2020-1-11T6:18:31Z</time></trkpt>
<trkpt lat="48.429716" lon="2.667967"><ele></ele><time>2020-1-11T6:18:34Z</time></trkpt>
<trkpt lat="48.429631" lon="2.667919"><ele></ele><time>2020-1-11T6:18:37Z</time></trkpt>
<trkpt lat="48.429533" lon="2.667846"><ele></ele><time>2020-1-11T6:18:40Z</time></trkpt>
<trkpt lat="48.429456" lon="2.66775"><ele></ele><time>2020-1-11T6:18:43Z</time></trkpt>
<trkpt lat="48.429346" lon="2.667739"><ele></ele><time>2020-1-11T6:18:46Z</time></trkpt>
<trkpt lat="48.429263" lon="2.667657"><ele></ele><time>2020-1-11T6:18:49Z</time></trkpt>
<trkpt lat="48.429221" lon="2.667508"><ele></ele><time>2020-1-11T6:18:52Z</time></trkpt>
<trkpt lat="48.429112" lon="2.667478"><ele></ele><time>2020-1-11T6:18:55Z</time></trkpt>
<trkpt lat="48.429069" lon="2.667359"><ele></ele><time>2020-1-11T6:18:58Z</time></trkpt>
<trkpt lat="48.429033" lon="2.667218"><ele></ele><time>2020-1-11T6:19:1Z</time></trkpt>
<trkpt lat="48.42896" lon="2.667058"><ele></ele><time>2020-1-11T6:19:4Z</time></trkpt>
<trkpt lat="48.428876" lon="2.666953"><ele></ele><time>2020-1-11T6:19:7Z</time></trkpt>
<trkpt lat="48.428803" lon="2.666868"><ele></ele><time>2020-1-11T6:19:10Z</time></trkpt>
<trkpt lat="48.428722" lon="2.66672"><ele></ele><time>2020-1-11T6:19:13Z</time></trkpt>
<trkpt lat="48.428663" lon="2.66655"><ele></ele><time>2020-1-11T6:19:16Z</time></trkpt>
<trkpt lat="48.428584" lon="2.666479"><ele></ele><time>2020-1-11T6:19:19Z</time></trkpt>
<trkpt lat="48.428471" lon="2.666493"><ele></ele><time>2020-1-11T6:19:22Z</time></trkpt>
<trkpt lat="48.428363" lon="2.666485"><ele></ele><time>2020-1-11T6:19:25Z</time></trkpt>
<trkpt lat="48.428256" lon="2.666518"><ele></ele><time>2020-1-11T6:19:28Z</time></trkpt>
<trkpt lat="48.428138" lon="2.666527"><ele></ele><time>2020-1-11T6:19:31Z</time></trkpt>
<trkpt lat="48.428031" lon="2.666522"><ele></ele><time>2020-1-11T6:19:34Z</time></trkpt>
<trkpt lat="48.427912" lon="2.666575"><ele></ele><time>2020-1-11T6:19:37Z</time></trkpt>
<trkpt lat="48.427777" lon="2.666646"><ele></ele><time>2020-1-11T6:19:40Z</time></trkpt>
<trkpt lat="48.427659" lon="2.666769"><ele></ele><time>2020-1-11T6:19:43Z</time></trkpt>
<trkpt lat="48.427507" lon="2.666889"><ele></ele><time>2020-1-11T6:19:46Z</time></trkpt>
<trkpt lat="48.427338" lon="2.666989"><ele></ele><time>2020-1-11T6:19:49Z</time></trkpt>
<trkpt lat="48.427188" lon="2.667081"><ele></ele><time>2020-1-11T6:19:52Z</time></trkpt>
<trkpt lat="48.427045" lon="2.66719"><ele></ele><time>2020-1-11T6:19:55Z</time></trkpt>
<trkpt lat="48.426958" lon="2.667281"><ele></ele><time>2020-1-11T6:19:58Z</time></trkpt>
<trkpt lat="48.426876" lon="2.667336"><ele></ele><time>2020-1-11T6:20:1Z</time></trkpt>
<trkpt lat="48.426775" lon="2.667366"><ele></ele><time>2020-1-11T6:20:4Z</time></trkpt>
<trkpt lat="48.42662" lon="2.667457"><ele></ele><time>2020-1-11T6:20:7Z</time></trkpt>
<trkpt lat="48.426525" lon="2.66754"><ele></ele><time>2020-1-11T6:20:10Z</time></trkpt>
<trkpt lat="48.426407" lon="2.667649"><ele></ele><time>2020-1-11T6:20:13Z</time></trkpt>
<trkpt lat="48.426282" lon="2.667752"><ele></ele><time>2020-1-11T6:20:16Z</time></trkpt>
<trkpt lat="48.426191" lon="2.667776"><ele></ele><time>2020-1-11T6:20:19Z</time></trkpt>
<trkpt lat="48.426061" lon="2.667845"><ele></ele><time>2020-1-11T6:20:22Z</time></trkpt>
<trkpt lat="48.425975" lon="2.667894"><ele></ele><time>2020-1-11T6:20:25Z</time></trkpt>
<trkpt lat="48.425834" lon="2.668016"><ele></ele><time>2020-1-11T6:20:28Z</time></trkpt>
<trkpt lat="48.425694" lon="2.668093"><ele></ele><time>2020-1-11T6:20:31Z</time></trkpt>
<trkpt lat="48.425549" lon="2.668181"><ele></ele><time>2020-1-11T6:20:34Z</time></trkpt>
<trkpt lat="48.425406" lon="2.668264"><ele></ele><time>2020-1-11T6:20:37Z</time></trkpt>
<trkpt lat="48.425262" lon="2.668362"><ele></ele><time>2020-1-11T6:20:40Z</time></trkpt>
<trkpt lat="48.425133" lon="2.668454"><ele></ele><time>2020-1-11T6:20:43Z</time></trkpt>
<trkpt lat="48.425008" lon="2.668538"><ele></ele><time>2020-1-11T6:20:46Z</time></trkpt>
<trkpt lat="48.424834" lon="2.668623"><ele></ele><time>2020-1-11T6:20:49Z</time></trkpt>
<trkpt lat="48.424712" lon="2.66872"><ele></ele><time>2020-1-11T6:20:52Z</time></trkpt>
<trkpt lat="48.424542" lon="2.668814"><ele></ele><time>2020-1-11T6:20:55Z</time></trkpt>
<trkpt lat="48.424455" lon="2.668859"><ele></ele><time>2020-1-11T6:20:58Z</time></trkpt>
<trkpt lat="48.424291" lon="2.668993"><ele></ele><time>2020-1-11T6:21:1Z</time></trkpt>
<trkpt lat="48.424146" lon="2.669092"><ele></ele><time>2020-1-11T6:21:4Z</time></trkpt>
<trkpt lat="48.424006" lon="2.669153"><ele></ele><time>2020-1-11T6:21:7Z</time></trkpt>
<trkpt lat="48.42387" lon="2.669265"><ele></ele><time>2020-1-11T6:21:10Z</time></trkpt>
<trkpt lat="48.423711" lon="2.669339"><ele></ele><time>2020-1-11T6:21:13Z</time></trkpt>
<trkpt lat="48.423635" lon="2.669439"><ele></ele><time>2020-1-11T6:21:16Z</time></trkpt>
<trkpt lat="48.423475" lon="2.669498"><ele></ele><time>2020-1-11T6:21:19Z</time></trkpt>
<trkpt lat="48.423271" lon="2.669643"><ele></ele><time>2020-1-11T6:21:22Z</time></trkpt>
<trkpt lat="48.423188" lon="2.66972"><ele></ele><time>2020-1-11T6:21:25Z</time></trkpt>
<trkpt lat="48.423039" lon="2.669893"><ele></ele><time>2020-1-11T6:21:28Z</time></trkpt>
<trkpt lat="48.422924" lon="2.669965"><ele></ele><time>2020-1-11T6:21:31Z</time></trkpt>
<trkpt lat="48.422798" lon="2.670084"><ele></ele><time>2020-1-11T6:21:34Z</time></trkpt>
<trkpt lat="48.422701" lon="2.670126"><ele></ele><time>2020-1-11T6:21:37Z</time></trkpt>
<trkpt lat="48.422606" lon="2.670247"><ele></ele><time>2020-1-11T6:21:40Z</time></trkpt>
<trkpt lat="48.422448" lon="2.670405"><ele></ele><time>2020-1-11T6:21:43Z</time></trkpt>
<trkpt lat="48.422265" lon="2.670527"><ele></ele><time>2020-1-11T6:21:46Z</time></trkpt>
<trkpt lat="48.422191" lon="2.67061"><ele></ele><time>2020-1-11T6:21:49Z</time></trkpt>
<trkpt lat="48.422016" lon="2.670787"><ele></ele><time>2020-1-11T6:21:52Z</time></trkpt>
<trkpt lat="48.421866" lon="2.67084"><ele></ele><time>2020-1-11T6:21:55Z</time></trkpt>
<trkpt lat="48.421776" lon="2.67086"><ele></ele><time>2020-1-11T6:21:58Z</time></trkpt>
<trkpt lat="48.42175" lon="2.671029"><ele></ele><time>2020-1-11T6:22:1Z</time></trkpt>
<trkpt lat="48.42162" lon="2.671085"><ele></ele><time>2020-1-11T6:22:4Z</time></trkpt>
<trkpt lat="48.421538" lon="2.671147"><ele></ele><time>2020-1-11T6:22:7Z</time></trkpt>
<trkpt lat="48.421455" lon="2.671207"><ele></ele><time>2020-1-11T6:22:10Z</time></trkpt>
<trkpt lat="48.421357" lon="2.671272"><ele></ele><time>2020-1-11T6:22:13Z</time></trkpt>
<trkpt lat="48.421233" lon="2.671408"><ele></ele><time>2020-1-11T6:22:16Z</time></trkpt>
<trkpt lat="48.421141" lon="2.671499"><ele></ele><time>2020-1-11T6:22:19Z</time></trkpt>
<trkpt lat="48.421011" lon="2.671591"><ele></ele><time>2020-1-11T6:22:22Z</time></trkpt>
<trkpt lat="48.420867" lon="2.671721"><ele></ele><time>2020-1-11T6:22:25Z</time></trkpt>
<trkpt lat="48.420766" lon="2.671804"><ele></ele><time>2020-1-11T6:22:28Z</time></trkpt>
<trkpt lat="48.420675" lon="2.671879"><ele></ele><time>2020-1-11T6:22:31Z</time></trkpt>
<trkpt lat="48.42058" lon="2.671975"><ele></ele><time>2020-1-11T6:22:34Z</time></trkpt>
<trkpt lat="48.420493" lon="2.672044"><ele></ele><time>2020-1-11T6:22:37Z</time></trkpt>
<trkpt lat="48.420396" lon="2.672107"><ele></ele><time>2020-1-11T6:22:40Z</time></trkpt>
<trkpt lat="48.420249" lon="2.672137"><ele></ele><time>2020-1-11T6:22:43Z</time></trkpt>
<trkpt lat="48.420094" lon="2.672281"><ele></ele><time>2020-1-11T6:22:46Z</time></trkpt>
<trkpt lat="48.419963" lon="2.672435"><ele></ele><time>2020-1-11T6:22:49Z</time></trkpt>
<trkpt lat="48.419888" lon="2.672515"><ele></ele><time>2020-1-11T6:22:52Z</time></trkpt>
<trkpt lat="48.419751" lon="2.672646"><ele></ele><time>2020-1-11T6:22:55Z</time></trkpt>
<trkpt lat="48.419629" lon="2.672764"><ele></ele><time>2020-1-11T6:22:58Z</time></trkpt>
<trkpt lat="48.419489" lon="2.672861"><ele></ele><time>2020-1-11T6:23:1Z</time></trkpt>
<trkpt lat="48.419441" lon="2.672985"><ele></ele><time>2020-1-11T6:23:4Z</time></trkpt>
<trkpt lat="48.419414" lon="2.673206"><ele></ele><time>2020-1-11T6:23:7Z</time></trkpt>
<trkpt lat="48.419388" lon="2.673393"><ele></ele><time>2020-1-11T6:23:10Z</time></trkpt>
<trkpt lat="48.419367" lon="2.673536"><ele></ele><time>2020-1-11T6:23:13Z</time></trkpt>
<trkpt lat="48.419273" lon="2.673655"><ele></ele><time>2020-1-11T6:23:16Z</time></trkpt>
<trkpt lat="48.419227" lon="2.67384"><ele></ele><time>2020-1-11T6:23:19Z</time></trkpt>
<trkpt lat="48.419183" lon="2.673983"><ele></ele><time>2020-1-11T6:23:22Z</time></trkpt>
<trkpt lat="48.419139" lon="2.674137"><ele></ele><time>2020-1-11T6:23:25Z</time></trkpt>
<trkpt lat="48.41909" lon="2.674257"><ele></ele><time>2020-1-11T6:23:28Z</time></trkpt>
<trkpt lat="48.419017" lon="2.674413"><ele></ele><time>2020-1-11T6:23:31Z</time></trkpt>
<trkpt lat="48.419001" lon="2.674547"><ele></ele><time>2020-1-11T6:23:34Z</time></trkpt>
<trkpt lat="48.41897" lon="2.674691"><ele></ele><time>2020-1-11T6:23:37Z</time></trkpt>
<trkpt lat="48.418922" lon="2.674834"><ele></ele><time>2020-1-11T6:23:40Z</time></trkpt>
<trkpt lat="48.418894" lon="2.674979"><ele></ele><time>2020-1-11T6:23:43Z</time></trkpt>
<trkpt lat="48.418846" lon="2.675149"><ele></ele><time>2020-1-11T6:23:46Z</time></trkpt>
<trkpt lat="48.41882" lon="2.67532"><ele></ele><time>2020-1-11T6:23:49Z</time></trkpt>
<trkpt lat="48.418796" lon="2.675454"><ele></ele><time>2020-1-11T6:23:52Z</time></trkpt>
<trkpt lat="48.418735" lon="2.675643"><ele></ele><time>2020-1-11T6:23:55Z</time></trkpt>
<trkpt lat="48.418663" lon="2.675868"><ele></ele><time>2020-1-11T6:23:58Z</time></trkpt>
<trkpt lat="48.418634" lon="2.676063"><ele></ele><time>2020-1-11T6:24:1Z</time></trkpt>
<trkpt lat="48.418595" lon="2.676252"><ele></ele><time>2020-1-11T6:24:4Z</time></trkpt>
<trkpt lat="48.418528" lon="2.676412"><ele></ele><time>2020-1-11T6:24:7Z</time></trkpt>
<trkpt lat="48.41851" lon="2.676559"><ele></ele><time>2020-1-11T6:24:10Z</time></trkpt>
<trkpt lat="48.41847" lon="2.676761"><ele></ele><time>2020-1-11T6:24:13Z</time></trkpt>
<trkpt lat="48.418424" lon="2.676918"><ele></ele><time>2020-1-11T6:24:16Z</time></trkpt>
<trkpt lat="48.41836" lon="2.677015"><ele></ele><time>2020-1-11T6:24:19Z</time></trkpt>
<trkpt lat="48.418394" lon="2.676823"><ele></ele><time>2020-1-11T6:24:22Z</time></trkpt>
<trkpt lat="48.418421" lon="2.676654"><ele></ele><time>2020-1-11T6:24:25Z</time></trkpt>
<trkpt lat="48.418482" lon="2.676526"><ele></ele><time>2020-1-11T6:24:28Z</time></trkpt>
<trkpt lat="48.418526" lon="2.676322"><ele></ele><time>2020-1-11T6:24:31Z</time></trkpt>
<trkpt lat="48.418577" lon="2.676125"><ele></ele><time>2020-1-11T6:24:34Z</time></trkpt>
<trkpt lat="48.418592" lon="2.67597"><ele></ele><time>2020-1-11T6:24:37Z</time></trkpt>
<trkpt lat="48.418645" lon="2.67578"><ele></ele><time>2020-1-11T6:24:40Z</time></trkpt>
<trkpt lat="48.418719" lon="2.675582"><ele></ele><time>2020-1-11T6:24:43Z</time></trkpt>
<trkpt lat="48.418736" lon="2.675394"><ele></ele><time>2020-1-11T6:24:46Z</time></trkpt>
<trkpt lat="48.418783" lon="2.675229"><ele></ele><time>2020-1-11T6:24:49Z</time></trkpt>
<trkpt lat="48.418837" lon="2.675056"><ele></ele><time>2020-1-11T6:24:52Z</time></trkpt>
<trkpt lat="48.418926" lon="2.674876"><ele></ele><time>2020-1-11T6:24:55Z</time></trkpt>
<trkpt lat="48.418991" lon="2.674696"><ele></ele><time>2020-1-11T6:24:58Z</time></trkpt>
<trkpt lat="48.419051" lon="2.674563"><ele></ele><time>2020-1-11T6:25:1Z</time></trkpt>
<trkpt lat="48.418905" lon="2.674494"><ele></ele><time>2020-1-11T6:25:4Z</time></trkpt>
<trkpt lat="48.418823" lon="2.674388"><ele></ele><time>2020-1-11T6:25:7Z</time></trkpt>
<trkpt lat="48.418742" lon="2.674302"><ele></ele><time>2020-1-11T6:25:10Z</time></trkpt>
<trkpt lat="48.418654" lon="2.674208"><ele></ele><time>2020-1-11T6:25:13Z</time></trkpt>
<trkpt lat="48.418566" lon="2.674088"><ele></ele><time>2020-1-11T6:25:16Z</time></trkpt>
<trkpt lat="48.418496" lon="2.673994"><ele></ele><time>2020-1-11T6:25:19Z</time></trkpt>
<trkpt lat="48.418429" lon="2.673888"><ele></ele><time>2020-1-11T6:25:22Z</time></trkpt>
<trkpt lat="48.418365" lon="2.673789"><ele></ele><time>2020-1-11T6:25:25Z</time></trkpt>
<trkpt lat="48.41828" lon="2.673726"><ele></ele><time>2020-1-11T6:25:28Z</time></trkpt>
<trkpt lat="48.418197" lon="2.673787"><ele></ele><time>2020-1-11T6:25:31Z</time></trkpt>
<trkpt lat="48.418115" lon="2.673861"><ele></ele><time>2020-1-11T6:25:34Z</time></trkpt>
<trkpt lat="48.418079" lon="2.674004"><ele></ele><time>2020-1-11T6:25:37Z</time></trkpt>
<trkpt lat="48.418042" lon="2.67414"><ele></ele><time>2020-1-11T6:25:40Z</time></trkpt>
<trkpt lat="48.417978" lon="2.674236"><ele></ele><time>2020-1-11T6:25:43Z</time></trkpt>
<trkpt lat="48.417937" lon="2.674388"><ele></ele><time>2020-1-11T6:25:46Z</time></trkpt>
<trkpt lat="48.417851" lon="2.67445"><ele></ele><time>2020-1-11T6:25:49Z</time></trkpt>
<trkpt lat="48.417821" lon="2.67458"><ele></ele><time>2020-1-11T6:25:52Z</time></trkpt>
<trkpt lat="48.417811" lon="2.674725"><ele></ele><time>2020-1-11T6:25:55Z</time></trkpt>
<trkpt lat="48.417764" lon="2.674855"><ele></ele><time>2020-1-11T6:25:58Z</time></trkpt>
<trkpt lat="48.417777" lon="2.674991"><ele></ele><time>2020-1-11T6:26:1Z</time></trkpt>
<trkpt lat="48.417786" lon="2.674855"><ele></ele><time>2020-1-11T6:26:4Z</time></trkpt>
<trkpt lat="48.417822" lon="2.674714"><ele></ele><time>2020-1-11T6:26:7Z</time></trkpt>
<trkpt lat="48.41788" lon="2.674559"><ele></ele><time>2020-1-11T6:26:10Z</time></trkpt>
<trkpt lat="48.417922" lon="2.674402"><ele></ele><time>2020-1-11T6:26:13Z</time></trkpt>
<trkpt lat="48.417975" lon="2.6742"><ele></ele><time>2020-1-11T6:26:16Z</time></trkpt>
<trkpt lat="48.418025" lon="2.674036"><ele></ele><time>2020-1-11T6:26:19Z</time></trkpt>
<trkpt lat="48.418076" lon="2.673861"><ele></ele><time>2020-1-11T6:26:22Z</time></trkpt>
<trkpt lat="48.41813" lon="2.673702"><ele></ele><time>2020-1-11T6:26:25Z</time></trkpt>
<trkpt lat="48.418153" lon="2.673554"><ele></ele><time>2020-1-11T6:26:28Z</time></trkpt>
<trkpt lat="48.418156" lon="2.673414"><ele></ele><time>2020-1-11T6:26:31Z</time></trkpt>
<trkpt lat="48.418094" lon="2.673271"><ele></ele><time>2020-1-11T6:26:34Z</time></trkpt>
<trkpt lat="48.418074" lon="2.673112"><ele></ele><time>2020-1-11T6:26:37Z</time></trkpt>
<trkpt lat="48.418077" lon="2.672926"><ele></ele><time>2020-1-11T6:26:40Z</time></trkpt>
<trkpt lat="48.418056" lon="2.672752"><ele></ele><time>2020-1-11T6:26:43Z</time></trkpt>
<trkpt lat="48.418047" lon="2.672597"><ele></ele><time>2020-1-11T6:26:46Z</time></trkpt>
<trkpt lat="48.418027" lon="2.672441"><ele></ele><time>2020-1-11T6:26:49Z</time></trkpt>
<trkpt lat="48.418009" lon="2.672269"><ele></ele><time>2020-1-11T6:26:52Z</time></trkpt>
<trkpt lat="48.417984" lon="2.672093"><ele></ele><time>2020-1-11T6:26:55Z</time></trkpt>
<trkpt lat="48.41797" lon="2.67195"><ele></ele><time>2020-1-11T6:26:58Z</time></trkpt>
<trkpt lat="48.417958" lon="2.671806"><ele></ele><time>2020-1-11T6:27:1Z</time></trkpt>
<trkpt lat="48.417945" lon="2.671663"><ele></ele><time>2020-1-11T6:27:4Z</time></trkpt>
<trkpt lat="48.417938" lon="2.671523"><ele></ele><time>2020-1-11T6:27:7Z</time></trkpt>
<trkpt lat="48.417945" lon="2.671379"><ele></ele><time>2020-1-11T6:27:10Z</time></trkpt>
<trkpt lat="48.417936" lon="2.67123"><ele></ele><time>2020-1-11T6:27:13Z</time></trkpt>
<trkpt lat="48.417915" lon="2.671094"><ele></ele><time>2020-1-11T6:27:16Z</time></trkpt>
<trkpt lat="48.417894" lon="2.670953"><ele></ele><time>2020-1-11T6:27:19Z</time></trkpt>
<trkpt lat="48.417878" lon="2.670801"><ele></ele><time>2020-1-11T6:27:22Z</time></trkpt>
<trkpt lat="48.417887" lon="2.670636"><ele></ele><time>2020-1-11T6:27:25Z</time></trkpt>
<trkpt lat="48.417852" lon="2.670455"><ele></ele><time>2020-1-11T6:27:28Z</time></trkpt>
<trkpt lat="48.41782" lon="2.670289"><ele></ele><time>2020-1-11T6:27:31Z</time></trkpt>
<trkpt lat="48.417773" lon="2.670115"><ele></ele><time>2020-1-11T6:27:34Z</time></trkpt>
<trkpt lat="48.417736" lon="2.66994"><ele></ele><time>2020-1-11T6:27:37Z</time></trkpt>
<trkpt lat="48.41773" lon="2.669739"><ele></ele><time>2020-1-11T6:27:40Z</time></trkpt>
<trkpt lat="48.417701" lon="2.669547"><ele></ele><time>2020-1-11T6:27:43Z</time></trkpt>
<trkpt lat="48.417657" lon="2.669312"><ele></ele><time>2020-1-11T6:27:46Z</time></trkpt>
<trkpt lat="48.41764" lon="2.669087"><ele></ele><time>2020-1-11T6:27:49Z</time></trkpt>
<trkpt lat="48.417615" lon="2.668828"><ele></ele><time>2020-1-11T6:27:52Z</time></trkpt>
<trkpt lat="48.417581" lon="2.668699"><ele></ele><time>2020-1-11T6:27:55Z</time></trkpt>
<trkpt lat="48.417554" lon="2.668547"><ele></ele><time>2020-1-11T6:27:58Z</time></trkpt>
<trkpt lat="48.417546" lon="2.668296"><ele></ele><time>2020-1-11T6:28:1Z</time></trkpt>
<trkpt lat="48.417503" lon="2.668103"><ele></ele><time>2020-1-11T6:28:4Z</time></trkpt>
<trkpt lat="48.417458" lon="2.667925"><ele></ele><time>2020-1-11T6:28:7Z</time></trkpt>
<trkpt lat="48.417438" lon="2.667781"><ele></ele><time>2020-1-11T6:28:10Z</time></trkpt>
<trkpt lat="48.417407" lon="2.667638"><ele></ele><time>2020-1-11T6:28:13Z</time></trkpt>
<trkpt lat="48.417381" lon="2.667497"><ele></ele><time>2020-1-11T6:28:16Z</time></trkpt>
<trkpt lat="48.417342" lon="2.667361"><ele></ele><time>2020-1-11T6:28:19Z</time></trkpt>
<trkpt lat="48.417312" lon="2.667226"><ele></ele><time>2020-1-11T6:28:22Z</time></trkpt>
<trkpt lat="48.417292" lon="2.667093"><ele></ele><time>2020-1-11T6:28:25Z</time></trkpt>
<trkpt lat="48.417237" lon="2.666978"><ele></ele><time>2020-1-11T6:28:28Z</time></trkpt>
<trkpt lat="48.417199" lon="2.666829"><ele></ele><time>2020-1-11T6:28:31Z</time></trkpt>
<trkpt lat="48.417177" lon="2.666677"><ele></ele><time>2020-1-11T6:28:34Z</time></trkpt>
<trkpt lat="48.417154" lon="2.666541"><ele></ele><time>2020-1-11T6:28:37Z</time></trkpt>
<trkpt lat="48.417103" lon="2.666424"><ele></ele><time>2020-1-11T6:28:40Z</time></trkpt>
<trkpt lat="48.417067" lon="2.666285"><ele></ele><time>2020-1-11T6:28:43Z</time></trkpt>
<trkpt lat="48.417049" lon="2.666128"><ele></ele><time>2020-1-11T6:28:46Z</time></trkpt>
<trkpt lat="48.417005" lon="2.665974"><ele></ele><time>2020-1-11T6:28:49Z</time></trkpt>
<trkpt lat="48.416949" lon="2.665852"><ele></ele><time>2020-1-11T6:28:52Z</time></trkpt>
<trkpt lat="48.416916" lon="2.665714"><ele></ele><time>2020-1-11T6:28:55Z</time></trkpt>
<trkpt lat="48.41688" lon="2.665572"><ele></ele><time>2020-1-11T6:28:58Z</time></trkpt>
<trkpt lat="48.416836" lon="2.665448"><ele></ele><time>2020-1-11T6:29:1Z</time></trkpt>
<trkpt lat="48.416785" lon="2.665316"><ele></ele><time>2020-1-11T6:29:4Z</time></trkpt>
<trkpt lat="48.416752" lon="2.665162"><ele></ele><time>2020-1-11T6:29:7Z</time></trkpt>
<trkpt lat="48.416705" lon="2.664984"><ele></ele><time>2020-1-11T6:29:10Z</time></trkpt>
<trkpt lat="48.416657" lon="2.664827"><ele></ele><time>2020-1-11T6:29:13Z</time></trkpt>
<trkpt lat="48.416597" lon="2.664687"><ele></ele><time>2020-1-11T6:29:16Z</time></trkpt>
<trkpt lat="48.416549" lon="2.664561"><ele></ele><time>2020-1-11T6:29:19Z</time></trkpt>
<trkpt lat="48.416478" lon="2.664421"><ele></ele><time>2020-1-11T6:29:22Z</time></trkpt>
<trkpt lat="48.416415" lon="2.664295"><ele></ele><time>2020-1-11T6:29:25Z</time></trkpt>
<trkpt lat="48.41634" lon="2.664214"><ele></ele><time>2020-1-11T6:29:28Z</time></trkpt>
<trkpt lat="48.416267" lon="2.664091"><ele></ele><time>2020-1-11T6:29:31Z</time></trkpt>
<trkpt lat="48.416205" lon="2.663961"><ele></ele><time>2020-1-11T6:29:34Z</time></trkpt>
<trkpt lat="48.416158" lon="2.663837"><ele></ele><time>2020-1-11T6:29:37Z</time></trkpt>
<trkpt lat="48.416096" lon="2.663738"><ele></ele><time>2020-1-11T6:29:40Z</time></trkpt>
<trkpt lat="48.41604" lon="2.663624"><ele></ele><time>2020-1-11T6:29:43Z</time></trkpt>
<trkpt lat="48.415972" lon="2.663498"><ele></ele><time>2020-1-11T6:29:46Z</time></trkpt>
<trkpt lat="48.415906" lon="2.663378"><ele></ele><time>2020-1-11T6:29:49Z</time></trkpt>
<trkpt lat="48.415824" lon="2.663269"><ele></ele><time>2020-1-11T6:29:52Z</time></trkpt>
<trkpt lat="48.415756" lon="2.663156"><ele></ele><time>2020-1-11T6:29:55Z</time></trkpt>
<trkpt lat="48.415677" lon="2.663039"><ele></ele><time>2020-1-11T6:29:58Z</time></trkpt>
<trkpt lat="48.4156" lon="2.662927"><ele></ele><time>2020-1-11T6:30:1Z</time></trkpt>
<trkpt lat="48.41552" lon="2.662807"><ele></ele><time>2020-1-11T6:30:4Z</time></trkpt>
<trkpt lat="48.415436" lon="2.662708"><ele></ele><time>2020-1-11T6:30:7Z</time></trkpt>
<trkpt lat="48.415356" lon="2.662581"><ele></ele><time>2020-1-11T6:30:10Z</time></trkpt>
<trkpt lat="48.415284" lon="2.662474"><ele></ele><time>2020-1-11T6:30:13Z</time></trkpt>
<trkpt lat="48.415199" lon="2.66234"><ele></ele><time>2020-1-11T6:30:16Z</time></trkpt>
<trkpt lat="48.415143" lon="2.662219"><ele></ele><time>2020-1-11T6:30:19Z</time></trkpt>
<trkpt lat="48.415084" lon="2.66207"><ele></ele><time>2020-1-11T6:30:22Z</time></trkpt>
<trkpt lat="48.415003" lon="2.661935"><ele></ele><time>2020-1-11T6:30:25Z</time></trkpt>
<trkpt lat="48.414919" lon="2.661854"><ele></ele><time>2020-1-11T6:30:28Z</time></trkpt>
<trkpt lat="48.414847" lon="2.661753"><ele></ele><time>2020-1-11T6:30:31Z</time></trkpt>
<trkpt lat="48.414786" lon="2.661615"><ele></ele><time>2020-1-11T6:30:34Z</time></trkpt>
<trkpt lat="48.414705" lon="2.661488"><ele></ele><time>2020-1-11T6:30:37Z</time></trkpt>
<trkpt lat="48.414625" lon="2.66136"><ele></ele><time>2020-1-11T6:30:40Z</time></trkpt>
<trkpt lat="48.414539" lon="2.661236"><ele></ele><time>2020-1-11T6:30:43Z</time></trkpt>
<trkpt lat="48.414464" lon="2.661108"><ele></ele><time>2020-1-11T6:30:46Z</time></trkpt>
<trkpt lat="48.414376" lon="2.660996"><ele></ele><time>2020-1-11T6:30:49Z</time></trkpt>
<trkpt lat="48.414293" lon="2.660887"><ele></ele><time>2020-1-11T6:30:52Z</time></trkpt>
<trkpt lat="48.414234" lon="2.66078"><ele></ele><time>2020-1-11T6:30:55Z</time></trkpt>
<trkpt lat="48.414198" lon="2.660647"><ele></ele><time>2020-1-11T6:30:58Z</time></trkpt>
<trkpt lat="48.414136" lon="2.66053"><ele></ele><time>2020-1-11T6:31:1Z</time></trkpt>
<trkpt lat="48.41406" lon="2.660426"><ele></ele><time>2020-1-11T6:31:4Z</time></trkpt>
<trkpt lat="48.41401" lon="2.660312"><ele></ele><time>2020-1-11T6:31:7Z</time></trkpt>
<trkpt lat="48.413948" lon="2.660204"><ele></ele><time>2020-1-11T6:31:10Z</time></trkpt>
<trkpt lat="48.41388" lon="2.660075"><ele></ele><time>2020-1-11T6:31:13Z</time></trkpt>
<trkpt lat="48.413819" lon="2.659946"><ele></ele><time>2020-1-11T6:31:16Z</time></trkpt>
<trkpt lat="48.413737" lon="2.659828"><ele></ele><time>2020-1-11T6:31:19Z</time></trkpt>
<trkpt lat="48.413653" lon="2.659707"><ele></ele><time>2020-1-11T6:31:22Z</time></trkpt>
<trkpt lat="48.41359" lon="2.65959"><ele></ele><time>2020-1-11T6:31:25Z</time></trkpt>
<trkpt lat="48.413537" lon="2.659475"><ele></ele><time>2020-1-11T6:31:28Z</time></trkpt>
<trkpt lat="48.413485" lon="2.659351"><ele></ele><time>2020-1-11T6:31:31Z</time></trkpt>
<trkpt lat="48.413473" lon="2.659214"><ele></ele><time>2020-1-11T6:31:34Z</time></trkpt>
<trkpt lat="48.413418" lon="2.659105"><ele></ele><time>2020-1-11T6:31:37Z</time></trkpt>
<trkpt lat="48.413363" lon="2.658987"><ele></ele><time>2020-1-11T6:31:40Z</time></trkpt>
<trkpt lat="48.413297" lon="2.658861"><ele></ele><time>2020-1-11T6:31:43Z</time></trkpt>
<trkpt lat="48.413217" lon="2.658724"><ele></ele><time>2020-1-11T6:31:46Z</time></trkpt>
<trkpt lat="48.413188" lon="2.658555"><ele></ele><time>2020-1-11T6:31:49Z</time></trkpt>
<trkpt lat="48.413235" lon="2.658398"><ele></ele><time>2020-1-11T6:31:52Z</time></trkpt>
<trkpt lat="48.413249" lon="2.658248"><ele></ele><time>2020-1-11T6:31:55Z</time></trkpt>
<trkpt lat="48.41329" lon="2.658079"><ele></ele><time>2020-1-11T6:31:58Z</time></trkpt>
<trkpt lat="48.413356" lon="2.65795"><ele></ele><time>2020-1-11T6:32:1Z</time></trkpt>
<trkpt lat="48.413416" lon="2.657813"><ele></ele><time>2020-1-11T6:32:4Z</time></trkpt>
<trkpt lat="48.413458" lon="2.657656"><ele></ele><time>2020-1-11T6:32:7Z</time></trkpt>
<trkpt lat="48.413543" lon="2.657556"><ele></ele><time>2020-1-11T6:32:10Z</time></trkpt>
<trkpt lat="48.413615" lon="2.657453"><ele></ele><time>2020-1-11T6:32:13Z</time></trkpt>
<trkpt lat="48.413682" lon="2.657335"><ele></ele><time>2020-1-11T6:32:16Z</time></trkpt>
<trkpt lat="48.413772" lon="2.657267"><ele></ele><time>2020-1-11T6:32:19Z</time></trkpt>
<trkpt lat="48.413866" lon="2.657162"><ele></ele><time>2020-1-11T6:32:22Z</time></trkpt>
<trkpt lat="48.413975" lon="2.657116"><ele></ele><time>2020-1-11T6:32:25Z</time></trkpt>
<trkpt lat="48.41409" lon="2.657077"><ele></ele><time>2020-1-11T6:32:28Z</time></trkpt>
<trkpt lat="48.414215" lon="2.657041"><ele></ele><time>2020-1-11T6:32:31Z</time></trkpt>
<trkpt lat="48.414308" lon="2.657051"><ele></ele><time>2020-1-11T6:32:34Z</time></trkpt>
<trkpt lat="48.41441" lon="2.657037"><ele></ele><time>2020-1-11T6:32:37Z</time></trkpt>
<trkpt lat="48.414508" lon="2.657021"><ele></ele><time>2020-1-11T6:32:40Z</time></trkpt>
<trkpt lat="48.414598" lon="2.656945"><ele></ele><time>2020-1-11T6:32:43Z</time></trkpt>
<trkpt lat="48.414697" lon="2.656844"><ele></ele><time>2020-1-11T6:32:46Z</time></trkpt>
<trkpt lat="48.414797" lon="2.656812"><ele></ele><time>2020-1-11T6:32:49Z</time></trkpt>
<trkpt lat="48.414895" lon="2.656796"><ele></ele><time>2020-1-11T6:32:52Z</time></trkpt>
<trkpt lat="48.414987" lon="2.656833"><ele></ele><time>2020-1-11T6:32:55Z</time></trkpt>
<trkpt lat="48.415084" lon="2.656787"><ele></ele><time>2020-1-11T6:32:58Z</time></trkpt>
<trkpt lat="48.415173" lon="2.656819"><ele></ele><time>2020-1-11T6:33:1Z</time></trkpt>
<trkpt lat="48.415265" lon="2.656874"><ele></ele><time>2020-1-11T6:33:4Z</time></trkpt>
<trkpt lat="48.415372" lon="2.656893"><ele></ele><time>2020-1-11T6:33:7Z</time></trkpt>
<trkpt lat="48.415437" lon="2.656737"><ele></ele><time>2020-1-11T6:33:10Z</time></trkpt>
<trkpt lat="48.415533" lon="2.656652"><ele></ele><time>2020-1-11T6:33:13Z</time></trkpt>
<trkpt lat="48.415666" lon="2.656606"><ele></ele><time>2020-1-11T6:33:16Z</time></trkpt>
<trkpt lat="48.415807" lon="2.656561"><ele></ele><time>2020-1-11T6:33:19Z</time></trkpt>
<trkpt lat="48.415944" lon="2.656536"><ele></ele><time>2020-1-11T6:33:22Z</time></trkpt>
<trkpt lat="48.416043" lon="2.65643"><ele></ele><time>2020-1-11T6:33:25Z</time></trkpt>
<trkpt lat="48.41615" lon="2.65641"><ele></ele><time>2020-1-11T6:33:28Z</time></trkpt>
<trkpt lat="48.416264" lon="2.656437"><ele></ele><time>2020-1-11T6:33:31Z</time></trkpt>
<trkpt lat="48.416342" lon="2.656526"><ele></ele><time>2020-1-11T6:33:34Z</time></trkpt>
<trkpt lat="48.416452" lon="2.656577"><ele></ele><time>2020-1-11T6:33:37Z</time></trkpt>
<trkpt lat="48.416539" lon="2.656621"><ele></ele><time>2020-1-11T6:33:40Z</time></trkpt>
<trkpt lat="48.416636" lon="2.656641"><ele></ele><time>2020-1-11T6:33:43Z</time></trkpt>
<trkpt lat="48.416725" lon="2.656721"><ele></ele><time>2020-1-11T6:33:46Z</time></trkpt>
<trkpt lat="48.416856" lon="2.656693"><ele></ele><time>2020-1-11T6:33:49Z</time></trkpt>
<trkpt lat="48.416985" lon="2.656607"><ele></ele><time>2020-1-11T6:33:52Z</time></trkpt>
<trkpt lat="48.417114" lon="2.656694"><ele></ele><time>2020-1-11T6:33:55Z</time></trkpt>
<trkpt lat="48.417246" lon="2.656714"><ele></ele><time>2020-1-11T6:33:58Z</time></trkpt>
<trkpt lat="48.417323" lon="2.656811"><ele></ele><time>2020-1-11T6:34:1Z</time></trkpt>
<trkpt lat="48.417388" lon="2.656906"><ele></ele><time>2020-1-11T6:34:4Z</time></trkpt>
<trkpt lat="48.41747" lon="2.656995"><ele></ele><time>2020-1-11T6:34:7Z</time></trkpt>
<trkpt lat="48.41754" lon="2.657096"><ele></ele><time>2020-1-11T6:34:10Z</time></trkpt>
<trkpt lat="48.417594" lon="2.657227"><ele></ele><time>2020-1-11T6:34:13Z</time></trkpt>
<trkpt lat="48.417673" lon="2.657299"><ele></ele><time>2020-1-11T6:34:16Z</time></trkpt>
<trkpt lat="48.417738" lon="2.657413"><ele></ele><time>2020-1-11T6:34:19Z</time></trkpt>
<trkpt lat="48.417827" lon="2.657443"><ele></ele><time>2020-1-11T6:34:22Z</time></trkpt>
<trkpt lat="48.417912" lon="2.657346"><ele></ele><time>2020-1-11T6:34:25Z</time></trkpt>
<trkpt lat="48.417993" lon="2.657281"><ele></ele><time>2020-1-11T6:34:28Z</time></trkpt>
<trkpt lat="48.418091" lon="2.657172"><ele></ele><time>2020-1-11T6:34:31Z</time></trkpt>
<trkpt lat="48.418155" lon="2.657064"><ele></ele><time>2020-1-11T6:34:34Z</time></trkpt>
<trkpt lat="48.418224" lon="2.656975"><ele></ele><time>2020-1-11T6:34:37Z</time></trkpt>
<trkpt lat="48.418305" lon="2.656895"><ele></ele><time>2020-1-11T6:34:40Z</time></trkpt>
<trkpt lat="48.418213" lon="2.656939"><ele></ele><time>2020-1-11T6:34:43Z</time></trkpt>
<trkpt lat="48.418134" lon="2.657049"><ele></ele><time>2020-1-11T6:34:46Z</time></trkpt>
<trkpt lat="48.418069" lon="2.657151"><ele></ele><time>2020-1-11T6:34:49Z</time></trkpt>
<trkpt lat="48.417999" lon="2.657306"><ele></ele><time>2020-1-11T6:34:52Z</time></trkpt>
<trkpt lat="48.417918" lon="2.657422"><ele></ele><time>2020-1-11T6:34:55Z</time></trkpt>
<trkpt lat="48.417821" lon="2.657499"><ele></ele><time>2020-1-11T6:34:58Z</time></trkpt>
<trkpt lat="48.417725" lon="2.657426"><ele></ele><time>2020-1-11T6:35:1Z</time></trkpt>
<trkpt lat="48.417659" lon="2.65732"><ele></ele><time>2020-1-11T6:35:4Z</time></trkpt>
<trkpt lat="48.417585" lon="2.657225"><ele></ele><time>2020-1-11T6:35:7Z</time></trkpt>
<trkpt lat="48.41749" lon="2.657124"><ele></ele><time>2020-1-11T6:35:10Z</time></trkpt>
<trkpt lat="48.417438" lon="2.656988"><ele></ele><time>2020-1-11T6:35:13Z</time></trkpt>
<trkpt lat="48.417359" lon="2.656854"><ele></ele><time>2020-1-11T6:35:16Z</time></trkpt>
<trkpt lat="48.417278" lon="2.656716"><ele></ele><time>2020-1-11T6:35:19Z</time></trkpt>
<trkpt lat="48.417199" lon="2.656593"><ele></ele><time>2020-1-11T6:35:22Z</time></trkpt>
<trkpt lat="48.41711" lon="2.656458"><ele></ele><time>2020-1-11T6:35:25Z</time></trkpt>
<trkpt lat="48.417036" lon="2.6563"><ele></ele><time>2020-1-11T6:35:28Z</time></trkpt>
<trkpt lat="48.416963" lon="2.656141"><ele></ele><time>2020-1-11T6:35:31Z</time></trkpt>
<trkpt lat="48.416916" lon="2.65602"><ele></ele><time>2020-1-11T6:35:34Z</time></trkpt>
<trkpt lat="48.416848" lon="2.655895"><ele></ele><time>2020-1-11T6:35:37Z</time></trkpt>
<trkpt lat="48.416782" lon="2.655747"><ele></ele><time>2020-1-11T6:35:40Z</time></trkpt>
<trkpt lat="48.416699" lon="2.655583"><ele></ele><time>2020-1-11T6:35:43Z</time></trkpt>
<trkpt lat="48.416629" lon="2.655406"><ele></ele><time>2020-1-11T6:35:46Z</time></trkpt>
<trkpt lat="48.41657" lon="2.655225"><ele></ele><time>2020-1-11T6:35:49Z</time></trkpt>
<trkpt lat="48.416518" lon="2.655045"><ele></ele><time>2020-1-11T6:35:52Z</time></trkpt>
<trkpt lat="48.416491" lon="2.654857"><ele></ele><time>2020-1-11T6:35:55Z</time></trkpt>
<trkpt lat="48.416479" lon="2.65469"><ele></ele><time>2020-1-11T6:35:58Z</time></trkpt>
<trkpt lat="48.41646" lon="2.654529"><ele></ele><time>2020-1-11T6:36:1Z</time></trkpt>
<trkpt lat="48.416422" lon="2.654358"><ele></ele><time>2020-1-11T6:36:4Z</time></trkpt>
<trkpt lat="48.416412" lon="2.654187"><ele></ele><time>2020-1-11T6:36:7Z</time></trkpt>
<trkpt lat="48.416394" lon="2.654012"><ele></ele><time>2020-1-11T6:36:10Z</time></trkpt>
<trkpt lat="48.416368" lon="2.653842"><ele></ele><time>2020-1-11T6:36:13Z</time></trkpt>
<trkpt lat="48.416356" lon="2.653664"><ele></ele><time>2020-1-11T6:36:16Z</time></trkpt>
<trkpt lat="48.416371" lon="2.653508"><ele></ele><time>2020-1-11T6:36:19Z</time></trkpt>
<trkpt lat="48.416375" lon="2.653328"><ele></ele><time>2020-1-11T6:36:22Z</time></trkpt>
<trkpt lat="48.416356" lon="2.653136"><ele></ele><time>2020-1-11T6:36:25Z</time></trkpt>
<trkpt lat="48.416349" lon="2.652996"><ele></ele><time>2020-1-11T6:36:28Z</time></trkpt>
<trkpt lat="48.416351" lon="2.65286"><ele></ele><time>2020-1-11T6:36:31Z</time></trkpt>
<trkpt lat="48.416356" lon="2.652709"><ele></ele><time>2020-1-11T6:36:34Z</time></trkpt>
<trkpt lat="48.416367" lon="2.652515"><ele></ele><time>2020-1-11T6:36:37Z</time></trkpt>
<trkpt lat="48.416377" lon="2.652324"><ele></ele><time>2020-1-11T6:36:40Z</time></trkpt>
<trkpt lat="48.416383" lon="2.652134"><ele></ele><time>2020-1-11T6:36:43Z</time></trkpt>
<trkpt lat="48.4164" lon="2.651938"><ele></ele><time>2020-1-11T6:36:46Z</time></trkpt>
<trkpt lat="48.416436" lon="2.651814"><ele></ele><time>2020-1-11T6:36:49Z</time></trkpt>
<trkpt lat="48.416481" lon="2.65167"><ele></ele><time>2020-1-11T6:36:52Z</time></trkpt>
<trkpt lat="48.416504" lon="2.651529"><ele></ele><time>2020-1-11T6:36:55Z</time></trkpt>
<trkpt lat="48.416571" lon="2.651385"><ele></ele><time>2020-1-11T6:36:58Z</time></trkpt>
<trkpt lat="48.416604" lon="2.651237"><ele></ele><time>2020-1-11T6:37:1Z</time></trkpt>
<trkpt lat="48.416648" lon="2.651112"><ele></ele><time>2020-1-11T6:37:4Z</time></trkpt>
<trkpt lat="48.416664" lon="2.650972"><ele></ele><time>2020-1-11T6:37:7Z</time></trkpt>
<trkpt lat="48.416693" lon="2.650795"><ele></ele><time>2020-1-11T6:37:10Z</time></trkpt>
<trkpt lat="48.416758" lon="2.650633"><ele></ele><time>2020-1-11T6:37:13Z</time></trkpt>
<trkpt lat="48.416829" lon="2.650527"><ele></ele><time>2020-1-11T6:37:16Z</time></trkpt>
<trkpt lat="48.416902" lon="2.650426"><ele></ele><time>2020-1-11T6:37:19Z</time></trkpt>
<trkpt lat="48.416974" lon="2.650334"><ele></ele><time>2020-1-11T6:37:22Z</time></trkpt>
<trkpt lat="48.41706" lon="2.65021"><ele></ele><time>2020-1-11T6:37:25Z</time></trkpt>
<trkpt lat="48.417142" lon="2.650082"><ele></ele><time>2020-1-11T6:37:28Z</time></trkpt>
<trkpt lat="48.417209" lon="2.64998"><ele></ele><time>2020-1-11T6:37:31Z</time></trkpt>
<trkpt lat="48.417285" lon="2.649891"><ele></ele><time>2020-1-11T6:37:34Z</time></trkpt>
<trkpt lat="48.417311" lon="2.649712"><ele></ele><time>2020-1-11T6:37:37Z</time></trkpt>
<trkpt lat="48.417338" lon="2.649531"><ele></ele><time>2020-1-11T6:37:40Z</time></trkpt>
<trkpt lat="48.417363" lon="2.649365"><ele></ele><time>2020-1-11T6:37:43Z</time></trkpt>
<trkpt lat="48.41739" lon="2.649199"><ele></ele><time>2020-1-11T6:37:46Z</time></trkpt>
<trkpt lat="48.417407" lon="2.649027"><ele></ele><time>2020-1-11T6:37:49Z</time></trkpt>
<trkpt lat="48.417426" lon="2.648862"><ele></ele><time>2020-1-11T6:37:52Z</time></trkpt>
<trkpt lat="48.417418" lon="2.64868"><ele></ele><time>2020-1-11T6:37:55Z</time></trkpt>
<trkpt lat="48.417404" lon="2.648522"><ele></ele><time>2020-1-11T6:37:58Z</time></trkpt>
<trkpt lat="48.417358" lon="2.648395"><ele></ele><time>2020-1-11T6:38:1Z</time></trkpt>
<trkpt lat="48.417281" lon="2.648288"><ele></ele><time>2020-1-11T6:38:4Z</time></trkpt>
<trkpt lat="48.417215" lon="2.648196"><ele></ele><time>2020-1-11T6:38:7Z</time></trkpt>
<trkpt lat="48.417142" lon="2.648313"><ele></ele><time>2020-1-11T6:38:10Z</time></trkpt>
<trkpt lat="48.417067" lon="2.648438"><ele></ele><time>2020-1-11T6:38:13Z</time></trkpt>
<trkpt lat="48.416988" lon="2.64855"><ele></ele><time>2020-1-11T6:38:16Z</time></trkpt>
<trkpt lat="48.416913" lon="2.648642"><ele></ele><time>2020-1-11T6:38:19Z</time></trkpt>
<trkpt lat="48.416842" lon="2.648754"><ele></ele><time>2020-1-11T6:38:22Z</time></trkpt>
<trkpt lat="48.41676" lon="2.648894"><ele></ele><time>2020-1-11T6:38:25Z</time></trkpt>
<trkpt lat="48.416693" lon="2.649014"><ele></ele><time>2020-1-11T6:38:28Z</time></trkpt>
<trkpt lat="48.416622" lon="2.649136"><ele></ele><time>2020-1-11T6:38:31Z</time></trkpt>
<trkpt lat="48.416552" lon="2.649253"><ele></ele><time>2020-1-11T6:38:34Z</time></trkpt>
<trkpt lat="48.416442" lon="2.649345"><ele></ele><time>2020-1-11T6:38:37Z</time></trkpt>
<trkpt lat="48.416335" lon="2.649432"><ele></ele><time>2020-1-11T6:38:40Z</time></trkpt>
<trkpt lat="48.416264" lon="2.649552"><ele></ele><time>2020-1-11T6:38:43Z</time></trkpt>
<trkpt lat="48.416202" lon="2.649662"><ele></ele><time>2020-1-11T6:38:46Z</time></trkpt>
<trkpt lat="48.416116" lon="2.649806"><ele></ele><time>2020-1-11T6:38:49Z</time></trkpt>
<trkpt lat="48.416061" lon="2.649916"><ele></ele><time>2020-1-11T6:38:52Z</time></trkpt>
<trkpt lat="48.415991" lon="2.650047"><ele></ele><time>2020-1-11T6:38:55Z</time></trkpt>
<trkpt lat="48.415895" lon="2.650163"><ele></ele><time>2020-1-11T6:38:58Z</time></trkpt>
<trkpt lat="48.415797" lon="2.650267"><ele></ele><time>2020-1-11T6:39:1Z</time></trkpt>
<trkpt lat="48.41574" lon="2.650398"><ele></ele><time>2020-1-11T6:39:4Z</time></trkpt>
<trkpt lat="48.415684" lon="2.650538"><ele></ele><time>2020-1-11T6:39:7Z</time></trkpt>
<trkpt lat="48.415636" lon="2.650662"><ele></ele><time>2020-1-11T6:39:10Z</time></trkpt>
<trkpt lat="48.415569" lon="2.650797"><ele></ele><time>2020-1-11T6:39:13Z</time></trkpt>
<trkpt lat="48.415498" lon="2.650883"><ele></ele><time>2020-1-11T6:39:16Z</time></trkpt>
<trkpt lat="48.415421" lon="2.65096"><ele></ele><time>2020-1-11T6:39:19Z</time></trkpt>
<trkpt lat="48.415354" lon="2.651059"><ele></ele><time>2020-1-11T6:39:22Z</time></trkpt>
<trkpt lat="48.415285" lon="2.65117"><ele></ele><time>2020-1-11T6:39:25Z</time></trkpt>
<trkpt lat="48.415211" lon="2.651312"><ele></ele><time>2020-1-11T6:39:28Z</time></trkpt>
<trkpt lat="48.415122" lon="2.651438"><ele></ele><time>2020-1-11T6:39:31Z</time></trkpt>
<trkpt lat="48.41506" lon="2.651545"><ele></ele><time>2020-1-11T6:39:34Z</time></trkpt>
<trkpt lat="48.414969" lon="2.65167"><ele></ele><time>2020-1-11T6:39:37Z</time></trkpt>
<trkpt lat="48.414882" lon="2.651794"><ele></ele><time>2020-1-11T6:39:40Z</time></trkpt>
<trkpt lat="48.414813" lon="2.651925"><ele></ele><time>2020-1-11T6:39:43Z</time></trkpt>
<trkpt lat="48.414728" lon="2.652031"><ele></ele><time>2020-1-11T6:39:46Z</time></trkpt>
<trkpt lat="48.41466" lon="2.652122"><ele></ele><time>2020-1-11T6:39:49Z</time></trkpt>
<trkpt lat="48.414594" lon="2.65222"><ele></ele><time>2020-1-11T6:39:52Z</time></trkpt>
<trkpt lat="48.414507" lon="2.652343"><ele></ele><time>2020-1-11T6:39:55Z</time></trkpt>
<trkpt lat="48.414429" lon="2.652441"><ele></ele><time>2020-1-11T6:39:58Z</time></trkpt>
<trkpt lat="48.414337" lon="2.652575"><ele></ele><time>2020-1-11T6:40:1Z</time></trkpt>
<trkpt lat="48.414259" lon="2.652675"><ele></ele><time>2020-1-11T6:40:4Z</time></trkpt>
<trkpt lat="48.414167" lon="2.652778"><ele></ele><time>2020-1-11T6:40:7Z</time></trkpt>
<trkpt lat="48.414081" lon="2.652899"><ele></ele><time>2020-1-11T6:40:10Z</time></trkpt>
<trkpt lat="48.414016" lon="2.653009"><ele></ele><time>2020-1-11T6:40:13Z</time></trkpt>
<trkpt lat="48.413942" lon="2.653136"><ele></ele><time>2020-1-11T6:40:16Z</time></trkpt>
<trkpt lat="48.413858" lon="2.653284"><ele></ele><time>2020-1-11T6:40:19Z</time></trkpt>
<trkpt lat="48.413772" lon="2.653469"><ele></ele><time>2020-1-11T6:40:22Z</time></trkpt>
<trkpt lat="48.413696" lon="2.6536"><ele></ele><time>2020-1-11T6:40:25Z</time></trkpt>
<trkpt lat="48.413642" lon="2.653768"><ele></ele><time>2020-1-11T6:40:28Z</time></trkpt>
<trkpt lat="48.413563" lon="2.653855"><ele></ele><time>2020-1-11T6:40:31Z</time></trkpt>
<trkpt lat="48.413486" lon="2.653997"><ele></ele><time>2020-1-11T6:40:34Z</time></trkpt>
<trkpt lat="48.41342" lon="2.654132"><ele></ele><time>2020-1-11T6:40:37Z</time></trkpt>
<trkpt lat="48.413353" lon="2.654224"><ele></ele><time>2020-1-11T6:40:40Z</time></trkpt>
<trkpt lat="48.413279" lon="2.65435"><ele></ele><time>2020-1-11T6:40:43Z</time></trkpt>
<trkpt lat="48.413201" lon="2.654486"><ele></ele><time>2020-1-11T6:40:46Z</time></trkpt>
<trkpt lat="48.413147" lon="2.654602"><ele></ele><time>2020-1-11T6:40:49Z</time></trkpt>
<trkpt lat="48.413005" lon="2.654744"><ele></ele><time>2020-1-11T6:40:52Z</time></trkpt>
<trkpt lat="48.412918" lon="2.654893"><ele></ele><time>2020-1-11T6:40:55Z</time></trkpt>
<trkpt lat="48.412866" lon="2.655014"><ele></ele><time>2020-1-11T6:40:58Z</time></trkpt>
<trkpt lat="48.412764" lon="2.655141"><ele></ele><time>2020-1-11T6:41:1Z</time></trkpt>
<trkpt lat="48.412715" lon="2.65527"><ele></ele><time>2020-1-11T6:41:4Z</time></trkpt>
<trkpt lat="48.412646" lon="2.655357"><ele></ele><time>2020-1-11T6:41:7Z</time></trkpt>
<trkpt lat="48.412566" lon="2.655489"><ele></ele><time>2020-1-11T6:41:10Z</time></trkpt>
<trkpt lat="48.412463" lon="2.655588"><ele></ele><time>2020-1-11T6:41:13Z</time></trkpt>
<trkpt lat="48.412379" lon="2.655725"><ele></ele><time>2020-1-11T6:41:16Z</time></trkpt>
<trkpt lat="48.412312" lon="2.655845"><ele></ele><time>2020-1-11T6:41:19Z</time></trkpt>
<trkpt lat="48.412221" lon="2.656014"><ele></ele><time>2020-1-11T6:41:22Z</time></trkpt>
<trkpt lat="48.412163" lon="2.656119"><ele></ele><time>2020-1-11T6:41:25Z</time></trkpt>
<trkpt lat="48.412068" lon="2.656233"><ele></ele><time>2020-1-11T6:41:28Z</time></trkpt>
<trkpt lat="48.411993" lon="2.656315"><ele></ele><time>2020-1-11T6:41:31Z</time></trkpt>
<trkpt lat="48.411923" lon="2.656431"><ele></ele><time>2020-1-11T6:41:34Z</time></trkpt>
<trkpt lat="48.411855" lon="2.65654"><ele></ele><time>2020-1-11T6:41:37Z</time></trkpt>
<trkpt lat="48.411775" lon="2.656607"><ele></ele><time>2020-1-11T6:41:40Z</time></trkpt>
<trkpt lat="48.411692" lon="2.6567"><ele></ele><time>2020-1-11T6:41:43Z</time></trkpt>
<trkpt lat="48.411663" lon="2.656882"><ele></ele><time>2020-1-11T6:41:46Z</time></trkpt>
<trkpt lat="48.411607" lon="2.65705"><ele></ele><time>2020-1-11T6:41:49Z</time></trkpt>
<trkpt lat="48.411531" lon="2.657159"><ele></ele><time>2020-1-11T6:41:52Z</time></trkpt>
<trkpt lat="48.411448" lon="2.657296"><ele></ele><time>2020-1-11T6:41:55Z</time></trkpt>
<trkpt lat="48.411385" lon="2.657433"><ele></ele><time>2020-1-11T6:41:58Z</time></trkpt>
<trkpt lat="48.411308" lon="2.657563"><ele></ele><time>2020-1-11T6:42:1Z</time></trkpt>
<trkpt lat="48.411242" lon="2.657697"><ele></ele><time>2020-1-11T6:42:4Z</time></trkpt>
<trkpt lat="48.411223" lon="2.657829"><ele></ele><time>2020-1-11T6:42:7Z</time></trkpt>
<trkpt lat="48.411129" lon="2.657944"><ele></ele><time>2020-1-11T6:42:10Z</time></trkpt>
<trkpt lat="48.411048" lon="2.658085"><ele></ele><time>2020-1-11T6:42:13Z</time></trkpt>
<trkpt lat="48.410984" lon="2.658239"><ele></ele><time>2020-1-11T6:42:16Z</time></trkpt>
<trkpt lat="48.410905" lon="2.658387"><ele></ele><time>2020-1-11T6:42:19Z</time></trkpt>
<trkpt lat="48.410831" lon="2.658542"><ele></ele><time>2020-1-11T6:42:22Z</time></trkpt>
<trkpt lat="48.410773" lon="2.658647"><ele></ele><time>2020-1-11T6:42:25Z</time></trkpt>
<trkpt lat="48.410712" lon="2.658823"><ele></ele><time>2020-1-11T6:42:28Z</time></trkpt>
<trkpt lat="48.41066" lon="2.658969"><ele></ele><time>2020-1-11T6:42:31Z</time></trkpt>
<trkpt lat="48.410559" lon="2.659144"><ele></ele><time>2020-1-11T6:42:34Z</time></trkpt>
<trkpt lat="48.410445" lon="2.65929"><ele></ele><time>2020-1-11T6:42:37Z</time></trkpt>
<trkpt lat="48.410382" lon="2.659388"><ele></ele><time>2020-1-11T6:42:40Z</time></trkpt>
<trkpt lat="48.410254" lon="2.659554"><ele></ele><time>2020-1-11T6:42:43Z</time></trkpt>
<trkpt lat="48.410162" lon="2.659762"><ele></ele><time>2020-1-11T6:42:46Z</time></trkpt>
<trkpt lat="48.410086" lon="2.659912"><ele></ele><time>2020-1-11T6:42:49Z</time></trkpt>
<trkpt lat="48.410025" lon="2.660068"><ele></ele><time>2020-1-11T6:42:52Z</time></trkpt>
<trkpt lat="48.409973" lon="2.660247"><ele></ele><time>2020-1-11T6:42:55Z</time></trkpt>
<trkpt lat="48.409939" lon="2.660417"><ele></ele><time>2020-1-11T6:42:58Z</time></trkpt>
<trkpt lat="48.409855" lon="2.660503"><ele></ele><time>2020-1-11T6:43:1Z</time></trkpt>
<trkpt lat="48.409739" lon="2.660629"><ele></ele><time>2020-1-11T6:43:4Z</time></trkpt>
<trkpt lat="48.409684" lon="2.660765"><ele></ele><time>2020-1-11T6:43:7Z</time></trkpt>
<trkpt lat="48.409623" lon="2.660869"><ele></ele><time>2020-1-11T6:43:10Z</time></trkpt>
<trkpt lat="48.409554" lon="2.661036"><ele></ele><time>2020-1-11T6:43:13Z</time></trkpt>
<trkpt lat="48.409494" lon="2.661212"><ele></ele><time>2020-1-11T6:43:16Z</time></trkpt>
<trkpt lat="48.409428" lon="2.661335"><ele></ele><time>2020-1-11T6:43:19Z</time></trkpt>
<trkpt lat="48.409326" lon="2.661482"><ele></ele><time>2020-1-11T6:43:22Z</time></trkpt>
<trkpt lat="48.409245" lon="2.661648"><ele></ele><time>2020-1-11T6:43:25Z</time></trkpt>
<trkpt lat="48.409185" lon="2.661834"><ele></ele><time>2020-1-11T6:43:28Z</time></trkpt>
<trkpt lat="48.409089" lon="2.662024"><ele></ele><time>2020-1-11T6:43:31Z</time></trkpt>
<trkpt lat="48.40899" lon="2.662179"><ele></ele><time>2020-1-11T6:43:34Z</time></trkpt>
<trkpt lat="48.408936" lon="2.662333"><ele></ele><time>2020-1-11T6:43:37Z</time></trkpt>
<trkpt lat="48.408876" lon="2.662482"><ele></ele><time>2020-1-11T6:43:40Z</time></trkpt>
<trkpt lat="48.408812" lon="2.662588"><ele></ele><time>2020-1-11T6:43:43Z</time></trkpt>
<trkpt lat="48.408691" lon="2.662757"><ele></ele><time>2020-1-11T6:43:46Z</time></trkpt>
<trkpt lat="48.408607" lon="2.662934"><ele></ele><time>2020-1-11T6:43:49Z</time></trkpt>
<trkpt lat="48.408558" lon="2.663059"><ele></ele><time>2020-1-11T6:43:52Z</time></trkpt>
<trkpt lat="48.408503" lon="2.663228"><ele></ele><time>2020-1-11T6:43:55Z</time></trkpt>
<trkpt lat="48.408443" lon="2.663361"><ele></ele><time>2020-1-11T6:43:58Z</time></trkpt>
<trkpt lat="48.408336" lon="2.663497"><ele></ele><time>2020-1-11T6:44:1Z</time></trkpt>
<trkpt lat="48.408225" lon="2.663638"><ele></ele><time>2020-1-11T6:44:4Z</time></trkpt>
<trkpt lat="48.408102" lon="2.663818"><ele></ele><time>2020-1-11T6:44:7Z</time></trkpt>
<trkpt lat="48.408014" lon="2.663976"><ele></ele><time>2020-1-11T6:44:10Z</time></trkpt>
<trkpt lat="48.407998" lon="2.664192"><ele></ele><time>2020-1-11T6:44:13Z</time></trkpt>
<trkpt lat="48.40804" lon="2.664344"><ele></ele><time>2020-1-11T6:44:16Z</time></trkpt>
<trkpt lat="48.408059" lon="2.664599"><ele></ele><time>2020-1-11T6:44:19Z</time></trkpt>
<trkpt lat="48.408049" lon="2.664743"><ele></ele><time>2020-1-11T6:44:22Z</time></trkpt>
<trkpt lat="48.408048" lon="2.66489"><ele></ele><time>2020-1-11T6:44:25Z</time></trkpt>
<trkpt lat="48.408093" lon="2.665077"><ele></ele><time>2020-1-11T6:44:28Z</time></trkpt>
<trkpt lat="48.408029" lon="2.665338"><ele></ele><time>2020-1-11T6:44:31Z</time></trkpt>
<trkpt lat="48.40797" lon="2.665474"><ele></ele><time>2020-1-11T6:44:34Z</time></trkpt>
<trkpt lat="48.407925" lon="2.665604"><ele></ele><time>2020-1-11T6:44:37Z</time></trkpt>
<trkpt lat="48.407892" lon="2.665855"><ele></ele><time>2020-1-11T6:44:40Z</time></trkpt>
<trkpt lat="48.407781" lon="2.666053"><ele></ele><time>2020-1-11T6:44:43Z</time></trkpt>
<trkpt lat="48.407629" lon="2.666252"><ele></ele><time>2020-1-11T6:44:46Z</time></trkpt>
<trkpt lat="48.40758" lon="2.666385"><ele></ele><time>2020-1-11T6:44:49Z</time></trkpt>
<trkpt lat="48.407607" lon="2.666605"><ele></ele><time>2020-1-11T6:44:52Z</time></trkpt>
<trkpt lat="48.407618" lon="2.666831"><ele></ele><time>2020-1-11T6:44:55Z</time></trkpt>
<trkpt lat="48.407586" lon="2.667049"><ele></ele><time>2020-1-11T6:44:58Z</time></trkpt>
<trkpt lat="48.40756" lon="2.667262"><ele></ele><time>2020-1-11T6:45:1Z</time></trkpt>
<trkpt lat="48.407549" lon="2.667488"><ele></ele><time>2020-1-11T6:45:4Z</time></trkpt>
<trkpt lat="48.407468" lon="2.66764"><ele></ele><time>2020-1-11T6:45:7Z</time></trkpt>
<trkpt lat="48.407409" lon="2.667834"><ele></ele><time>2020-1-11T6:45:10Z</time></trkpt>
<trkpt lat="48.407386" lon="2.668059"><ele></ele><time>2020-1-11T6:45:13Z</time></trkpt>
<trkpt lat="48.407363" lon="2.668265"><ele></ele><time>2020-1-11T6:45:16Z</time></trkpt>
<trkpt lat="48.407373" lon="2.668445"><ele></ele><time>2020-1-11T6:45:19Z</time></trkpt>
<trkpt lat="48.407385" lon="2.668642"><ele></ele><time>2020-1-11T6:45:22Z</time></trkpt>
<trkpt lat="48.407403" lon="2.668871"><ele></ele><time>2020-1-11T6:45:25Z</time></trkpt>
<trkpt lat="48.407408" lon="2.669071"><ele></ele><time>2020-1-11T6:45:28Z</time></trkpt>
<trkpt lat="48.407395" lon="2.669239"><ele></ele><time>2020-1-11T6:45:31Z</time></trkpt>
<trkpt lat="48.407394" lon="2.669395"><ele></ele><time>2020-1-11T6:45:34Z</time></trkpt>
<trkpt lat="48.407481" lon="2.669445"><ele></ele><time>2020-1-11T6:45:37Z</time></trkpt>
<trkpt lat="48.407526" lon="2.669588"><ele></ele><time>2020-1-11T6:45:40Z</time></trkpt>
<trkpt lat="48.407554" lon="2.669793"><ele></ele><time>2020-1-11T6:45:43Z</time></trkpt>
<trkpt lat="48.407597" lon="2.670017"><ele></ele><time>2020-1-11T6:45:46Z</time></trkpt>
<trkpt lat="48.407652" lon="2.670222"><ele></ele><time>2020-1-11T6:45:49Z</time></trkpt>
<trkpt lat="48.407707" lon="2.670427"><ele></ele><time>2020-1-11T6:45:52Z</time></trkpt>
<trkpt lat="48.407741" lon="2.670694"><ele></ele><time>2020-1-11T6:45:55Z</time></trkpt>
<trkpt lat="48.407777" lon="2.670825"><ele></ele><time>2020-1-11T6:45:58Z</time></trkpt>
<trkpt lat="48.40781" lon="2.671065"><ele></ele><time>2020-1-11T6:46:1Z</time></trkpt>
<trkpt lat="48.407836" lon="2.671234"><ele></ele><time>2020-1-11T6:46:4Z</time></trkpt>
<trkpt lat="48.40786" lon="2.671425"><ele></ele><time>2020-1-11T6:46:7Z</time></trkpt>
<trkpt lat="48.40789" lon="2.671588"><ele></ele><time>2020-1-11T6:46:10Z</time></trkpt>
<trkpt lat="48.407888" lon="2.671727"><ele></ele><time>2020-1-11T6:46:13Z</time></trkpt>
<trkpt lat="48.407948" lon="2.671928"><ele></ele><time>2020-1-11T6:46:16Z</time></trkpt>
<trkpt lat="48.407983" lon="2.672061"><ele></ele><time>2020-1-11T6:46:19Z</time></trkpt>
<trkpt lat="48.408077" lon="2.67218"><ele></ele><time>2020-1-11T6:46:22Z</time></trkpt>
<trkpt lat="48.408156" lon="2.672307"><ele></ele><time>2020-1-11T6:46:25Z</time></trkpt>
<trkpt lat="48.408272" lon="2.67242"><ele></ele><time>2020-1-11T6:46:28Z</time></trkpt>
<trkpt lat="48.408345" lon="2.672515"><ele></ele><time>2020-1-11T6:46:31Z</time></trkpt>
<trkpt lat="48.408475" lon="2.672636"><ele></ele><time>2020-1-11T6:46:34Z</time></trkpt>
<trkpt lat="48.408624" lon="2.672717"><ele></ele><time>2020-1-11T6:46:37Z</time></trkpt>
<trkpt lat="48.408741" lon="2.672819"><ele></ele><time>2020-1-11T6:46:40Z</time></trkpt>
<trkpt lat="48.40877" lon="2.672985"><ele></ele><time>2020-1-11T6:46:43Z</time></trkpt>
<trkpt lat="48.408749" lon="2.673203"><ele></ele><time>2020-1-11T6:46:46Z</time></trkpt>
<trkpt lat="48.408734" lon="2.673377"><ele></ele><time>2020-1-11T6:46:49Z</time></trkpt>
<trkpt lat="48.408729" lon="2.673529"><ele></ele><time>2020-1-11T6:46:52Z</time></trkpt>
<trkpt lat="48.408723" lon="2.673754"><ele></ele><time>2020-1-11T6:46:55Z</time></trkpt>
<trkpt lat="48.408742" lon="2.673901"><ele></ele><time>2020-1-11T6:46:58Z</time></trkpt>
<trkpt lat="48.408737" lon="2.674131"><ele></ele><time>2020-1-11T6:47:1Z</time></trkpt>
<trkpt lat="48.408686" lon="2.674291"><ele></ele><time>2020-1-11T6:47:4Z</time></trkpt>
<trkpt lat="48.40868" lon="2.674442"><ele></ele><time>2020-1-11T6:47:7Z</time></trkpt>
<trkpt lat="48.408614" lon="2.67461"><ele></ele><time>2020-1-11T6:47:10Z</time></trkpt>
<trkpt lat="48.408467" lon="2.674647"><ele></ele><time>2020-1-11T6:47:13Z</time></trkpt>
<trkpt lat="48.408325" lon="2.674659"><ele></ele><time>2020-1-11T6:47:16Z</time></trkpt>
<trkpt lat="48.408176" lon="2.674672"><ele></ele><time>2020-1-11T6:47:19Z</time></trkpt>
<trkpt lat="48.408037" lon="2.67467"><ele></ele><time>2020-1-11T6:47:22Z</time></trkpt>
<trkpt lat="48.407907" lon="2.674675"><ele></ele><time>2020-1-11T6:47:25Z</time></trkpt>
<trkpt lat="48.407804" lon="2.674707"><ele></ele><time>2020-1-11T6:47:28Z</time></trkpt>
<trkpt lat="48.407675" lon="2.674711"><ele></ele><time>2020-1-11T6:47:31Z</time></trkpt>
<trkpt lat="48.407568" lon="2.674703"><ele></ele><time>2020-1-11T6:47:34Z</time></trkpt>
<trkpt lat="48.407456" lon="2.674717"><ele></ele><time>2020-1-11T6:47:37Z</time></trkpt>
<trkpt lat="48.407318" lon="2.674723"><ele></ele><time>2020-1-11T6:47:40Z</time></trkpt>
<trkpt lat="48.407154" lon="2.674742"><ele></ele><time>2020-1-11T6:47:43Z</time></trkpt>
<trkpt lat="48.407029" lon="2.674762"><ele></ele><time>2020-1-11T6:47:46Z</time></trkpt>
<trkpt lat="48.40694" lon="2.67481"><ele></ele><time>2020-1-11T6:47:49Z</time></trkpt>
<trkpt lat="48.406868" lon="2.674902"><ele></ele><time>2020-1-11T6:47:52Z</time></trkpt>
<trkpt lat="48.406805" lon="2.675005"><ele></ele><time>2020-1-11T6:47:55Z</time></trkpt>
<trkpt lat="48.406732" lon="2.675115"><ele></ele><time>2020-1-11T6:47:58Z</time></trkpt>
<trkpt lat="48.406669" lon="2.675212"><ele></ele><time>2020-1-11T6:48:1Z</time></trkpt>
<trkpt lat="48.40655" lon="2.675403"><ele></ele><time>2020-1-11T6:48:4Z</time></trkpt>
<trkpt lat="48.406462" lon="2.675565"><ele></ele><time>2020-1-11T6:48:7Z</time></trkpt>
<trkpt lat="48.406375" lon="2.675601"><ele></ele><time>2020-1-11T6:48:10Z</time></trkpt>
<trkpt lat="48.4063" lon="2.675502"><ele></ele><time>2020-1-11T6:48:13Z</time></trkpt>
<trkpt lat="48.406232" lon="2.675403"><ele></ele><time>2020-1-11T6:48:16Z</time></trkpt>
<trkpt lat="48.406162" lon="2.675295"><ele></ele><time>2020-1-11T6:48:19Z</time></trkpt>
<trkpt lat="48.406084" lon="2.675196"><ele></ele><time>2020-1-11T6:48:22Z</time></trkpt>
<trkpt lat="48.405991" lon="2.675111"><ele></ele><time>2020-1-11T6:48:25Z</time></trkpt>
<trkpt lat="48.405912" lon="2.675011"><ele></ele><time>2020-1-11T6:48:28Z</time></trkpt>
<trkpt lat="48.405831" lon="2.674894"><ele></ele><time>2020-1-11T6:48:31Z</time></trkpt>
<trkpt lat="48.405742" lon="2.674786"><ele></ele><time>2020-1-11T6:48:34Z</time></trkpt>
<trkpt lat="48.405656" lon="2.67473"><ele></ele><time>2020-1-11T6:48:37Z</time></trkpt>
<trkpt lat="48.405551" lon="2.674633"><ele></ele><time>2020-1-11T6:48:40Z</time></trkpt>
<trkpt lat="48.405451" lon="2.674523"><ele></ele><time>2020-1-11T6:48:43Z</time></trkpt>
<trkpt lat="48.405372" lon="2.674449"><ele></ele><time>2020-1-11T6:48:46Z</time></trkpt>
<trkpt lat="48.405291" lon="2.674354"><ele></ele><time>2020-1-11T6:48:49Z</time></trkpt>
<trkpt lat="48.405193" lon="2.674254"><ele></ele><time>2020-1-11T6:48:52Z</time></trkpt>
<trkpt lat="48.405088" lon="2.674193"><ele></ele><time>2020-1-11T6:48:55Z</time></trkpt>
<trkpt lat="48.404973" lon="2.674133"><ele></ele><time>2020-1-11T6:48:58Z</time></trkpt>
<trkpt lat="48.404852" lon="2.674146"><ele></ele><time>2020-1-11T6:49:1Z</time></trkpt>
<trkpt lat="48.40477" lon="2.674259"><ele></ele><time>2020-1-11T6:49:4Z</time></trkpt>
<trkpt lat="48.404713" lon="2.674386"><ele></ele><time>2020-1-11T6:49:7Z</time></trkpt>
<trkpt lat="48.404622" lon="2.674488"><ele></ele><time>2020-1-11T6:49:10Z</time></trkpt>
<trkpt lat="48.404545" lon="2.67461"><ele></ele><time>2020-1-11T6:49:13Z</time></trkpt>
<trkpt lat="48.404447" lon="2.674641"><ele></ele><time>2020-1-11T6:49:16Z</time></trkpt>
<trkpt lat="48.404347" lon="2.674638"><ele></ele><time>2020-1-11T6:49:19Z</time></trkpt>
<trkpt lat="48.404262" lon="2.674564"><ele></ele><time>2020-1-11T6:49:22Z</time></trkpt>
<trkpt lat="48.4042" lon="2.67444"><ele></ele><time>2020-1-11T6:49:25Z</time></trkpt>
<trkpt lat="48.404146" lon="2.674317"><ele></ele><time>2020-1-11T6:49:28Z</time></trkpt>
<trkpt lat="48.404195" lon="2.674431"><ele></ele><time>2020-1-11T6:49:31Z</time></trkpt>
<trkpt lat="48.404253" lon="2.674561"><ele></ele><time>2020-1-11T6:49:34Z</time></trkpt>
<trkpt lat="48.40429" lon="2.674689"><ele></ele><time>2020-1-11T6:49:37Z</time></trkpt>
<trkpt lat="48.404208" lon="2.67475"><ele></ele><time>2020-1-11T6:49:40Z</time></trkpt>
<trkpt lat="48.404117" lon="2.674672"><ele></ele><time>2020-1-11T6:49:43Z</time></trkpt>
<trkpt lat="48.404051" lon="2.674561"><ele></ele><time>2020-1-11T6:49:46Z</time></trkpt>
<trkpt lat="48.403985" lon="2.674456"><ele></ele><time>2020-1-11T6:49:49Z</time></trkpt>
<trkpt lat="48.40392" lon="2.674329"><ele></ele><time>2020-1-11T6:49:52Z</time></trkpt>
<trkpt lat="48.403861" lon="2.674194"><ele></ele><time>2020-1-11T6:49:55Z</time></trkpt>
<trkpt lat="48.403819" lon="2.67406"><ele></ele><time>2020-1-11T6:49:58Z</time></trkpt>
<trkpt lat="48.403716" lon="2.673971"><ele></ele><time>2020-1-11T6:50:1Z</time></trkpt>
<trkpt lat="48.403625" lon="2.673961"><ele></ele><time>2020-1-11T6:50:4Z</time></trkpt>
<trkpt lat="48.403529" lon="2.67397"><ele></ele><time>2020-1-11T6:50:7Z</time></trkpt>
<trkpt lat="48.403409" lon="2.673962"><ele></ele><time>2020-1-11T6:50:10Z</time></trkpt>
<trkpt lat="48.403315" lon="2.673886"><ele></ele><time>2020-1-11T6:50:13Z</time></trkpt>
<trkpt lat="48.403226" lon="2.673752"><ele></ele><time>2020-1-11T6:50:16Z</time></trkpt>
<trkpt lat="48.403134" lon="2.673587"><ele></ele><time>2020-1-11T6:50:19Z</time></trkpt>
<trkpt lat="48.40308" lon="2.673463"><ele></ele><time>2020-1-11T6:50:22Z</time></trkpt>
<trkpt lat="48.40301" lon="2.673281"><ele></ele><time>2020-1-11T6:50:25Z</time></trkpt>
<trkpt lat="48.402947" lon="2.673184"><ele></ele><time>2020-1-11T6:50:28Z</time></trkpt>
<trkpt lat="48.402869" lon="2.673063"><ele></ele><time>2020-1-11T6:50:31Z</time></trkpt>
<trkpt lat="48.402787" lon="2.673173"><ele></ele><time>2020-1-11T6:50:34Z</time></trkpt>
<trkpt lat="48.402728" lon="2.673308"><ele></ele><time>2020-1-11T6:50:37Z</time></trkpt>
<trkpt lat="48.402663" lon="2.67345"><ele></ele><time>2020-1-11T6:50:40Z</time></trkpt>
<trkpt lat="48.402595" lon="2.673613"><ele></ele><time>2020-1-11T6:50:43Z</time></trkpt>
<trkpt lat="48.40254" lon="2.673724"><ele></ele><time>2020-1-11T6:50:46Z</time></trkpt>
<trkpt lat="48.40244" lon="2.673729"><ele></ele><time>2020-1-11T6:50:49Z</time></trkpt>
<trkpt lat="48.402324" lon="2.673695"><ele></ele><time>2020-1-11T6:50:52Z</time></trkpt>
<trkpt lat="48.402202" lon="2.673665"><ele></ele><time>2020-1-11T6:50:55Z</time></trkpt>
<trkpt lat="48.402106" lon="2.673647"><ele></ele><time>2020-1-11T6:50:58Z</time></trkpt>
<trkpt lat="48.401991" lon="2.673562"><ele></ele><time>2020-1-11T6:51:1Z</time></trkpt>
<trkpt lat="48.401873" lon="2.673498"><ele></ele><time>2020-1-11T6:51:4Z</time></trkpt>
<trkpt lat="48.401739" lon="2.673462"><ele></ele><time>2020-1-11T6:51:7Z</time></trkpt>
<trkpt lat="48.401634" lon="2.673416"><ele></ele><time>2020-1-11T6:51:10Z</time></trkpt>
<trkpt lat="48.40152" lon="2.67335"><ele></ele><time>2020-1-11T6:51:13Z</time></trkpt>
<trkpt lat="48.401402" lon="2.673281"><ele></ele><time>2020-1-11T6:51:16Z</time></trkpt>
<trkpt lat="48.401283" lon="2.673226"><ele></ele><time>2020-1-11T6:51:19Z</time></trkpt>
<trkpt lat="48.401169" lon="2.673142"><ele></ele><time>2020-1-11T6:51:22Z</time></trkpt>
<trkpt lat="48.401085" lon="2.673037"><ele></ele><time>2020-1-11T6:51:25Z</time></trkpt>
<trkpt lat="48.400988" lon="2.672946"><ele></ele><time>2020-1-11T6:51:28Z</time></trkpt>
<trkpt lat="48.400885" lon="2.67286"><ele></ele><time>2020-1-11T6:51:31Z</time></trkpt>
<trkpt lat="48.40082" lon="2.672756"><ele></ele><time>2020-1-11T6:51:34Z</time></trkpt>
<trkpt lat="48.400726" lon="2.672659"><ele></ele><time>2020-1-11T6:51:37Z</time></trkpt>
<trkpt lat="48.400624" lon="2.672548"><ele></ele><time>2020-1-11T6:51:40Z</time></trkpt>
<trkpt lat="48.400529" lon="2.672413"><ele></ele><time>2020-1-11T6:51:43Z</time></trkpt>
<trkpt lat="48.40044" lon="2.672279"><ele></ele><time>2020-1-11T6:51:46Z</time></trkpt>
<trkpt lat="48.400362" lon="2.672132"><ele></ele><time>2020-1-11T6:51:49Z</time></trkpt>
<trkpt lat="48.400277" lon="2.671995"><ele></ele><time>2020-1-11T6:51:52Z</time></trkpt>
<trkpt lat="48.400168" lon="2.671904"><ele></ele><time>2020-1-11T6:51:55Z</time></trkpt>
<trkpt lat="48.400066" lon="2.671801"><ele></ele><time>2020-1-11T6:51:58Z</time></trkpt>
<trkpt lat="48.399986" lon="2.671646"><ele></ele><time>2020-1-11T6:52:1Z</time></trkpt>
<trkpt lat="48.399912" lon="2.671496"><ele></ele><time>2020-1-11T6:52:4Z</time></trkpt>
<trkpt lat="48.399848" lon="2.671369"><ele></ele><time>2020-1-11T6:52:7Z</time></trkpt>
<trkpt lat="48.399788" lon="2.671223"><ele></ele><time>2020-1-11T6:52:10Z</time></trkpt>
<trkpt lat="48.399732" lon="2.671092"><ele></ele><time>2020-1-11T6:52:13Z</time></trkpt>
<trkpt lat="48.399686" lon="2.670971"><ele></ele><time>2020-1-11T6:52:16Z</time></trkpt>
<trkpt lat="48.399631" lon="2.670862"><ele></ele><time>2020-1-11T6:52:19Z</time></trkpt>
<trkpt lat="48.399565" lon="2.670743"><ele></ele><time>2020-1-11T6:52:22Z</time></trkpt>
<trkpt lat="48.399517" lon="2.670612"><ele></ele><time>2020-1-11T6:52:25Z</time></trkpt>
<trkpt lat="48.399456" lon="2.670492"><ele></ele><time>2020-1-11T6:52:28Z</time></trkpt>
<trkpt lat="48.399397" lon="2.670365"><ele></ele><time>2020-1-11T6:52:31Z</time></trkpt>
<trkpt lat="48.399351" lon="2.670246"><ele></ele><time>2020-1-11T6:52:34Z</time></trkpt>
<trkpt lat="48.399292" lon="2.670134"><ele></ele><time>2020-1-11T6:52:37Z</time></trkpt>
<trkpt lat="48.399236" lon="2.670022"><ele></ele><time>2020-1-11T6:52:40Z</time></trkpt>
<trkpt lat="48.399228" lon="2.669877"><ele></ele><time>2020-1-11T6:52:43Z</time></trkpt>
<trkpt lat="48.399164" lon="2.669774"><ele></ele><time>2020-1-11T6:52:46Z</time></trkpt>
<trkpt lat="48.399094" lon="2.669666"><ele></ele><time>2020-1-11T6:52:49Z</time></trkpt>
<trkpt lat="48.399034" lon="2.669541"><ele></ele><time>2020-1-11T6:52:52Z</time></trkpt>
<trkpt lat="48.39896" lon="2.66946"><ele></ele><time>2020-1-11T6:52:55Z</time></trkpt>
<trkpt lat="48.398904" lon="2.669331"><ele></ele><time>2020-1-11T6:52:58Z</time></trkpt>
<trkpt lat="48.398875" lon="2.669194"><ele></ele><time>2020-1-11T6:53:1Z</time></trkpt>
<trkpt lat="48.398848" lon="2.669059"><ele></ele><time>2020-1-11T6:53:4Z</time></trkpt>
<trkpt lat="48.398769" lon="2.668972"><ele></ele><time>2020-1-11T6:53:7Z</time></trkpt>
<trkpt lat="48.398676" lon="2.66893"><ele></ele><time>2020-1-11T6:53:10Z</time></trkpt>
<trkpt lat="48.398604" lon="2.668841"><ele></ele><time>2020-1-11T6:53:13Z</time></trkpt>
<trkpt lat="48.398513" lon="2.668831"><ele></ele><time>2020-1-11T6:53:16Z</time></trkpt>
<trkpt lat="48.398431" lon="2.6689"><ele></ele><time>2020-1-11T6:53:19Z</time></trkpt>
<trkpt lat="48.39834" lon="2.668913"><ele></ele><time>2020-1-11T6:53:22Z</time></trkpt>
<trkpt lat="48.398247" lon="2.668897"><ele></ele><time>2020-1-11T6:53:25Z</time></trkpt>
<trkpt lat="48.398155" lon="2.668891"><ele></ele><time>2020-1-11T6:53:28Z</time></trkpt>
<trkpt lat="48.398084" lon="2.66898"><ele></ele><time>2020-1-11T6:53:31Z</time></trkpt>
<trkpt lat="48.398085" lon="2.669126"><ele></ele><time>2020-1-11T6:53:34Z</time></trkpt>
<trkpt lat="48.398033" lon="2.669242"><ele></ele><time>2020-1-11T6:53:37Z</time></trkpt>
<trkpt lat="48.397938" lon="2.66923"><ele></ele><time>2020-1-11T6:53:40Z</time></trkpt>
<trkpt lat="48.39784" lon="2.669199"><ele></ele><time>2020-1-11T6:53:43Z</time></trkpt>
<trkpt lat="48.397758" lon="2.66914"><ele></ele><time>2020-1-11T6:53:46Z</time></trkpt>
<trkpt lat="48.397678" lon="2.669075"><ele></ele><time>2020-1-11T6:53:49Z</time></trkpt>
<trkpt lat="48.397657" lon="2.668934"><ele></ele><time>2020-1-11T6:53:52Z</time></trkpt>
<trkpt lat="48.397638" lon="2.668801"><ele></ele><time>2020-1-11T6:53:55Z</time></trkpt>
<trkpt lat="48.397556" lon="2.668876"><ele></ele><time>2020-1-11T6:53:58Z</time></trkpt>
<trkpt lat="48.397462" lon="2.668827"><ele></ele><time>2020-1-11T6:54:1Z</time></trkpt>
<trkpt lat="48.397377" lon="2.668874"><ele></ele><time>2020-1-11T6:54:4Z</time></trkpt>
<trkpt lat="48.397396" lon="2.668738"><ele></ele><time>2020-1-11T6:54:7Z</time></trkpt>
<trkpt lat="48.39744" lon="2.668614"><ele></ele><time>2020-1-11T6:54:10Z</time></trkpt>
<trkpt lat="48.397489" lon="2.668499"><ele></ele><time>2020-1-11T6:54:13Z</time></trkpt>
<trkpt lat="48.39755" lon="2.66837"><ele></ele><time>2020-1-11T6:54:16Z</time></trkpt>
<trkpt lat="48.397595" lon="2.66823"><ele></ele><time>2020-1-11T6:54:19Z</time></trkpt>
<trkpt lat="48.397642" lon="2.668115"><ele></ele><time>2020-1-11T6:54:22Z</time></trkpt>
<trkpt lat="48.397669" lon="2.667983"><ele></ele><time>2020-1-11T6:54:25Z</time></trkpt>
<trkpt lat="48.397686" lon="2.66785"><ele></ele><time>2020-1-11T6:54:28Z</time></trkpt>
<trkpt lat="48.39771" lon="2.667719"><ele></ele><time>2020-1-11T6:54:31Z</time></trkpt>
<trkpt lat="48.397793" lon="2.667643"><ele></ele><time>2020-1-11T6:54:34Z</time></trkpt>
<trkpt lat="48.397903" lon="2.667676"><ele></ele><time>2020-1-11T6:54:37Z</time></trkpt>
<trkpt lat="48.39801" lon="2.667714"><ele></ele><time>2020-1-11T6:54:40Z</time></trkpt>
<trkpt lat="48.398096" lon="2.6678"><ele></ele><time>2020-1-11T6:54:43Z</time></trkpt>
<trkpt lat="48.398179" lon="2.667873"><ele></ele><time>2020-1-11T6:54:46Z</time></trkpt>
<trkpt lat="48.398253" lon="2.667961"><ele></ele><time>2020-1-11T6:54:49Z</time></trkpt>
<trkpt lat="48.398316" lon="2.668062"><ele></ele><time>2020-1-11T6:54:52Z</time></trkpt>
<trkpt lat="48.398378" lon="2.668162"><ele></ele><time>2020-1-11T6:54:55Z</time></trkpt>
<trkpt lat="48.398456" lon="2.66826"><ele></ele><time>2020-1-11T6:54:58Z</time></trkpt>
<trkpt lat="48.398516" lon="2.668367"><ele></ele><time>2020-1-11T6:55:1Z</time></trkpt>
<trkpt lat="48.398593" lon="2.668461"><ele></ele><time>2020-1-11T6:55:4Z</time></trkpt>
<trkpt lat="48.398671" lon="2.668549"><ele></ele><time>2020-1-11T6:55:7Z</time></trkpt>
<trkpt lat="48.398738" lon="2.668647"><ele></ele><time>2020-1-11T6:55:10Z</time></trkpt>
<trkpt lat="48.398789" lon="2.6688"><ele></ele><time>2020-1-11T6:55:13Z</time></trkpt>
<trkpt lat="48.398806" lon="2.668941"><ele></ele><time>2020-1-11T6:55:16Z</time></trkpt>
<trkpt lat="48.398858" lon="2.669068"><ele></ele><time>2020-1-11T6:55:19Z</time></trkpt>
<trkpt lat="48.398841" lon="2.669215"><ele></ele><time>2020-1-11T6:55:22Z</time></trkpt>
<trkpt lat="48.398906" lon="2.669315"><ele></ele><time>2020-1-11T6:55:25Z</time></trkpt>
<trkpt lat="48.398996" lon="2.669405"><ele></ele><time>2020-1-11T6:55:28Z</time></trkpt>
<trkpt lat="48.399065" lon="2.669307"><ele></ele><time>2020-1-11T6:55:31Z</time></trkpt>
<trkpt lat="48.399112" lon="2.669159"><ele></ele><time>2020-1-11T6:55:34Z</time></trkpt>
<trkpt lat="48.39916" lon="2.669023"><ele></ele><time>2020-1-11T6:55:37Z</time></trkpt>
<trkpt lat="48.399192" lon="2.668879"><ele></ele><time>2020-1-11T6:55:40Z</time></trkpt>
<trkpt lat="48.399291" lon="2.668828"><ele></ele><time>2020-1-11T6:55:43Z</time></trkpt>
<trkpt lat="48.399354" lon="2.668703"><ele></ele><time>2020-1-11T6:55:46Z</time></trkpt>
<trkpt lat="48.399391" lon="2.668575"><ele></ele><time>2020-1-11T6:55:49Z</time></trkpt>
<trkpt lat="48.399438" lon="2.668454"><ele></ele><time>2020-1-11T6:55:52Z</time></trkpt>
<trkpt lat="48.399508" lon="2.668331"><ele></ele><time>2020-1-11T6:55:55Z</time></trkpt>
<trkpt lat="48.399582" lon="2.668227"><ele></ele><time>2020-1-11T6:55:58Z</time></trkpt>
<trkpt lat="48.399651" lon="2.668119"><ele></ele><time>2020-1-11T6:56:1Z</time></trkpt>
<trkpt lat="48.399753" lon="2.667993"><ele></ele><time>2020-1-11T6:56:4Z</time></trkpt>
<trkpt lat="48.399828" lon="2.667853"><ele></ele><time>2020-1-11T6:56:7Z</time></trkpt>
<trkpt lat="48.399881" lon="2.667741"><ele></ele><time>2020-1-11T6:56:10Z</time></trkpt>
<trkpt lat="48.39995" lon="2.667609"><ele></ele><time>2020-1-11T6:56:13Z</time></trkpt>
<trkpt lat="48.400041" lon="2.667503"><ele></ele><time>2020-1-11T6:56:16Z</time></trkpt>
<trkpt lat="48.400123" lon="2.6674"><ele></ele><time>2020-1-11T6:56:19Z</time></trkpt>
<trkpt lat="48.400196" lon="2.667306"><ele></ele><time>2020-1-11T6:56:22Z</time></trkpt>
<trkpt lat="48.400273" lon="2.667227"><ele></ele><time>2020-1-11T6:56:25Z</time></trkpt>
<trkpt lat="48.400346" lon="2.667123"><ele></ele><time>2020-1-11T6:56:28Z</time></trkpt>
<trkpt lat="48.400409" lon="2.667003"><ele></ele><time>2020-1-11T6:56:31Z</time></trkpt>
<trkpt lat="48.400394" lon="2.666854"><ele></ele><time>2020-1-11T6:56:34Z</time></trkpt>
<trkpt lat="48.400391" lon="2.66668"><ele></ele><time>2020-1-11T6:56:37Z</time></trkpt>
<trkpt lat="48.400392" lon="2.666537"><ele></ele><time>2020-1-11T6:56:40Z</time></trkpt>
<trkpt lat="48.400401" lon="2.666365"><ele></ele><time>2020-1-11T6:56:43Z</time></trkpt>
<trkpt lat="48.4004" lon="2.666207"><ele></ele><time>2020-1-11T6:56:46Z</time></trkpt>
<trkpt lat="48.400402" lon="2.666033"><ele></ele><time>2020-1-11T6:56:49Z</time></trkpt>
<trkpt lat="48.400411" lon="2.665889"><ele></ele><time>2020-1-11T6:56:52Z</time></trkpt>
<trkpt lat="48.400447" lon="2.665747"><ele></ele><time>2020-1-11T6:56:55Z</time></trkpt>
<trkpt lat="48.400473" lon="2.665606"><ele></ele><time>2020-1-11T6:56:58Z</time></trkpt>
<trkpt lat="48.400492" lon="2.665461"><ele></ele><time>2020-1-11T6:57:1Z</time></trkpt>
<trkpt lat="48.400525" lon="2.665328"><ele></ele><time>2020-1-11T6:57:4Z</time></trkpt>
<trkpt lat="48.400537" lon="2.665172"><ele></ele><time>2020-1-11T6:57:7Z</time></trkpt>
<trkpt lat="48.400556" lon="2.665025"><ele></ele><time>2020-1-11T6:57:10Z</time></trkpt>
<trkpt lat="48.40056" lon="2.664889"><ele></ele><time>2020-1-11T6:57:13Z</time></trkpt>
<trkpt lat="48.400559" lon="2.664741"><ele></ele><time>2020-1-11T6:57:16Z</time></trkpt>
<trkpt lat="48.400561" lon="2.664583"><ele></ele><time>2020-1-11T6:57:19Z</time></trkpt>
<trkpt lat="48.400553" lon="2.664409"><ele></ele><time>2020-1-11T6:57:22Z</time></trkpt>
<trkpt lat="48.400553" lon="2.66425"><ele></ele><time>2020-1-11T6:57:25Z</time></trkpt>
<trkpt lat="48.400558" lon="2.664085"><ele></ele><time>2020-1-11T6:57:28Z</time></trkpt>
<trkpt lat="48.400552" lon="2.663911"><ele></ele><time>2020-1-11T6:57:31Z</time></trkpt>
<trkpt lat="48.400547" lon="2.66374"><ele></ele><time>2020-1-11T6:57:34Z</time></trkpt>
<trkpt lat="48.400544" lon="2.663574"><ele></ele><time>2020-1-11T6:57:37Z</time></trkpt>
<trkpt lat="48.400542" lon="2.663418"><ele></ele><time>2020-1-11T6:57:40Z</time></trkpt>
<trkpt lat="48.400555" lon="2.663264"><ele></ele><time>2020-1-11T6:57:43Z</time></trkpt>
<trkpt lat="48.400586" lon="2.663117"><ele></ele><time>2020-1-11T6:57:46Z</time></trkpt>
<trkpt lat="48.400609" lon="2.662983"><ele></ele><time>2020-1-11T6:57:49Z</time></trkpt>
<trkpt lat="48.400616" lon="2.662843"><ele></ele><time>2020-1-11T6:57:52Z</time></trkpt>
<trkpt lat="48.400617" lon="2.662701"><ele></ele><time>2020-1-11T6:57:55Z</time></trkpt>
<trkpt lat="48.400623" lon="2.662552"><ele></ele><time>2020-1-11T6:57:58Z</time></trkpt>
<trkpt lat="48.400634" lon="2.662396"><ele></ele><time>2020-1-11T6:58:1Z</time></trkpt>
<trkpt lat="48.400656" lon="2.662246"><ele></ele><time>2020-1-11T6:58:4Z</time></trkpt>
<trkpt lat="48.400689" lon="2.662113"><ele></ele><time>2020-1-11T6:58:7Z</time></trkpt>
<trkpt lat="48.400721" lon="2.661981"><ele></ele><time>2020-1-11T6:58:10Z</time></trkpt>
<trkpt lat="48.400759" lon="2.661813"><ele></ele><time>2020-1-11T6:58:13Z</time></trkpt>
<trkpt lat="48.40078" lon="2.661678"><ele></ele><time>2020-1-11T6:58:16Z</time></trkpt>
<trkpt lat="48.400785" lon="2.661532"><ele></ele><time>2020-1-11T6:58:19Z</time></trkpt>
<trkpt lat="48.400801" lon="2.661376"><ele></ele><time>2020-1-11T6:58:22Z</time></trkpt>
<trkpt lat="48.400764" lon="2.661538"><ele></ele><time>2020-1-11T6:58:25Z</time></trkpt>
<trkpt lat="48.400722" lon="2.66168"><ele></ele><time>2020-1-11T6:58:28Z</time></trkpt>
<trkpt lat="48.400693" lon="2.661818"><ele></ele><time>2020-1-11T6:58:31Z</time></trkpt>
<trkpt lat="48.400664" lon="2.661957"><ele></ele><time>2020-1-11T6:58:34Z</time></trkpt>
<trkpt lat="48.400647" lon="2.662117"><ele></ele><time>2020-1-11T6:58:37Z</time></trkpt>
<trkpt lat="48.400618" lon="2.662274"><ele></ele><time>2020-1-11T6:58:40Z</time></trkpt>
<trkpt lat="48.400653" lon="2.66213"><ele></ele><time>2020-1-11T6:58:43Z</time></trkpt>
<trkpt lat="48.400686" lon="2.661979"><ele></ele><time>2020-1-11T6:58:46Z</time></trkpt>
<trkpt lat="48.400723" lon="2.661852"><ele></ele><time>2020-1-11T6:58:49Z</time></trkpt>
<trkpt lat="48.400732" lon="2.661691"><ele></ele><time>2020-1-11T6:58:52Z</time></trkpt>
<trkpt lat="48.400747" lon="2.661557"><ele></ele><time>2020-1-11T6:58:55Z</time></trkpt>
<trkpt lat="48.400766" lon="2.661396"><ele></ele><time>2020-1-11T6:58:58Z</time></trkpt>
<trkpt lat="48.400779" lon="2.661232"><ele></ele><time>2020-1-11T6:59:1Z</time></trkpt>
<trkpt lat="48.400837" lon="2.661073"><ele></ele><time>2020-1-11T6:59:4Z</time></trkpt>
<trkpt lat="48.400861" lon="2.660926"><ele></ele><time>2020-1-11T6:59:7Z</time></trkpt>
<trkpt lat="48.400883" lon="2.660789"><ele></ele><time>2020-1-11T6:59:10Z</time></trkpt>
<trkpt lat="48.400928" lon="2.660623"><ele></ele><time>2020-1-11T6:59:13Z</time></trkpt>
<trkpt lat="48.400973" lon="2.660501"><ele></ele><time>2020-1-11T6:59:16Z</time></trkpt>
<trkpt lat="48.401016" lon="2.660369"><ele></ele><time>2020-1-11T6:59:19Z</time></trkpt>
<trkpt lat="48.401083" lon="2.660265"><ele></ele><time>2020-1-11T6:59:22Z</time></trkpt>
<trkpt lat="48.401184" lon="2.660198"><ele></ele><time>2020-1-11T6:59:25Z</time></trkpt>
<trkpt lat="48.401284" lon="2.660206"><ele></ele><time>2020-1-11T6:59:28Z</time></trkpt>
<trkpt lat="48.401369" lon="2.660253"><ele></ele><time>2020-1-11T6:59:31Z</time></trkpt>
<trkpt lat="48.401489" lon="2.660251"><ele></ele><time>2020-1-11T6:59:34Z</time></trkpt>
<trkpt lat="48.401585" lon="2.660247"><ele></ele><time>2020-1-11T6:59:37Z</time></trkpt>
<trkpt lat="48.401676" lon="2.660228"><ele></ele><time>2020-1-11T6:59:40Z</time></trkpt>
<trkpt lat="48.401776" lon="2.660258"><ele></ele><time>2020-1-11T6:59:43Z</time></trkpt>
<trkpt lat="48.401881" lon="2.660271"><ele></ele><time>2020-1-11T6:59:46Z</time></trkpt>
<trkpt lat="48.401988" lon="2.660278"><ele></ele><time>2020-1-11T6:59:49Z</time></trkpt>
<trkpt lat="48.402088" lon="2.660303"><ele></ele><time>2020-1-11T6:59:52Z</time></trkpt>
<trkpt lat="48.402197" lon="2.660336"><ele></ele><time>2020-1-11T6:59:55Z</time></trkpt>
<trkpt lat="48.402305" lon="2.660354"><ele></ele><time>2020-1-11T6:59:58Z</time></trkpt>
<trkpt lat="48.402414" lon="2.660366"><ele></ele><time>2020-1-11T7:0:1Z</time></trkpt>
<trkpt lat="48.402522" lon="2.66038"><ele></ele><time>2020-1-11T7:0:4Z</time></trkpt>
<trkpt lat="48.402635" lon="2.660367"><ele></ele><time>2020-1-11T7:0:7Z</time></trkpt>
<trkpt lat="48.402746" lon="2.660376"><ele></ele><time>2020-1-11T7:0:10Z</time></trkpt>
<trkpt lat="48.402841" lon="2.660411"><ele></ele><time>2020-1-11T7:0:13Z</time></trkpt>
<trkpt lat="48.402949" lon="2.660442"><ele></ele><time>2020-1-11T7:0:16Z</time></trkpt>
<trkpt lat="48.403045" lon="2.660448"><ele></ele><time>2020-1-11T7:0:19Z</time></trkpt>
<trkpt lat="48.40315" lon="2.660489"><ele></ele><time>2020-1-11T7:0:22Z</time></trkpt>
<trkpt lat="48.403247" lon="2.660526"><ele></ele><time>2020-1-11T7:0:25Z</time></trkpt>
<trkpt lat="48.403343" lon="2.660543"><ele></ele><time>2020-1-11T7:0:28Z</time></trkpt>
<trkpt lat="48.403441" lon="2.660549"><ele></ele><time>2020-1-11T7:0:31Z</time></trkpt>
<trkpt lat="48.403541" lon="2.660551"><ele></ele><time>2020-1-11T7:0:34Z</time></trkpt>
<trkpt lat="48.40364" lon="2.660552"><ele></ele><time>2020-1-11T7:0:37Z</time></trkpt>
<trkpt lat="48.403731" lon="2.66056"><ele></ele><time>2020-1-11T7:0:40Z</time></trkpt>
<trkpt lat="48.40382" lon="2.66061"><ele></ele><time>2020-1-11T7:0:43Z</time></trkpt>
<trkpt lat="48.40391" lon="2.66059"><ele></ele><time>2020-1-11T7:0:46Z</time></trkpt>
<trkpt lat="48.404012" lon="2.660566"><ele></ele><time>2020-1-11T7:0:49Z</time></trkpt>
<trkpt lat="48.404107" lon="2.660566"><ele></ele><time>2020-1-11T7:0:52Z</time></trkpt>
<trkpt lat="48.404193" lon="2.660525"><ele></ele><time>2020-1-11T7:0:55Z</time></trkpt>
<trkpt lat="48.404249" lon="2.660417"><ele></ele><time>2020-1-11T7:0:58Z</time></trkpt>
<trkpt lat="48.404331" lon="2.660352"><ele></ele><time>2020-1-11T7:1:1Z</time></trkpt>
<trkpt lat="48.404417" lon="2.660281"><ele></ele><time>2020-1-11T7:1:4Z</time></trkpt>
<trkpt lat="48.404465" lon="2.660157"><ele></ele><time>2020-1-11T7:1:7Z</time></trkpt>
<trkpt lat="48.404505" lon="2.660028"><ele></ele><time>2020-1-11T7:1:10Z</time></trkpt>
<trkpt lat="48.404505" lon="2.659879"><ele></ele><time>2020-1-11T7:1:13Z</time></trkpt>
<trkpt lat="48.404495" lon="2.659737"><ele></ele><time>2020-1-11T7:1:16Z</time></trkpt>
<trkpt lat="48.404455" lon="2.659612"><ele></ele><time>2020-1-11T7:1:19Z</time></trkpt>
<trkpt lat="48.404394" lon="2.659512"><ele></ele><time>2020-1-11T7:1:22Z</time></trkpt>
<trkpt lat="48.404328" lon="2.659383"><ele></ele><time>2020-1-11T7:1:25Z</time></trkpt>
<trkpt lat="48.404372" lon="2.659254"><ele></ele><time>2020-1-11T7:1:28Z</time></trkpt>
<trkpt lat="48.40439" lon="2.659111"><ele></ele><time>2020-1-11T7:1:31Z</time></trkpt>
<trkpt lat="48.404318" lon="2.659023"><ele></ele><time>2020-1-11T7:1:34Z</time></trkpt>
<trkpt lat="48.404406" lon="2.659052"><ele></ele><time>2020-1-11T7:1:37Z</time></trkpt>
<trkpt lat="48.404431" lon="2.658905"><ele></ele><time>2020-1-11T7:1:40Z</time></trkpt>
<trkpt lat="48.404414" lon="2.658736"><ele></ele><time>2020-1-11T7:1:43Z</time></trkpt>
<trkpt lat="48.404433" lon="2.658573"><ele></ele><time>2020-1-11T7:1:46Z</time></trkpt>
<trkpt lat="48.404517" lon="2.65847"><ele></ele><time>2020-1-11T7:1:49Z</time></trkpt>
<trkpt lat="48.404564" lon="2.658352"><ele></ele><time>2020-1-11T7:1:52Z</time></trkpt>
<trkpt lat="48.404618" lon="2.658231"><ele></ele><time>2020-1-11T7:1:55Z</time></trkpt>
<trkpt lat="48.404534" lon="2.658154"><ele></ele><time>2020-1-11T7:1:58Z</time></trkpt>
<trkpt lat="48.404499" lon="2.658024"><ele></ele><time>2020-1-11T7:2:1Z</time></trkpt>
<trkpt lat="48.404546" lon="2.657896"><ele></ele><time>2020-1-11T7:2:4Z</time></trkpt>
<trkpt lat="48.404652" lon="2.657852"><ele></ele><time>2020-1-11T7:2:7Z</time></trkpt>
<trkpt lat="48.404744" lon="2.657777"><ele></ele><time>2020-1-11T7:2:10Z</time></trkpt>
<trkpt lat="48.404783" lon="2.657644"><ele></ele><time>2020-1-11T7:2:13Z</time></trkpt>
<trkpt lat="48.404743" lon="2.657518"><ele></ele><time>2020-1-11T7:2:16Z</time></trkpt>
<trkpt lat="48.40484" lon="2.657519"><ele></ele><time>2020-1-11T7:2:19Z</time></trkpt>
<trkpt lat="48.404899" lon="2.6574"><ele></ele><time>2020-1-11T7:2:22Z</time></trkpt>
<trkpt lat="48.404885" lon="2.657263"><ele></ele><time>2020-1-11T7:2:25Z</time></trkpt>
<trkpt lat="48.40489" lon="2.657128"><ele></ele><time>2020-1-11T7:2:28Z</time></trkpt>
<trkpt lat="48.404893" lon="2.656985"><ele></ele><time>2020-1-11T7:2:31Z</time></trkpt>
<trkpt lat="48.404868" lon="2.656842"><ele></ele><time>2020-1-11T7:2:34Z</time></trkpt>
<trkpt lat="48.404822" lon="2.656711"><ele></ele><time>2020-1-11T7:2:37Z</time></trkpt>
<trkpt lat="48.404752" lon="2.656622"><ele></ele><time>2020-1-11T7:2:40Z</time></trkpt>
<trkpt lat="48.40466" lon="2.656527"><ele></ele><time>2020-1-11T7:2:43Z</time></trkpt>
<trkpt lat="48.404576" lon="2.656468"><ele></ele><time>2020-1-11T7:2:46Z</time></trkpt>
<trkpt lat="48.404537" lon="2.656335"><ele></ele><time>2020-1-11T7:2:49Z</time></trkpt>
<trkpt lat="48.404493" lon="2.656209"><ele></ele><time>2020-1-11T7:2:52Z</time></trkpt>
<trkpt lat="48.404401" lon="2.656109"><ele></ele><time>2020-1-11T7:2:55Z</time></trkpt>
<trkpt lat="48.404333" lon="2.656008"><ele></ele><time>2020-1-11T7:2:58Z</time></trkpt>
<trkpt lat="48.4043" lon="2.655875"><ele></ele><time>2020-1-11T7:3:1Z</time></trkpt>
<trkpt lat="48.404267" lon="2.655723"><ele></ele><time>2020-1-11T7:3:4Z</time></trkpt>
<trkpt lat="48.404211" lon="2.655595"><ele></ele><time>2020-1-11T7:3:7Z</time></trkpt>
<trkpt lat="48.404156" lon="2.65546"><ele></ele><time>2020-1-11T7:3:10Z</time></trkpt>
<trkpt lat="48.404118" lon="2.65532"><ele></ele><time>2020-1-11T7:3:13Z</time></trkpt>
<trkpt lat="48.40402" lon="2.655322"><ele></ele><time>2020-1-11T7:3:16Z</time></trkpt>
<trkpt lat="48.404029" lon="2.655179"><ele></ele><time>2020-1-11T7:3:19Z</time></trkpt>
<trkpt lat="48.404096" lon="2.655076"><ele></ele><time>2020-1-11T7:3:22Z</time></trkpt>
<trkpt lat="48.404169" lon="2.654983"><ele></ele><time>2020-1-11T7:3:25Z</time></trkpt>
<trkpt lat="48.404235" lon="2.654878"><ele></ele><time>2020-1-11T7:3:28Z</time></trkpt>
<trkpt lat="48.404309" lon="2.654776"><ele></ele><time>2020-1-11T7:3:31Z</time></trkpt>
<trkpt lat="48.404371" lon="2.654654"><ele></ele><time>2020-1-11T7:3:34Z</time></trkpt>
<trkpt lat="48.404436" lon="2.654543"><ele></ele><time>2020-1-11T7:3:37Z</time></trkpt>
<trkpt lat="48.404519" lon="2.654468"><ele></ele><time>2020-1-11T7:3:40Z</time></trkpt>
<trkpt lat="48.40461" lon="2.65448"><ele></ele><time>2020-1-11T7:3:43Z</time></trkpt>
<trkpt lat="48.404597" lon="2.654617"><ele></ele><time>2020-1-11T7:3:46Z</time></trkpt>
<trkpt lat="48.40469" lon="2.654588"><ele></ele><time>2020-1-11T7:3:49Z</time></trkpt>
<trkpt lat="48.404774" lon="2.654539"><ele></ele><time>2020-1-11T7:3:52Z</time></trkpt>
<trkpt lat="48.404851" lon="2.654613"><ele></ele><time>2020-1-11T7:3:55Z</time></trkpt>
<trkpt lat="48.404953" lon="2.654596"><ele></ele><time>2020-1-11T7:3:58Z</time></trkpt>
<trkpt lat="48.405052" lon="2.654561"><ele></ele><time>2020-1-11T7:4:1Z</time></trkpt>
<trkpt lat="48.405145" lon="2.654548"><ele></ele><time>2020-1-11T7:4:4Z</time></trkpt>
<trkpt lat="48.405231" lon="2.6545"><ele></ele><time>2020-1-11T7:4:7Z</time></trkpt>
<trkpt lat="48.405333" lon="2.654495"><ele></ele><time>2020-1-11T7:4:10Z</time></trkpt>
<trkpt lat="48.40543" lon="2.654471"><ele></ele><time>2020-1-11T7:4:13Z</time></trkpt>
<trkpt lat="48.405532" lon="2.654455"><ele></ele><time>2020-1-11T7:4:16Z</time></trkpt>
<trkpt lat="48.405627" lon="2.654494"><ele></ele><time>2020-1-11T7:4:19Z</time></trkpt>
<trkpt lat="48.405698" lon="2.654405"><ele></ele><time>2020-1-11T7:4:22Z</time></trkpt>
<trkpt lat="48.40579" lon="2.654403"><ele></ele><time>2020-1-11T7:4:25Z</time></trkpt>
<trkpt lat="48.405864" lon="2.654325"><ele></ele><time>2020-1-11T7:4:28Z</time></trkpt>
<trkpt lat="48.405915" lon="2.654199"><ele></ele><time>2020-1-11T7:4:31Z</time></trkpt>
<trkpt lat="48.405895" lon="2.654056"><ele></ele><time>2020-1-11T7:4:34Z</time></trkpt>
<trkpt lat="48.405892" lon="2.653903"><ele></ele><time>2020-1-11T7:4:37Z</time></trkpt>
<trkpt lat="48.40587" lon="2.653753"><ele></ele><time>2020-1-11T7:4:40Z</time></trkpt>
<trkpt lat="48.405834" lon="2.65362"><ele></ele><time>2020-1-11T7:4:43Z</time></trkpt>
<trkpt lat="48.405814" lon="2.653483"><ele></ele><time>2020-1-11T7:4:46Z</time></trkpt>
<trkpt lat="48.405805" lon="2.653348"><ele></ele><time>2020-1-11T7:4:49Z</time></trkpt>
<trkpt lat="48.405776" lon="2.653213"><ele></ele><time>2020-1-11T7:4:52Z</time></trkpt>
<trkpt lat="48.405707" lon="2.653123"><ele></ele><time>2020-1-11T7:4:55Z</time></trkpt>
<trkpt lat="48.40564" lon="2.653033"><ele></ele><time>2020-1-11T7:4:58Z</time></trkpt>
<trkpt lat="48.405592" lon="2.652906"><ele></ele><time>2020-1-11T7:5:1Z</time></trkpt>
<trkpt lat="48.405633" lon="2.652784"><ele></ele><time>2020-1-11T7:5:4Z</time></trkpt>
<trkpt lat="48.405581" lon="2.652673"><ele></ele><time>2020-1-11T7:5:7Z</time></trkpt>
<trkpt lat="48.40553" lon="2.65256"><ele></ele><time>2020-1-11T7:5:10Z</time></trkpt>
<trkpt lat="48.405504" lon="2.652427"><ele></ele><time>2020-1-11T7:5:13Z</time></trkpt>
<trkpt lat="48.405521" lon="2.652279"><ele></ele><time>2020-1-11T7:5:16Z</time></trkpt>
<trkpt lat="48.405577" lon="2.652173"><ele></ele><time>2020-1-11T7:5:19Z</time></trkpt>
<trkpt lat="48.40557" lon="2.652029"><ele></ele><time>2020-1-11T7:5:22Z</time></trkpt>
<trkpt lat="48.40549" lon="2.651942"><ele></ele><time>2020-1-11T7:5:25Z</time></trkpt>
<trkpt lat="48.405472" lon="2.6518"><ele></ele><time>2020-1-11T7:5:28Z</time></trkpt>
<trkpt lat="48.405432" lon="2.651676"><ele></ele><time>2020-1-11T7:5:31Z</time></trkpt>
<trkpt lat="48.40537" lon="2.651536"><ele></ele><time>2020-1-11T7:5:34Z</time></trkpt>
<trkpt lat="48.405345" lon="2.6514"><ele></ele><time>2020-1-11T7:5:37Z</time></trkpt>
<trkpt lat="48.405386" lon="2.651268"><ele></ele><time>2020-1-11T7:5:40Z</time></trkpt>
<trkpt lat="48.405452" lon="2.651151"><ele></ele><time>2020-1-11T7:5:43Z</time></trkpt>
<trkpt lat="48.405423" lon="2.651008"><ele></ele><time>2020-1-11T7:5:46Z</time></trkpt>
<trkpt lat="48.405402" lon="2.650841"><ele></ele><time>2020-1-11T7:5:49Z</time></trkpt>
<trkpt lat="48.405389" lon="2.650704"><ele></ele><time>2020-1-11T7:5:52Z</time></trkpt>
<trkpt lat="48.40539" lon="2.650556"><ele></ele><time>2020-1-11T7:5:55Z</time></trkpt>
<trkpt lat="48.405392" lon="2.650414"><ele></ele><time>2020-1-11T7:5:58Z</time></trkpt>
<trkpt lat="48.405422" lon="2.650263"><ele></ele><time>2020-1-11T7:6:1Z</time></trkpt>
<trkpt lat="48.40543" lon="2.6501"><ele></ele><time>2020-1-11T7:6:4Z</time></trkpt>
<trkpt lat="48.405455" lon="2.649951"><ele></ele><time>2020-1-11T7:6:7Z</time></trkpt>
<trkpt lat="48.405549" lon="2.649919"><ele></ele><time>2020-1-11T7:6:10Z</time></trkpt>
<trkpt lat="48.405637" lon="2.649953"><ele></ele><time>2020-1-11T7:6:13Z</time></trkpt>
<trkpt lat="48.405733" lon="2.65001"><ele></ele><time>2020-1-11T7:6:16Z</time></trkpt>
<trkpt lat="48.405822" lon="2.650077"><ele></ele><time>2020-1-11T7:6:19Z</time></trkpt>
<trkpt lat="48.405888" lon="2.650189"><ele></ele><time>2020-1-11T7:6:22Z</time></trkpt>
<trkpt lat="48.405949" lon="2.650306"><ele></ele><time>2020-1-11T7:6:25Z</time></trkpt>
<trkpt lat="48.405997" lon="2.650441"><ele></ele><time>2020-1-11T7:6:28Z</time></trkpt>
<trkpt lat="48.406046" lon="2.65056"><ele></ele><time>2020-1-11T7:6:31Z</time></trkpt>
<trkpt lat="48.406092" lon="2.650698"><ele></ele><time>2020-1-11T7:6:34Z</time></trkpt>
<trkpt lat="48.406156" lon="2.650819"><ele></ele><time>2020-1-11T7:6:37Z</time></trkpt>
<trkpt lat="48.406204" lon="2.650959"><ele></ele><time>2020-1-11T7:6:40Z</time></trkpt>
<trkpt lat="48.406244" lon="2.651084"><ele></ele><time>2020-1-11T7:6:43Z</time></trkpt>
<trkpt lat="48.406293" lon="2.651205"><ele></ele><time>2020-1-11T7:6:46Z</time></trkpt>
<trkpt lat="48.406338" lon="2.651343"><ele></ele><time>2020-1-11T7:6:49Z</time></trkpt>
<trkpt lat="48.406405" lon="2.65145"><ele></ele><time>2020-1-11T7:6:52Z</time></trkpt>
<trkpt lat="48.406472" lon="2.651549"><ele></ele><time>2020-1-11T7:6:55Z</time></trkpt>
<trkpt lat="48.406523" lon="2.65166"><ele></ele><time>2020-1-11T7:6:58Z</time></trkpt>
<trkpt lat="48.406561" lon="2.651786"><ele></ele><time>2020-1-11T7:7:1Z</time></trkpt>
<trkpt lat="48.406572" lon="2.651928"><ele></ele><time>2020-1-11T7:7:4Z</time></trkpt>
<trkpt lat="48.406607" lon="2.652053"><ele></ele><time>2020-1-11T7:7:7Z</time></trkpt>
<trkpt lat="48.406658" lon="2.652166"><ele></ele><time>2020-1-11T7:7:10Z</time></trkpt>
<trkpt lat="48.406676" lon="2.652304"><ele></ele><time>2020-1-11T7:7:13Z</time></trkpt>
<trkpt lat="48.4067" lon="2.652434"><ele></ele><time>2020-1-11T7:7:16Z</time></trkpt>
<trkpt lat="48.406687" lon="2.652585"><ele></ele><time>2020-1-11T7:7:19Z</time></trkpt>
<trkpt lat="48.406656" lon="2.652733"><ele></ele><time>2020-1-11T7:7:22Z</time></trkpt>
<trkpt lat="48.406626" lon="2.652885"><ele></ele><time>2020-1-11T7:7:25Z</time></trkpt>
<trkpt lat="48.406619" lon="2.653039"><ele></ele><time>2020-1-11T7:7:28Z</time></trkpt>
<trkpt lat="48.406659" lon="2.653178"><ele></ele><time>2020-1-11T7:7:31Z</time></trkpt>
<trkpt lat="48.406668" lon="2.653336"><ele></ele><time>2020-1-11T7:7:34Z</time></trkpt>
<trkpt lat="48.406677" lon="2.653509"><ele></ele><time>2020-1-11T7:7:37Z</time></trkpt>
<trkpt lat="48.406688" lon="2.653652"><ele></ele><time>2020-1-11T7:7:40Z</time></trkpt>
<trkpt lat="48.406762" lon="2.653739"><ele></ele><time>2020-1-11T7:7:43Z</time></trkpt>
<trkpt lat="48.406846" lon="2.653805"><ele></ele><time>2020-1-11T7:7:46Z</time></trkpt>
<trkpt lat="48.406934" lon="2.653858"><ele></ele><time>2020-1-11T7:7:49Z</time></trkpt>
<trkpt lat="48.407038" lon="2.653897"><ele></ele><time>2020-1-11T7:7:52Z</time></trkpt>
<trkpt lat="48.407116" lon="2.653967"><ele></ele><time>2020-1-11T7:7:55Z</time></trkpt>
<trkpt lat="48.407207" lon="2.653983"><ele></ele><time>2020-1-11T7:7:58Z</time></trkpt>
<trkpt lat="48.407293" lon="2.65404"><ele></ele><time>2020-1-11T7:8:1Z</time></trkpt>
<trkpt lat="48.407382" lon="2.654056"><ele></ele><time>2020-1-11T7:8:4Z</time></trkpt>
<trkpt lat="48.407465" lon="2.654111"><ele></ele><time>2020-1-11T7:8:7Z</time></trkpt>
<trkpt lat="48.407497" lon="2.654243"><ele></ele><time>2020-1-11T7:8:10Z</time></trkpt>
<trkpt lat="48.407574" lon="2.654314"><ele></ele><time>2020-1-11T7:8:13Z</time></trkpt>
<trkpt lat="48.407636" lon="2.654414"><ele></ele><time>2020-1-11T7:8:16Z</time></trkpt>
<trkpt lat="48.407721" lon="2.654467"><ele></ele><time>2020-1-11T7:8:19Z</time></trkpt>
<trkpt lat="48.407815" lon="2.65449"><ele></ele><time>2020-1-11T7:8:22Z</time></trkpt>
<trkpt lat="48.407918" lon="2.65454"><ele></ele><time>2020-1-11T7:8:25Z</time></trkpt>
<trkpt lat="48.408006" lon="2.654582"><ele></ele><time>2020-1-11T7:8:28Z</time></trkpt>
<trkpt lat="48.408096" lon="2.654651"><ele></ele><time>2020-1-11T7:8:31Z</time></trkpt>
<trkpt lat="48.408201" lon="2.654701"><ele></ele><time>2020-1-11T7:8:34Z</time></trkpt>
<trkpt lat="48.408295" lon="2.654738"><ele></ele><time>2020-1-11T7:8:37Z</time></trkpt>
<trkpt lat="48.408405" lon="2.654764"><ele></ele><time>2020-1-11T7:8:40Z</time></trkpt>
<trkpt lat="48.408504" lon="2.654773"><ele></ele><time>2020-1-11T7:8:43Z</time></trkpt>
<trkpt lat="48.408607" lon="2.654812"><ele></ele><time>2020-1-11T7:8:46Z</time></trkpt>
<trkpt lat="48.40872" lon="2.654887"><ele></ele><time>2020-1-11T7:8:49Z</time></trkpt>
<trkpt lat="48.408814" lon="2.654939"><ele></ele><time>2020-1-11T7:8:52Z</time></trkpt>
<trkpt lat="48.408923" lon="2.654991"><ele></ele><time>2020-1-11T7:8:55Z</time></trkpt>
<trkpt lat="48.40904" lon="2.655025"><ele></ele><time>2020-1-11T7:8:58Z</time></trkpt>
<trkpt lat="48.409137" lon="2.655063"><ele></ele><time>2020-1-11T7:9:1Z</time></trkpt>
<trkpt lat="48.409242" lon="2.655114"><ele></ele><time>2020-1-11T7:9:4Z</time></trkpt>
<trkpt lat="48.409332" lon="2.655144"><ele></ele><time>2020-1-11T7:9:7Z</time></trkpt>
<trkpt lat="48.409447" lon="2.655194"><ele></ele><time>2020-1-11T7:9:10Z</time></trkpt>
<trkpt lat="48.409554" lon="2.655251"><ele></ele><time>2020-1-11T7:9:13Z</time></trkpt>
<trkpt lat="48.409663" lon="2.655307"><ele></ele><time>2020-1-11T7:9:16Z</time></trkpt>
<trkpt lat="48.409776" lon="2.655359"><ele></ele><time>2020-1-11T7:9:19Z</time></trkpt>
<trkpt lat="48.409901" lon="2.655397"><ele></ele><time>2020-1-11T7:9:22Z</time></trkpt>
<trkpt lat="48.410012" lon="2.655438"><ele></ele><time>2020-1-11T7:9:25Z</time></trkpt>
<trkpt lat="48.410121" lon="2.655479"><ele></ele><time>2020-1-11T7:9:28Z</time></trkpt>
<trkpt lat="48.410246" lon="2.655514"><ele></ele><time>2020-1-11T7:9:31Z</time></trkpt>
<trkpt lat="48.410379" lon="2.655548"><ele></ele><time>2020-1-11T7:9:34Z</time></trkpt>
<trkpt lat="48.410505" lon="2.655579"><ele></ele><time>2020-1-11T7:9:37Z</time></trkpt>
<trkpt lat="48.410626" lon="2.65561"><ele></ele><time>2020-1-11T7:9:40Z</time></trkpt>
<trkpt lat="48.410714" lon="2.65564"><ele></ele><time>2020-1-11T7:9:43Z</time></trkpt>
<trkpt lat="48.410876" lon="2.655714"><ele></ele><time>2020-1-11T7:9:46Z</time></trkpt>
<trkpt lat="48.410988" lon="2.655776"><ele></ele><time>2020-1-11T7:9:49Z</time></trkpt>
<trkpt lat="48.411097" lon="2.65581"><ele></ele><time>2020-1-11T7:9:52Z</time></trkpt>
<trkpt lat="48.411203" lon="2.655875"><ele></ele><time>2020-1-11T7:9:55Z</time></trkpt>
<trkpt lat="48.411304" lon="2.655915"><ele></ele><time>2020-1-11T7:9:58Z</time></trkpt>
<trkpt lat="48.411396" lon="2.655951"><ele></ele><time>2020-1-11T7:10:1Z</time></trkpt>
<trkpt lat="48.41149" lon="2.656022"><ele></ele><time>2020-1-11T7:10:4Z</time></trkpt>
<trkpt lat="48.411566" lon="2.656118"><ele></ele><time>2020-1-11T7:10:7Z</time></trkpt>
<trkpt lat="48.411637" lon="2.656246"><ele></ele><time>2020-1-11T7:10:10Z</time></trkpt>
<trkpt lat="48.411683" lon="2.656379"><ele></ele><time>2020-1-11T7:10:13Z</time></trkpt>
<trkpt lat="48.411783" lon="2.656476"><ele></ele><time>2020-1-11T7:10:16Z</time></trkpt>
<trkpt lat="48.41189" lon="2.656511"><ele></ele><time>2020-1-11T7:10:19Z</time></trkpt>
<trkpt lat="48.412007" lon="2.656561"><ele></ele><time>2020-1-11T7:10:22Z</time></trkpt>
<trkpt lat="48.412108" lon="2.656603"><ele></ele><time>2020-1-11T7:10:25Z</time></trkpt>
<trkpt lat="48.412191" lon="2.656667"><ele></ele><time>2020-1-11T7:10:28Z</time></trkpt>
<trkpt lat="48.412281" lon="2.656726"><ele></ele><time>2020-1-11T7:10:31Z</time></trkpt>
<trkpt lat="48.412391" lon="2.656768"><ele></ele><time>2020-1-11T7:10:34Z</time></trkpt>
<trkpt lat="48.412503" lon="2.656806"><ele></ele><time>2020-1-11T7:10:37Z</time></trkpt>
<trkpt lat="48.412618" lon="2.656839"><ele></ele><time>2020-1-11T7:10:40Z</time></trkpt>
<trkpt lat="48.412747" lon="2.656904"><ele></ele><time>2020-1-11T7:10:43Z</time></trkpt>
<trkpt lat="48.412839" lon="2.656971"><ele></ele><time>2020-1-11T7:10:46Z</time></trkpt>
<trkpt lat="48.412931" lon="2.65704"><ele></ele><time>2020-1-11T7:10:49Z</time></trkpt>
<trkpt lat="48.413029" lon="2.657109"><ele></ele><time>2020-1-11T7:10:52Z</time></trkpt>
<trkpt lat="48.413136" lon="2.657161"><ele></ele><time>2020-1-11T7:10:55Z</time></trkpt>
<trkpt lat="48.413246" lon="2.657228"><ele></ele><time>2020-1-11T7:10:58Z</time></trkpt>
<trkpt lat="48.413356" lon="2.657282"><ele></ele><time>2020-1-11T7:11:1Z</time></trkpt>
<trkpt lat="48.413458" lon="2.657332"><ele></ele><time>2020-1-11T7:11:4Z</time></trkpt>
<trkpt lat="48.413552" lon="2.657385"><ele></ele><time>2020-1-11T7:11:7Z</time></trkpt>
<trkpt lat="48.41367" lon="2.65745"><ele></ele><time>2020-1-11T7:11:10Z</time></trkpt>
<trkpt lat="48.413788" lon="2.657485"><ele></ele><time>2020-1-11T7:11:13Z</time></trkpt>
<trkpt lat="48.413886" lon="2.657502"><ele></ele><time>2020-1-11T7:11:16Z</time></trkpt>
<trkpt lat="48.413992" lon="2.657529"><ele></ele><time>2020-1-11T7:11:19Z</time></trkpt>
<trkpt lat="48.414089" lon="2.657559"><ele></ele><time>2020-1-11T7:11:22Z</time></trkpt>
<trkpt lat="48.414185" lon="2.657594"><ele></ele><time>2020-1-11T7:11:25Z</time></trkpt>
<trkpt lat="48.414308" lon="2.657637"><ele></ele><time>2020-1-11T7:11:28Z</time></trkpt>
<trkpt lat="48.414408" lon="2.657676"><ele></ele><time>2020-1-11T7:11:31Z</time></trkpt>
<trkpt lat="48.414501" lon="2.65772"><ele></ele><time>2020-1-11T7:11:34Z</time></trkpt>
<trkpt lat="48.414607" lon="2.657788"><ele></ele><time>2020-1-11T7:11:37Z</time></trkpt>
<trkpt lat="48.414725" lon="2.657843"><ele></ele><time>2020-1-11T7:11:40Z</time></trkpt>
<trkpt lat="48.414819" lon="2.657894"><ele></ele><time>2020-1-11T7:11:43Z</time></trkpt>
<trkpt lat="48.414947" lon="2.657956"><ele></ele><time>2020-1-11T7:11:46Z</time></trkpt>
<trkpt lat="48.415068" lon="2.657997"><ele></ele><time>2020-1-11T7:11:49Z</time></trkpt>
<trkpt lat="48.415165" lon="2.658022"><ele></ele><time>2020-1-11T7:11:52Z</time></trkpt>
<trkpt lat="48.415275" lon="2.658045"><ele></ele><time>2020-1-11T7:11:55Z</time></trkpt>
<trkpt lat="48.415373" lon="2.658091"><ele></ele><time>2020-1-11T7:11:58Z</time></trkpt>
<trkpt lat="48.415488" lon="2.658157"><ele></ele><time>2020-1-11T7:12:1Z</time></trkpt>
<trkpt lat="48.415575" lon="2.658203"><ele></ele><time>2020-1-11T7:12:4Z</time></trkpt>
<trkpt lat="48.415702" lon="2.658253"><ele></ele><time>2020-1-11T7:12:7Z</time></trkpt>
<trkpt lat="48.415809" lon="2.658303"><ele></ele><time>2020-1-11T7:12:10Z</time></trkpt>
<trkpt lat="48.415901" lon="2.658337"><ele></ele><time>2020-1-11T7:12:13Z</time></trkpt>
<trkpt lat="48.416002" lon="2.658393"><ele></ele><time>2020-1-11T7:12:16Z</time></trkpt>
<trkpt lat="48.416119" lon="2.658446"><ele></ele><time>2020-1-11T7:12:19Z</time></trkpt>
<trkpt lat="48.416221" lon="2.658471"><ele></ele><time>2020-1-11T7:12:22Z</time></trkpt>
<trkpt lat="48.416326" lon="2.658526"><ele></ele><time>2020-1-11T7:12:25Z</time></trkpt>
<trkpt lat="48.416417" lon="2.658584"><ele></ele><time>2020-1-11T7:12:28Z</time></trkpt>
<trkpt lat="48.416545" lon="2.658614"><ele></ele><time>2020-1-11T7:12:31Z</time></trkpt>
<trkpt lat="48.416659" lon="2.658653"><ele></ele><time>2020-1-11T7:12:34Z</time></trkpt>
<trkpt lat="48.416782" lon="2.658721"><ele></ele><time>2020-1-11T7:12:37Z</time></trkpt>
<trkpt lat="48.416911" lon="2.658793"><ele></ele><time>2020-1-11T7:12:40Z</time></trkpt>
<trkpt lat="48.416997" lon="2.65887"><ele></ele><time>2020-1-11T7:12:43Z</time></trkpt>
<trkpt lat="48.417101" lon="2.658932"><ele></ele><time>2020-1-11T7:12:46Z</time></trkpt>
<trkpt lat="48.417197" lon="2.658973"><ele></ele><time>2020-1-11T7:12:49Z</time></trkpt>
<trkpt lat="48.417304" lon="2.659012"><ele></ele><time>2020-1-11T7:12:52Z</time></trkpt>
<trkpt lat="48.417396" lon="2.659017"><ele></ele><time>2020-1-11T7:12:55Z</time></trkpt>
<trkpt lat="48.41749" lon="2.659053"><ele></ele><time>2020-1-11T7:12:58Z</time></trkpt>
<trkpt lat="48.417576" lon="2.6591"><ele></ele><time>2020-1-11T7:13:1Z</time></trkpt>
<trkpt lat="48.417683" lon="2.65915"><ele></ele><time>2020-1-11T7:13:4Z</time></trkpt>
<trkpt lat="48.417786" lon="2.659216"><ele></ele><time>2020-1-11T7:13:7Z</time></trkpt>
<trkpt lat="48.417878" lon="2.659252"><ele></ele><time>2020-1-11T7:13:10Z</time></trkpt>
<trkpt lat="48.417975" lon="2.659286"><ele></ele><time>2020-1-11T7:13:13Z</time></trkpt>
<trkpt lat="48.418083" lon="2.659335"><ele></ele><time>2020-1-11T7:13:16Z</time></trkpt>
<trkpt lat="48.418173" lon="2.659374"><ele></ele><time>2020-1-11T7:13:19Z</time></trkpt>
<trkpt lat="48.418287" lon="2.659449"><ele></ele><time>2020-1-11T7:13:22Z</time></trkpt>
<trkpt lat="48.418398" lon="2.659509"><ele></ele><time>2020-1-11T7:13:25Z</time></trkpt>
<trkpt lat="48.418509" lon="2.659559"><ele></ele><time>2020-1-11T7:13:28Z</time></trkpt>
<trkpt lat="48.418618" lon="2.659621"><ele></ele><time>2020-1-11T7:13:31Z</time></trkpt>
<trkpt lat="48.418743" lon="2.659657"><ele></ele><time>2020-1-11T7:13:34Z</time></trkpt>
<trkpt lat="48.418854" lon="2.659704"><ele></ele><time>2020-1-11T7:13:37Z</time></trkpt>
<trkpt lat="48.418974" lon="2.659754"><ele></ele><time>2020-1-11T7:13:40Z</time></trkpt>
<trkpt lat="48.41908" lon="2.659812"><ele></ele><time>2020-1-11T7:13:43Z</time></trkpt>
<trkpt lat="48.419183" lon="2.659841"><ele></ele><time>2020-1-11T7:13:46Z</time></trkpt>
<trkpt lat="48.419294" lon="2.659903"><ele></ele><time>2020-1-11T7:13:49Z</time></trkpt>
<trkpt lat="48.419405" lon="2.659956"><ele></ele><time>2020-1-11T7:13:52Z</time></trkpt>
<trkpt lat="48.4195" lon="2.659996"><ele></ele><time>2020-1-11T7:13:55Z</time></trkpt>
<trkpt lat="48.419597" lon="2.660047"><ele></ele><time>2020-1-11T7:13:58Z</time></trkpt>
<trkpt lat="48.419707" lon="2.66009"><ele></ele><time>2020-1-11T7:14:1Z</time></trkpt>
<trkpt lat="48.41987" lon="2.660144"><ele></ele><time>2020-1-11T7:14:4Z</time></trkpt>
<trkpt lat="48.41999" lon="2.66018"><ele></ele><time>2020-1-11T7:14:7Z</time></trkpt>
<trkpt lat="48.420098" lon="2.660234"><ele></ele><time>2020-1-11T7:14:10Z</time></trkpt>
<trkpt lat="48.420191" lon="2.66031"><ele></ele><time>2020-1-11T7:14:13Z</time></trkpt>
<trkpt lat="48.420278" lon="2.660388"><ele></ele><time>2020-1-11T7:14:16Z</time></trkpt>
<trkpt lat="48.420396" lon="2.660442"><ele></ele><time>2020-1-11T7:14:19Z</time></trkpt>
<trkpt lat="48.420503" lon="2.660489"><ele></ele><time>2020-1-11T7:14:22Z</time></trkpt>
<trkpt lat="48.420598" lon="2.66053"><ele></ele><time>2020-1-11T7:14:25Z</time></trkpt>
<trkpt lat="48.420705" lon="2.660549"><ele></ele><time>2020-1-11T7:14:28Z</time></trkpt>
<trkpt lat="48.420822" lon="2.660574"><ele></ele><time>2020-1-11T7:14:31Z</time></trkpt>
<trkpt lat="48.420906" lon="2.660624"><ele></ele><time>2020-1-11T7:14:34Z</time></trkpt>
<trkpt lat="48.421023" lon="2.660653"><ele></ele><time>2020-1-11T7:14:37Z</time></trkpt>
<trkpt lat="48.421131" lon="2.660741"><ele></ele><time>2020-1-11T7:14:40Z</time></trkpt>
<trkpt lat="48.42124" lon="2.660788"><ele></ele><time>2020-1-11T7:14:43Z</time></trkpt>
<trkpt lat="48.42132" lon="2.660853"><ele></ele><time>2020-1-11T7:14:46Z</time></trkpt>
<trkpt lat="48.421421" lon="2.660922"><ele></ele><time>2020-1-11T7:14:49Z</time></trkpt>
<trkpt lat="48.421513" lon="2.66096"><ele></ele><time>2020-1-11T7:14:52Z</time></trkpt>
<trkpt lat="48.421624" lon="2.660994"><ele></ele><time>2020-1-11T7:14:55Z</time></trkpt>
<trkpt lat="48.421752" lon="2.661072"><ele></ele><time>2020-1-11T7:14:58Z</time></trkpt>
<trkpt lat="48.421898" lon="2.661129"><ele></ele><time>2020-1-11T7:15:1Z</time></trkpt>
<trkpt lat="48.421989" lon="2.661174"><ele></ele><time>2020-1-11T7:15:4Z</time></trkpt>
<trkpt lat="48.422114" lon="2.661213"><ele></ele><time>2020-1-11T7:15:7Z</time></trkpt>
<trkpt lat="48.422223" lon="2.661263"><ele></ele><time>2020-1-11T7:15:10Z</time></trkpt>
<trkpt lat="48.422344" lon="2.661316"><ele></ele><time>2020-1-11T7:15:13Z</time></trkpt>
<trkpt lat="48.422456" lon="2.66134"><ele></ele><time>2020-1-11T7:15:16Z</time></trkpt>
<trkpt lat="48.422578" lon="2.661402"><ele></ele><time>2020-1-11T7:15:19Z</time></trkpt>
<trkpt lat="48.422698" lon="2.661444"><ele></ele><time>2020-1-11T7:15:22Z</time></trkpt>
<trkpt lat="48.422799" lon="2.661506"><ele></ele><time>2020-1-11T7:15:25Z</time></trkpt>
<trkpt lat="48.422872" lon="2.661618"><ele></ele><time>2020-1-11T7:15:28Z</time></trkpt>
<trkpt lat="48.422964" lon="2.661668"><ele></ele><time>2020-1-11T7:15:31Z</time></trkpt>
<trkpt lat="48.423135" lon="2.66171"><ele></ele><time>2020-1-11T7:15:34Z</time></trkpt>
<trkpt lat="48.423294" lon="2.661716"><ele></ele><time>2020-1-11T7:15:37Z</time></trkpt>
<trkpt lat="48.423416" lon="2.661768"><ele></ele><time>2020-1-11T7:15:40Z</time></trkpt>
<trkpt lat="48.423536" lon="2.661836"><ele></ele><time>2020-1-11T7:15:43Z</time></trkpt>
<trkpt lat="48.423643" lon="2.661882"><ele></ele><time>2020-1-11T7:15:46Z</time></trkpt>
<trkpt lat="48.423757" lon="2.661934"><ele></ele><time>2020-1-11T7:15:49Z</time></trkpt>
<trkpt lat="48.423867" lon="2.661987"><ele></ele><time>2020-1-11T7:15:52Z</time></trkpt>
<trkpt lat="48.423953" lon="2.662038"><ele></ele><time>2020-1-11T7:15:55Z</time></trkpt>
<trkpt lat="48.424042" lon="2.662108"><ele></ele><time>2020-1-11T7:15:58Z</time></trkpt>
<trkpt lat="48.424156" lon="2.662173"><ele></ele><time>2020-1-11T7:16:1Z</time></trkpt>
<trkpt lat="48.424245" lon="2.662217"><ele></ele><time>2020-1-11T7:16:4Z</time></trkpt>
<trkpt lat="48.424342" lon="2.662245"><ele></ele><time>2020-1-11T7:16:7Z</time></trkpt>
<trkpt lat="48.424435" lon="2.662271"><ele></ele><time>2020-1-11T7:16:10Z</time></trkpt>
<trkpt lat="48.424538" lon="2.662307"><ele></ele><time>2020-1-11T7:16:13Z</time></trkpt>
<trkpt lat="48.424643" lon="2.662389"><ele></ele><time>2020-1-11T7:16:16Z</time></trkpt>
<trkpt lat="48.424826" lon="2.662463"><ele></ele><time>2020-1-11T7:16:19Z</time></trkpt>
<trkpt lat="48.424909" lon="2.662515"><ele></ele><time>2020-1-11T7:16:22Z</time></trkpt>
<trkpt lat="48.42501" lon="2.662561"><ele></ele><time>2020-1-11T7:16:25Z</time></trkpt>
<trkpt lat="48.425125" lon="2.662615"><ele></ele><time>2020-1-11T7:16:28Z</time></trkpt>
<trkpt lat="48.42522" lon="2.662623"><ele></ele><time>2020-1-11T7:16:31Z</time></trkpt>
<trkpt lat="48.425313" lon="2.662682"><ele></ele><time>2020-1-11T7:16:34Z</time></trkpt>
<trkpt lat="48.425409" lon="2.66271"><ele></ele><time>2020-1-11T7:16:37Z</time></trkpt>
<trkpt lat="48.425511" lon="2.662739"><ele></ele><time>2020-1-11T7:16:40Z</time></trkpt>
<trkpt lat="48.425649" lon="2.66279"><ele></ele><time>2020-1-11T7:16:43Z</time></trkpt>
<trkpt lat="48.425778" lon="2.662852"><ele></ele><time>2020-1-11T7:16:46Z</time></trkpt>
<trkpt lat="48.425884" lon="2.662926"><ele></ele><time>2020-1-11T7:16:49Z</time></trkpt>
<trkpt lat="48.425992" lon="2.663005"><ele></ele><time>2020-1-11T7:16:52Z</time></trkpt>
<trkpt lat="48.42608" lon="2.663061"><ele></ele><time>2020-1-11T7:16:55Z</time></trkpt>
<trkpt lat="48.426165" lon="2.663107"><ele></ele><time>2020-1-11T7:16:58Z</time></trkpt>
<trkpt lat="48.426262" lon="2.663166"><ele></ele><time>2020-1-11T7:17:1Z</time></trkpt>
<trkpt lat="48.426351" lon="2.663209"><ele></ele><time>2020-1-11T7:17:4Z</time></trkpt>
<trkpt lat="48.42646" lon="2.663276"><ele></ele><time>2020-1-11T7:17:7Z</time></trkpt>
<trkpt lat="48.426607" lon="2.663324"><ele></ele><time>2020-1-11T7:17:10Z</time></trkpt>
<trkpt lat="48.426706" lon="2.663346"><ele></ele><time>2020-1-11T7:17:13Z</time></trkpt>
<trkpt lat="48.426794" lon="2.663391"><ele></ele><time>2020-1-11T7:17:16Z</time></trkpt>
<trkpt lat="48.426892" lon="2.66343"><ele></ele><time>2020-1-11T7:17:19Z</time></trkpt>
<trkpt lat="48.426982" lon="2.663464"><ele></ele><time>2020-1-11T7:17:22Z</time></trkpt>
<trkpt lat="48.42717" lon="2.663534"><ele></ele><time>2020-1-11T7:17:25Z</time></trkpt>
<trkpt lat="48.427293" lon="2.663568"><ele></ele><time>2020-1-11T7:17:28Z</time></trkpt>
<trkpt lat="48.4274" lon="2.663613"><ele></ele><time>2020-1-11T7:17:31Z</time></trkpt>
<trkpt lat="48.4275" lon="2.663659"><ele></ele><time>2020-1-11T7:17:34Z</time></trkpt>
<trkpt lat="48.42758" lon="2.663769"><ele></ele><time>2020-1-11T7:17:37Z</time></trkpt>
<trkpt lat="48.427604" lon="2.663904"><ele></ele><time>2020-1-11T7:17:40Z</time></trkpt>
<trkpt lat="48.427609" lon="2.664077"><ele></ele><time>2020-1-11T7:17:43Z</time></trkpt>
<trkpt lat="48.427702" lon="2.66414"><ele></ele><time>2020-1-11T7:17:46Z</time></trkpt>
<trkpt lat="48.427812" lon="2.664212"><ele></ele><time>2020-1-11T7:17:49Z</time></trkpt>
<trkpt lat="48.427847" lon="2.664396"><ele></ele><time>2020-1-11T7:17:52Z</time></trkpt>
<trkpt lat="48.427881" lon="2.664569"><ele></ele><time>2020-1-11T7:17:55Z</time></trkpt>
<trkpt lat="48.427965" lon="2.664739"><ele></ele><time>2020-1-11T7:17:58Z</time></trkpt>
<trkpt lat="48.427992" lon="2.664927"><ele></ele><time>2020-1-11T7:18:1Z</time></trkpt>
<trkpt lat="48.428016" lon="2.665086"><ele></ele><time>2020-1-11T7:18:4Z</time></trkpt>
<trkpt lat="48.428038" lon="2.665271"><ele></ele><time>2020-1-11T7:18:7Z</time></trkpt>
<trkpt lat="48.428066" lon="2.665425"><ele></ele><time>2020-1-11T7:18:10Z</time></trkpt>
<trkpt lat="48.428079" lon="2.665584"><ele></ele><time>2020-1-11T7:18:13Z</time></trkpt>
<trkpt lat="48.428101" lon="2.665755"><ele></ele><time>2020-1-11T7:18:16Z</time></trkpt>
<trkpt lat="48.428124" lon="2.665935"><ele></ele><time>2020-1-11T7:18:19Z</time></trkpt>
<trkpt lat="48.428149" lon="2.666119"><ele></ele><time>2020-1-11T7:18:22Z</time></trkpt>
<trkpt lat="48.428174" lon="2.666304"><ele></ele><time>2020-1-11T7:18:25Z</time></trkpt>
<trkpt lat="48.428274" lon="2.666391"><ele></ele><time>2020-1-11T7:18:28Z</time></trkpt>
<trkpt lat="48.428384" lon="2.666322"><ele></ele><time>2020-1-11T7:18:31Z</time></trkpt>
<trkpt lat="48.428474" lon="2.66622"><ele></ele><time>2020-1-11T7:18:34Z</time></trkpt>
<trkpt lat="48.428573" lon="2.666135"><ele></ele><time>2020-1-11T7:18:37Z</time></trkpt>
<trkpt lat="48.428665" lon="2.666106"><ele></ele><time>2020-1-11T7:18:40Z</time></trkpt>
<trkpt lat="48.428779" lon="2.666062"><ele></ele><time>2020-1-11T7:18:43Z</time></trkpt>
<trkpt lat="48.428901" lon="2.665997"><ele></ele><time>2020-1-11T7:18:46Z</time></trkpt>
<trkpt lat="48.429" lon="2.665939"><ele></ele><time>2020-1-11T7:18:49Z</time></trkpt>
<trkpt lat="48.429105" lon="2.665894"><ele></ele><time>2020-1-11T7:18:52Z</time></trkpt>
<trkpt lat="48.429206" lon="2.665875"><ele></ele><time>2020-1-11T7:18:55Z</time></trkpt>
<trkpt lat="48.429315" lon="2.665826"><ele></ele><time>2020-1-11T7:18:58Z</time></trkpt>
<trkpt lat="48.429416" lon="2.665748"><ele></ele><time>2020-1-11T7:19:1Z</time></trkpt>
<trkpt lat="48.429511" lon="2.665673"><ele></ele><time>2020-1-11T7:19:4Z</time></trkpt>
<trkpt lat="48.429634" lon="2.665593"><ele></ele><time>2020-1-11T7:19:7Z</time></trkpt>
<trkpt lat="48.429747" lon="2.665534"><ele></ele><time>2020-1-11T7:19:10Z</time></trkpt>
<trkpt lat="48.429852" lon="2.665482"><ele></ele><time>2020-1-11T7:19:13Z</time></trkpt>
<trkpt lat="48.429966" lon="2.665413"><ele></ele><time>2020-1-11T7:19:16Z</time></trkpt>
<trkpt lat="48.430081" lon="2.665344"><ele></ele><time>2020-1-11T7:19:19Z</time></trkpt>
<trkpt lat="48.430178" lon="2.665286"><ele></ele><time>2020-1-11T7:19:22Z</time></trkpt>
<trkpt lat="48.430296" lon="2.665204"><ele></ele><time>2020-1-11T7:19:25Z</time></trkpt>
<trkpt lat="48.430406" lon="2.665095"><ele></ele><time>2020-1-11T7:19:28Z</time></trkpt>
<trkpt lat="48.430515" lon="2.665006"><ele></ele><time>2020-1-11T7:19:31Z</time></trkpt>
<trkpt lat="48.430648" lon="2.664977"><ele></ele><time>2020-1-11T7:19:34Z</time></trkpt>
<trkpt lat="48.43074" lon="2.665002"><ele></ele><time>2020-1-11T7:19:37Z</time></trkpt>
<trkpt lat="48.430833" lon="2.665036"><ele></ele><time>2020-1-11T7:19:40Z</time></trkpt>
<trkpt lat="48.430929" lon="2.665066"><ele></ele><time>2020-1-11T7:19:43Z</time></trkpt>
<trkpt lat="48.431036" lon="2.665098"><ele></ele><time>2020-1-11T7:19:46Z</time></trkpt>
<trkpt lat="48.431162" lon="2.665107"><ele></ele><time>2020-1-11T7:19:49Z</time></trkpt>
<trkpt lat="48.431281" lon="2.665127"><ele></ele><time>2020-1-11T7:19:52Z</time></trkpt>
<trkpt lat="48.4314" lon="2.665157"><ele></ele><time>2020-1-11T7:19:55Z</time></trkpt>
<trkpt lat="48.431526" lon="2.665198"><ele></ele><time>2020-1-11T7:19:58Z</time></trkpt>
<trkpt lat="48.431614" lon="2.665243"><ele></ele><time>2020-1-11T7:20:1Z</time></trkpt>
<trkpt lat="48.43174" lon="2.665269"><ele></ele><time>2020-1-11T7:20:4Z</time></trkpt>
<trkpt lat="48.431876" lon="2.665288"><ele></ele><time>2020-1-11T7:20:7Z</time></trkpt>
<trkpt lat="48.431969" lon="2.66531"><ele></ele><time>2020-1-11T7:20:10Z</time></trkpt>
<trkpt lat="48.432105" lon="2.665307"><ele></ele><time>2020-1-11T7:20:13Z</time></trkpt>
<trkpt lat="48.432207" lon="2.665361"><ele></ele><time>2020-1-11T7:20:16Z</time></trkpt>
<trkpt lat="48.432309" lon="2.665394"><ele></ele><time>2020-1-11T7:20:19Z</time></trkpt>
<trkpt lat="48.432424" lon="2.665418"><ele></ele><time>2020-1-11T7:20:22Z</time></trkpt>
<trkpt lat="48.432528" lon="2.665447"><ele></ele><time>2020-1-11T7:20:25Z</time></trkpt>
<trkpt lat="48.432621" lon="2.665473"><ele></ele><time>2020-1-11T7:20:28Z</time></trkpt>
<trkpt lat="48.43274" lon="2.665468"><ele></ele><time>2020-1-11T7:20:31Z</time></trkpt>
<trkpt lat="48.432833" lon="2.665493"><ele></ele><time>2020-1-11T7:20:34Z</time></trkpt>
<trkpt lat="48.432948" lon="2.665548"><ele></ele><time>2020-1-11T7:20:37Z</time></trkpt>
<trkpt lat="48.433047" lon="2.665564"><ele></ele><time>2020-1-11T7:20:40Z</time></trkpt>
<trkpt lat="48.433141" lon="2.665581"><ele></ele><time>2020-1-11T7:20:43Z</time></trkpt>
<trkpt lat="48.433263" lon="2.665574"><ele></ele><time>2020-1-11T7:20:46Z</time></trkpt>
<trkpt lat="48.433355" lon="2.665611"><ele></ele><time>2020-1-11T7:20:49Z</time></trkpt>
<trkpt lat="48.433456" lon="2.665618"><ele></ele><time>2020-1-11T7:20:52Z</time></trkpt>
<trkpt lat="48.433561" lon="2.665649"><ele></ele><time>2020-1-11T7:20:55Z</time></trkpt>
<trkpt lat="48.433667" lon="2.665688"><ele></ele><time>2020-1-11T7:20:58Z</time></trkpt>
<trkpt lat="48.433758" lon="2.665701"><ele></ele><time>2020-1-11T7:21:1Z</time></trkpt>
<trkpt lat="48.433865" lon="2.665726"><ele></ele><time>2020-1-11T7:21:4Z</time></trkpt>
<trkpt lat="48.43397" lon="2.665785"><ele></ele><time>2020-1-11T7:21:7Z</time></trkpt>
<trkpt lat="48.434084" lon="2.66584"><ele></ele><time>2020-1-11T7:21:10Z</time></trkpt>
<trkpt lat="48.434188" lon="2.665869"><ele></ele><time>2020-1-11T7:21:13Z</time></trkpt>
<trkpt lat="48.434295" lon="2.665906"><ele></ele><time>2020-1-11T7:21:16Z</time></trkpt>
<trkpt lat="48.43442" lon="2.665957"><ele></ele><time>2020-1-11T7:21:19Z</time></trkpt>
<trkpt lat="48.434561" lon="2.666019"><ele></ele><time>2020-1-11T7:21:22Z</time></trkpt>
<trkpt lat="48.434674" lon="2.666071"><ele></ele><time>2020-1-11T7:21:25Z</time></trkpt>
<trkpt lat="48.43479" lon="2.666113"><ele></ele><time>2020-1-11T7:21:28Z</time></trkpt>
<trkpt lat="48.434917" lon="2.666146"><ele></ele><time>2020-1-11T7:21:31Z</time></trkpt>
<trkpt lat="48.43515" lon="2.666214"><ele></ele><time>2020-1-11T7:21:34Z</time></trkpt>
<trkpt lat="48.435311" lon="2.666303"><ele></ele><time>2020-1-11T7:21:37Z</time></trkpt>
<trkpt lat="48.435401" lon="2.666292"><ele></ele><time>2020-1-11T7:21:40Z</time></trkpt>
<trkpt lat="48.435524" lon="2.666297"><ele></ele><time>2020-1-11T7:21:43Z</time></trkpt>
<trkpt lat="48.435619" lon="2.6663"><ele></ele><time>2020-1-11T7:21:46Z</time></trkpt>
<trkpt lat="48.435722" lon="2.666325"><ele></ele><time>2020-1-11T7:21:49Z</time></trkpt>
<trkpt lat="48.435856" lon="2.666332"><ele></ele><time>2020-1-11T7:21:52Z</time></trkpt>
<trkpt lat="48.435957" lon="2.666369"><ele></ele><time>2020-1-11T7:21:55Z</time></trkpt>
<trkpt lat="48.436066" lon="2.666391"><ele></ele><time>2020-1-11T7:21:58Z</time></trkpt>
<trkpt lat="48.436167" lon="2.666415"><ele></ele><time>2020-1-11T7:22:1Z</time></trkpt>
<trkpt lat="48.43628" lon="2.666451"><ele></ele><time>2020-1-11T7:22:4Z</time></trkpt>
<trkpt lat="48.436385" lon="2.666469"><ele></ele><time>2020-1-11T7:22:7Z</time></trkpt>
<trkpt lat="48.436485" lon="2.666482"><ele></ele><time>2020-1-11T7:22:10Z</time></trkpt>
<trkpt lat="48.436578" lon="2.666508"><ele></ele><time>2020-1-11T7:22:13Z</time></trkpt>
<trkpt lat="48.436695" lon="2.666534"><ele></ele><time>2020-1-11T7:22:16Z</time></trkpt>
<trkpt lat="48.436806" lon="2.666562"><ele></ele><time>2020-1-11T7:22:19Z</time></trkpt>
<trkpt lat="48.436903" lon="2.666594"><ele></ele><time>2020-1-11T7:22:22Z</time></trkpt>
<trkpt lat="48.437" lon="2.666606"><ele></ele><time>2020-1-11T7:22:25Z</time></trkpt>
<trkpt lat="48.437093" lon="2.666636"><ele></ele><time>2020-1-11T7:22:28Z</time></trkpt>
<trkpt lat="48.437207" lon="2.666662"><ele></ele><time>2020-1-11T7:22:31Z</time></trkpt>
<trkpt lat="48.437294" lon="2.666705"><ele></ele><time>2020-1-11T7:22:34Z</time></trkpt>
<trkpt lat="48.437403" lon="2.666745"><ele></ele><time>2020-1-11T7:22:37Z</time></trkpt>
<trkpt lat="48.437493" lon="2.666795"><ele></ele><time>2020-1-11T7:22:40Z</time></trkpt>
<trkpt lat="48.437581" lon="2.666835"><ele></ele><time>2020-1-11T7:22:43Z</time></trkpt>
<trkpt lat="48.437683" lon="2.666883"><ele></ele><time>2020-1-11T7:22:46Z</time></trkpt>
<trkpt lat="48.437866" lon="2.666961"><ele></ele><time>2020-1-11T7:22:49Z</time></trkpt>
<trkpt lat="48.438042" lon="2.667021"><ele></ele><time>2020-1-11T7:22:52Z</time></trkpt>
<trkpt lat="48.438129" lon="2.667073"><ele></ele><time>2020-1-11T7:22:55Z</time></trkpt>
<trkpt lat="48.438233" lon="2.667113"><ele></ele><time>2020-1-11T7:22:58Z</time></trkpt>
<trkpt lat="48.438333" lon="2.667159"><ele></ele><time>2020-1-11T7:23:1Z</time></trkpt>
<trkpt lat="48.438447" lon="2.66719"><ele></ele><time>2020-1-11T7:23:4Z</time></trkpt>
<trkpt lat="48.438542" lon="2.667233"><ele></ele><time>2020-1-11T7:23:7Z</time></trkpt>
<trkpt lat="48.438648" lon="2.667262"><ele></ele><time>2020-1-11T7:23:10Z</time></trkpt>
<trkpt lat="48.438841" lon="2.66733"><ele></ele><time>2020-1-11T7:23:13Z</time></trkpt>
<trkpt lat="48.439013" lon="2.667421"><ele></ele><time>2020-1-11T7:23:16Z</time></trkpt>
<trkpt lat="48.439169" lon="2.667504"><ele></ele><time>2020-1-11T7:23:19Z</time></trkpt>
<trkpt lat="48.439314" lon="2.667575"><ele></ele><time>2020-1-11T7:23:22Z</time></trkpt>
<trkpt lat="48.439447" lon="2.667651"><ele></ele><time>2020-1-11T7:23:25Z</time></trkpt>
<trkpt lat="48.439559" lon="2.667719"><ele></ele><time>2020-1-11T7:23:28Z</time></trkpt>
<trkpt lat="48.439674" lon="2.667801"><ele></ele><time>2020-1-11T7:23:31Z</time></trkpt>
<trkpt lat="48.439791" lon="2.667916"><ele></ele><time>2020-1-11T7:23:34Z</time></trkpt>
<trkpt lat="48.439913" lon="2.667983"><ele></ele><time>2020-1-11T7:23:37Z</time></trkpt>
<trkpt lat="48.440081" lon="2.668053"><ele></ele><time>2020-1-11T7:23:40Z</time></trkpt>
<trkpt lat="48.440176" lon="2.668103"><ele></ele><time>2020-1-11T7:23:43Z</time></trkpt>
<trkpt lat="48.440335" lon="2.668212"><ele></ele><time>2020-1-11T7:23:46Z</time></trkpt>
<trkpt lat="48.440475" lon="2.668299"><ele></ele><time>2020-1-11T7:23:49Z</time></trkpt>
<trkpt lat="48.440629" lon="2.668345"><ele></ele><time>2020-1-11T7:23:52Z</time></trkpt>
<trkpt lat="48.440736" lon="2.668402"><ele></ele><time>2020-1-11T7:23:55Z</time></trkpt>
<trkpt lat="48.440818" lon="2.668481"><ele></ele><time>2020-1-11T7:23:58Z</time></trkpt>
<trkpt lat="48.440948" lon="2.668542"><ele></ele><time>2020-1-11T7:24:1Z</time></trkpt>
<trkpt lat="48.441065" lon="2.668591"><ele></ele><time>2020-1-11T7:24:4Z</time></trkpt>
<trkpt lat="48.441211" lon="2.668668"><ele></ele><time>2020-1-11T7:24:7Z</time></trkpt>
<trkpt lat="48.441353" lon="2.668754"><ele></ele><time>2020-1-11T7:24:10Z</time></trkpt>
<trkpt lat="48.441465" lon="2.668881"><ele></ele><time>2020-1-11T7:24:13Z</time></trkpt>
<trkpt lat="48.441616" lon="2.668977"><ele></ele><time>2020-1-11T7:24:16Z</time></trkpt>
<trkpt lat="48.44175" lon="2.669057"><ele></ele><time>2020-1-11T7:24:19Z</time></trkpt>
<trkpt lat="48.441842" lon="2.669111"><ele></ele><time>2020-1-11T7:24:22Z</time></trkpt>
<trkpt lat="48.441962" lon="2.6692"><ele></ele><time>2020-1-11T7:24:25Z</time></trkpt>
<trkpt lat="48.442075" lon="2.669254"><ele></ele><time>2020-1-11T7:24:28Z</time></trkpt>
<trkpt lat="48.442173" lon="2.669316"><ele></ele><time>2020-1-11T7:24:31Z</time></trkpt>
<trkpt lat="48.442275" lon="2.669353"><ele></ele><time>2020-1-11T7:24:34Z</time></trkpt>
<trkpt lat="48.442375" lon="2.669414"><ele></ele><time>2020-1-11T7:24:37Z</time></trkpt>
<trkpt lat="48.442494" lon="2.669461"><ele></ele><time>2020-1-11T7:24:40Z</time></trkpt>
<trkpt lat="48.442588" lon="2.669442"><ele></ele><time>2020-1-11T7:24:43Z</time></trkpt>
<trkpt lat="48.442691" lon="2.669409"><ele></ele><time>2020-1-11T7:24:46Z</time></trkpt>
<trkpt lat="48.442824" lon="2.669388"><ele></ele><time>2020-1-11T7:24:49Z</time></trkpt>
<trkpt lat="48.442943" lon="2.669338"><ele></ele><time>2020-1-11T7:24:52Z</time></trkpt>
<trkpt lat="48.443044" lon="2.669381"><ele></ele><time>2020-1-11T7:24:55Z</time></trkpt>
<trkpt lat="48.443115" lon="2.66949"><ele></ele><time>2020-1-11T7:24:58Z</time></trkpt>
<trkpt lat="48.443218" lon="2.669525"><ele></ele><time>2020-1-11T7:25:1Z</time></trkpt>
<trkpt lat="48.443312" lon="2.669562"><ele></ele><time>2020-1-11T7:25:4Z</time></trkpt>
<trkpt lat="48.443443" lon="2.669624"><ele></ele><time>2020-1-11T7:25:7Z</time></trkpt>
<trkpt lat="48.443539" lon="2.669782"><ele></ele><time>2020-1-11T7:25:10Z</time></trkpt>
<trkpt lat="48.443664" lon="2.66991"><ele></ele><time>2020-1-11T7:25:13Z</time></trkpt>
<trkpt lat="48.44374" lon="2.669806"><ele></ele><time>2020-1-11T7:25:16Z</time></trkpt>
<trkpt lat="48.443756" lon="2.669649"><ele></ele><time>2020-1-11T7:25:19Z</time></trkpt>
<trkpt lat="48.443781" lon="2.669508"><ele></ele><time>2020-1-11T7:25:22Z</time></trkpt>
<trkpt lat="48.443832" lon="2.669337"><ele></ele><time>2020-1-11T7:25:25Z</time></trkpt>
<trkpt lat="48.443922" lon="2.669178"><ele></ele><time>2020-1-11T7:25:28Z</time></trkpt>
<trkpt lat="48.444004" lon="2.66909"><ele></ele><time>2020-1-11T7:25:31Z</time></trkpt>
<trkpt lat="48.444131" lon="2.668965"><ele></ele><time>2020-1-11T7:25:34Z</time></trkpt>
<trkpt lat="48.444255" lon="2.668804"><ele></ele><time>2020-1-11T7:25:37Z</time></trkpt>
<trkpt lat="48.444327" lon="2.668685"><ele></ele><time>2020-1-11T7:25:40Z</time></trkpt>
<trkpt lat="48.444456" lon="2.668535"><ele></ele><time>2020-1-11T7:25:43Z</time></trkpt>
<trkpt lat="48.444528" lon="2.668409"><ele></ele><time>2020-1-11T7:25:46Z</time></trkpt>
<trkpt lat="48.444643" lon="2.66822"><ele></ele><time>2020-1-11T7:25:49Z</time></trkpt>
<trkpt lat="48.444719" lon="2.668119"><ele></ele><time>2020-1-11T7:25:52Z</time></trkpt>
<trkpt lat="48.444788" lon="2.668026"><ele></ele><time>2020-1-11T7:25:55Z</time></trkpt>
<trkpt lat="48.444952" lon="2.667879"><ele></ele><time>2020-1-11T7:25:58Z</time></trkpt>
<trkpt lat="48.445038" lon="2.66782"><ele></ele><time>2020-1-11T7:26:1Z</time></trkpt>
<trkpt lat="48.445169" lon="2.667687"><ele></ele><time>2020-1-11T7:26:4Z</time></trkpt>
<trkpt lat="48.445249" lon="2.667609"><ele></ele><time>2020-1-11T7:26:7Z</time></trkpt>
<trkpt lat="48.445318" lon="2.667522"><ele></ele><time>2020-1-11T7:26:10Z</time></trkpt>
<trkpt lat="48.445429" lon="2.667363"><ele></ele><time>2020-1-11T7:26:13Z</time></trkpt>
<trkpt lat="48.445554" lon="2.667243"><ele></ele><time>2020-1-11T7:26:16Z</time></trkpt>
<trkpt lat="48.445679" lon="2.667146"><ele></ele><time>2020-1-11T7:26:19Z</time></trkpt>
<trkpt lat="48.445752" lon="2.667015"><ele></ele><time>2020-1-11T7:26:22Z</time></trkpt>
<trkpt lat="48.445842" lon="2.666845"><ele></ele><time>2020-1-11T7:26:25Z</time></trkpt>
<trkpt lat="48.445981" lon="2.666737"><ele></ele><time>2020-1-11T7:26:28Z</time></trkpt>
<trkpt lat="48.446067" lon="2.666652"><ele></ele><time>2020-1-11T7:26:31Z</time></trkpt>
<trkpt lat="48.446146" lon="2.66657"><ele></ele><time>2020-1-11T7:26:34Z</time></trkpt>
<trkpt lat="48.446271" lon="2.666383"><ele></ele><time>2020-1-11T7:26:37Z</time></trkpt>
<trkpt lat="48.446343" lon="2.666293"><ele></ele><time>2020-1-11T7:26:40Z</time></trkpt>
<trkpt lat="48.446542" lon="2.666118"><ele></ele><time>2020-1-11T7:26:43Z</time></trkpt>
<trkpt lat="48.446604" lon="2.666018"><ele></ele><time>2020-1-11T7:26:46Z</time></trkpt>
<trkpt lat="48.44667" lon="2.665919"><ele></ele><time>2020-1-11T7:26:49Z</time></trkpt>
<trkpt lat="48.446745" lon="2.665799"><ele></ele><time>2020-1-11T7:26:52Z</time></trkpt>
<trkpt lat="48.446857" lon="2.665719"><ele></ele><time>2020-1-11T7:26:55Z</time></trkpt>
<trkpt lat="48.446981" lon="2.665631"><ele></ele><time>2020-1-11T7:26:58Z</time></trkpt>
<trkpt lat="48.447073" lon="2.665475"><ele></ele><time>2020-1-11T7:27:1Z</time></trkpt>
<trkpt lat="48.447197" lon="2.665247"><ele></ele><time>2020-1-11T7:27:4Z</time></trkpt>
<trkpt lat="48.447311" lon="2.665051"><ele></ele><time>2020-1-11T7:27:7Z</time></trkpt>
<trkpt lat="48.447394" lon="2.664935"><ele></ele><time>2020-1-11T7:27:10Z</time></trkpt>
<trkpt lat="48.447464" lon="2.66484"><ele></ele><time>2020-1-11T7:27:13Z</time></trkpt>
<trkpt lat="48.447547" lon="2.664736"><ele></ele><time>2020-1-11T7:27:16Z</time></trkpt>
<trkpt lat="48.44766" lon="2.664581"><ele></ele><time>2020-1-11T7:27:19Z</time></trkpt>
<trkpt lat="48.447784" lon="2.664433"><ele></ele><time>2020-1-11T7:27:22Z</time></trkpt>
<trkpt lat="48.447885" lon="2.664309"><ele></ele><time>2020-1-11T7:27:25Z</time></trkpt>
<trkpt lat="48.448002" lon="2.664177"><ele></ele><time>2020-1-11T7:27:28Z</time></trkpt>
<trkpt lat="48.448147" lon="2.664048"><ele></ele><time>2020-1-11T7:27:31Z</time></trkpt>
<trkpt lat="48.448245" lon="2.663903"><ele></ele><time>2020-1-11T7:27:34Z</time></trkpt>
<trkpt lat="48.448332" lon="2.663715"><ele></ele><time>2020-1-11T7:27:37Z</time></trkpt>
<trkpt lat="48.448425" lon="2.663554"><ele></ele><time>2020-1-11T7:27:40Z</time></trkpt>
<trkpt lat="48.448534" lon="2.663412"><ele></ele><time>2020-1-11T7:27:43Z</time></trkpt>
<trkpt lat="48.448644" lon="2.663316"><ele></ele><time>2020-1-11T7:27:46Z</time></trkpt>
<trkpt lat="48.448735" lon="2.663233"><ele></ele><time>2020-1-11T7:27:49Z</time></trkpt>
<trkpt lat="48.448827" lon="2.663149"><ele></ele><time>2020-1-11T7:27:52Z</time></trkpt>
<trkpt lat="48.448924" lon="2.663075"><ele></ele><time>2020-1-11T7:27:55Z</time></trkpt>
<trkpt lat="48.449008" lon="2.663002"><ele></ele><time>2020-1-11T7:27:58Z</time></trkpt>
<trkpt lat="48.449099" lon="2.662954"><ele></ele><time>2020-1-11T7:28:1Z</time></trkpt>
<trkpt lat="48.449189" lon="2.662922"><ele></ele><time>2020-1-11T7:28:4Z</time></trkpt>
<trkpt lat="48.449319" lon="2.662801"><ele></ele><time>2020-1-11T7:28:7Z</time></trkpt>
<trkpt lat="48.44938" lon="2.6627"><ele></ele><time>2020-1-11T7:28:10Z</time></trkpt>
<trkpt lat="48.449496" lon="2.662548"><ele></ele><time>2020-1-11T7:28:13Z</time></trkpt>
<trkpt lat="48.449586" lon="2.662422"><ele></ele><time>2020-1-11T7:28:16Z</time></trkpt>
<trkpt lat="48.449703" lon="2.662239"><ele></ele><time>2020-1-11T7:28:19Z</time></trkpt>
<trkpt lat="48.449821" lon="2.662067"><ele></ele><time>2020-1-11T7:28:22Z</time></trkpt>
<trkpt lat="48.449923" lon="2.661899"><ele></ele><time>2020-1-11T7:28:25Z</time></trkpt>
<trkpt lat="48.449985" lon="2.661757"><ele></ele><time>2020-1-11T7:28:28Z</time></trkpt>
<trkpt lat="48.450087" lon="2.661591"><ele></ele><time>2020-1-11T7:28:31Z</time></trkpt>
<trkpt lat="48.450197" lon="2.661431"><ele></ele><time>2020-1-11T7:28:34Z</time></trkpt>
<trkpt lat="48.450317" lon="2.66132"><ele></ele><time>2020-1-11T7:28:37Z</time></trkpt>
<trkpt lat="48.450452" lon="2.661161"><ele></ele><time>2020-1-11T7:28:40Z</time></trkpt>
<trkpt lat="48.450595" lon="2.661035"><ele></ele><time>2020-1-11T7:28:43Z</time></trkpt>
<trkpt lat="48.450709" lon="2.660896"><ele></ele><time>2020-1-11T7:28:46Z</time></trkpt>
<trkpt lat="48.450816" lon="2.660773"><ele></ele><time>2020-1-11T7:28:49Z</time></trkpt>
<trkpt lat="48.450972" lon="2.660615"><ele></ele><time>2020-1-11T7:28:52Z</time></trkpt>
<trkpt lat="48.451063" lon="2.660484"><ele></ele><time>2020-1-11T7:28:55Z</time></trkpt>
<trkpt lat="48.45115" lon="2.660357"><ele></ele><time>2020-1-11T7:28:58Z</time></trkpt>
<trkpt lat="48.451259" lon="2.660178"><ele></ele><time>2020-1-11T7:29:1Z</time></trkpt>
<trkpt lat="48.451337" lon="2.660074"><ele></ele><time>2020-1-11T7:29:4Z</time></trkpt>
<trkpt lat="48.451441" lon="2.659903"><ele></ele><time>2020-1-11T7:29:7Z</time></trkpt>
<trkpt lat="48.451554" lon="2.659761"><ele></ele><time>2020-1-11T7:29:10Z</time></trkpt>
<trkpt lat="48.451631" lon="2.659684"><ele></ele><time>2020-1-11T7:29:13Z</time></trkpt>
<trkpt lat="48.451731" lon="2.659575"><ele></ele><time>2020-1-11T7:29:16Z</time></trkpt>
<trkpt lat="48.451821" lon="2.659521"><ele></ele><time>2020-1-11T7:29:19Z</time></trkpt>
<trkpt lat="48.451925" lon="2.659497"><ele></ele><time>2020-1-11T7:29:22Z</time></trkpt>
<trkpt lat="48.45202" lon="2.659473"><ele></ele><time>2020-1-11T7:29:25Z</time></trkpt>
<trkpt lat="48.45211" lon="2.659492"><ele></ele><time>2020-1-11T7:29:28Z</time></trkpt>
<trkpt lat="48.45221" lon="2.659513"><ele></ele><time>2020-1-11T7:29:31Z</time></trkpt>
<trkpt lat="48.452305" lon="2.659547"><ele></ele><time>2020-1-11T7:29:34Z</time></trkpt>
<trkpt lat="48.452428" lon="2.659576"><ele></ele><time>2020-1-11T7:29:37Z</time></trkpt>
<trkpt lat="48.452537" lon="2.659618"><ele></ele><time>2020-1-11T7:29:40Z</time></trkpt>
<trkpt lat="48.452627" lon="2.659642"><ele></ele><time>2020-1-11T7:29:43Z</time></trkpt>
<trkpt lat="48.452717" lon="2.659647"><ele></ele><time>2020-1-11T7:29:46Z</time></trkpt>
<trkpt lat="48.452815" lon="2.659681"><ele></ele><time>2020-1-11T7:29:49Z</time></trkpt>
<trkpt lat="48.452907" lon="2.659702"><ele></ele><time>2020-1-11T7:29:52Z</time></trkpt>
<trkpt lat="48.453003" lon="2.659701"><ele></ele><time>2020-1-11T7:29:55Z</time></trkpt>
<trkpt lat="48.453149" lon="2.659695"><ele></ele><time>2020-1-11T7:29:58Z</time></trkpt>
<trkpt lat="48.45325" lon="2.659722"><ele></ele><time>2020-1-11T7:30:1Z</time></trkpt>
<trkpt lat="48.453367" lon="2.659726"><ele></ele><time>2020-1-11T7:30:4Z</time></trkpt>
<trkpt lat="48.453499" lon="2.659733"><ele></ele><time>2020-1-11T7:30:7Z</time></trkpt>
<trkpt lat="48.453628" lon="2.659725"><ele></ele><time>2020-1-11T7:30:10Z</time></trkpt>
<trkpt lat="48.453751" lon="2.659725"><ele></ele><time>2020-1-11T7:30:13Z</time></trkpt>
<trkpt lat="48.453861" lon="2.659754"><ele></ele><time>2020-1-11T7:30:16Z</time></trkpt>
<trkpt lat="48.453999" lon="2.659754"><ele></ele><time>2020-1-11T7:30:19Z</time></trkpt>
<trkpt lat="48.45409" lon="2.659766"><ele></ele><time>2020-1-11T7:30:22Z</time></trkpt>
<trkpt lat="48.4542" lon="2.65978"><ele></ele><time>2020-1-11T7:30:25Z</time></trkpt>
<trkpt lat="48.454331" lon="2.659797"><ele></ele><time>2020-1-11T7:30:28Z</time></trkpt>
<trkpt lat="48.454461" lon="2.659826"><ele></ele><time>2020-1-11T7:30:31Z</time></trkpt>
<trkpt lat="48.454577" lon="2.659837"><ele></ele><time>2020-1-11T7:30:34Z</time></trkpt>
<trkpt lat="48.454686" lon="2.659858"><ele></ele><time>2020-1-11T7:30:37Z</time></trkpt>
<trkpt lat="48.454776" lon="2.659886"><ele></ele><time>2020-1-11T7:30:40Z</time></trkpt>
<trkpt lat="48.454871" lon="2.659881"><ele></ele><time>2020-1-11T7:30:43Z</time></trkpt>
<trkpt lat="48.454972" lon="2.659909"><ele></ele><time>2020-1-11T7:30:46Z</time></trkpt>
<trkpt lat="48.455112" lon="2.659946"><ele></ele><time>2020-1-11T7:30:49Z</time></trkpt>
<trkpt lat="48.455216" lon="2.659961"><ele></ele><time>2020-1-11T7:30:52Z</time></trkpt>
<trkpt lat="48.455357" lon="2.660002"><ele></ele><time>2020-1-11T7:30:55Z</time></trkpt>
<trkpt lat="48.455454" lon="2.660019"><ele></ele><time>2020-1-11T7:30:58Z</time></trkpt>
<trkpt lat="48.455554" lon="2.660032"><ele></ele><time>2020-1-11T7:31:1Z</time></trkpt>
<trkpt lat="48.455671" lon="2.660044"><ele></ele><time>2020-1-11T7:31:4Z</time></trkpt>
<trkpt lat="48.455783" lon="2.660052"><ele></ele><time>2020-1-11T7:31:7Z</time></trkpt>
<trkpt lat="48.455893" lon="2.660067"><ele></ele><time>2020-1-11T7:31:10Z</time></trkpt>
<trkpt lat="48.455985" lon="2.660102"><ele></ele><time>2020-1-11T7:31:13Z</time></trkpt>
<trkpt lat="48.456083" lon="2.660068"><ele></ele><time>2020-1-11T7:31:16Z</time></trkpt>
<trkpt lat="48.456156" lon="2.659925"><ele></ele><time>2020-1-11T7:31:19Z</time></trkpt>
<trkpt lat="48.45621" lon="2.659754"><ele></ele><time>2020-1-11T7:31:22Z</time></trkpt>
<trkpt lat="48.456257" lon="2.659595"><ele></ele><time>2020-1-11T7:31:25Z</time></trkpt>
<trkpt lat="48.456316" lon="2.659416"><ele></ele><time>2020-1-11T7:31:28Z</time></trkpt>
<trkpt lat="48.456354" lon="2.659283"><ele></ele><time>2020-1-11T7:31:31Z</time></trkpt>
<trkpt lat="48.456409" lon="2.659164"><ele></ele><time>2020-1-11T7:31:34Z</time></trkpt>
<trkpt lat="48.456456" lon="2.659036"><ele></ele><time>2020-1-11T7:31:37Z</time></trkpt>
<trkpt lat="48.4565" lon="2.65889"><ele></ele><time>2020-1-11T7:31:40Z</time></trkpt>
<trkpt lat="48.456553" lon="2.65868"><ele></ele><time>2020-1-11T7:31:43Z</time></trkpt>
<trkpt lat="48.456582" lon="2.658511"><ele></ele><time>2020-1-11T7:31:46Z</time></trkpt>
<trkpt lat="48.456621" lon="2.658365"><ele></ele><time>2020-1-11T7:31:49Z</time></trkpt>
<trkpt lat="48.456697" lon="2.658171"><ele></ele><time>2020-1-11T7:31:52Z</time></trkpt>
<trkpt lat="48.456747" lon="2.658056"><ele></ele><time>2020-1-11T7:31:55Z</time></trkpt>
<trkpt lat="48.456856" lon="2.657999"><ele></ele><time>2020-1-11T7:31:58Z</time></trkpt>
<trkpt lat="48.45697" lon="2.657915"><ele></ele><time>2020-1-11T7:32:1Z</time></trkpt>
<trkpt lat="48.457067" lon="2.657829"><ele></ele><time>2020-1-11T7:32:4Z</time></trkpt>
<trkpt lat="48.457166" lon="2.6578"><ele></ele><time>2020-1-11T7:32:7Z</time></trkpt>
<trkpt lat="48.457273" lon="2.657723"><ele></ele><time>2020-1-11T7:32:10Z</time></trkpt>
<trkpt lat="48.457364" lon="2.657686"><ele></ele><time>2020-1-11T7:32:13Z</time></trkpt>
<trkpt lat="48.45746" lon="2.657737"><ele></ele><time>2020-1-11T7:32:16Z</time></trkpt>
<trkpt lat="48.4575" lon="2.657869"><ele></ele><time>2020-1-11T7:32:19Z</time></trkpt>
<trkpt lat="48.457572" lon="2.657986"><ele></ele><time>2020-1-11T7:32:22Z</time></trkpt>
<trkpt lat="48.457659" lon="2.658057"><ele></ele><time>2020-1-11T7:32:25Z</time></trkpt>
<trkpt lat="48.457746" lon="2.658144"><ele></ele><time>2020-1-11T7:32:28Z</time></trkpt>
<trkpt lat="48.457844" lon="2.658189"><ele></ele><time>2020-1-11T7:32:31Z</time></trkpt>
<trkpt lat="48.458001" lon="2.658322"><ele></ele><time>2020-1-11T7:32:34Z</time></trkpt>
<trkpt lat="48.45805" lon="2.658444"><ele></ele><time>2020-1-11T7:32:37Z</time></trkpt>
<trkpt lat="48.458098" lon="2.658584"><ele></ele><time>2020-1-11T7:32:40Z</time></trkpt>
<trkpt lat="48.458135" lon="2.658745"><ele></ele><time>2020-1-11T7:32:43Z</time></trkpt>
<trkpt lat="48.458208" lon="2.658837"><ele></ele><time>2020-1-11T7:32:46Z</time></trkpt>
<trkpt lat="48.458301" lon="2.658964"><ele></ele><time>2020-1-11T7:32:49Z</time></trkpt>
<trkpt lat="48.458414" lon="2.659082"><ele></ele><time>2020-1-11T7:32:52Z</time></trkpt>
<trkpt lat="48.458464" lon="2.65925"><ele></ele><time>2020-1-11T7:32:55Z</time></trkpt>
<trkpt lat="48.458515" lon="2.65941"><ele></ele><time>2020-1-11T7:32:58Z</time></trkpt>
<trkpt lat="48.458518" lon="2.659575"><ele></ele><time>2020-1-11T7:33:1Z</time></trkpt>
<trkpt lat="48.458528" lon="2.65972"><ele></ele><time>2020-1-11T7:33:4Z</time></trkpt>
<trkpt lat="48.458506" lon="2.659924"><ele></ele><time>2020-1-11T7:33:7Z</time></trkpt>
<trkpt lat="48.458538" lon="2.660072"><ele></ele><time>2020-1-11T7:33:10Z</time></trkpt>
<trkpt lat="48.458563" lon="2.660315"><ele></ele><time>2020-1-11T7:33:13Z</time></trkpt>
<trkpt lat="48.458597" lon="2.660478"><ele></ele><time>2020-1-11T7:33:16Z</time></trkpt>
<trkpt lat="48.458665" lon="2.660675"><ele></ele><time>2020-1-11T7:33:19Z</time></trkpt>
<trkpt lat="48.458773" lon="2.660773"><ele></ele><time>2020-1-11T7:33:22Z</time></trkpt>
<trkpt lat="48.458894" lon="2.660817"><ele></ele><time>2020-1-11T7:33:25Z</time></trkpt>
<trkpt lat="48.458999" lon="2.6609"><ele></ele><time>2020-1-11T7:33:28Z</time></trkpt>
<trkpt lat="48.459113" lon="2.66097"><ele></ele><time>2020-1-11T7:33:31Z</time></trkpt>
<trkpt lat="48.459236" lon="2.661067"><ele></ele><time>2020-1-11T7:33:34Z</time></trkpt>
<trkpt lat="48.459342" lon="2.661125"><ele></ele><time>2020-1-11T7:33:37Z</time></trkpt>
<trkpt lat="48.459433" lon="2.661197"><ele></ele><time>2020-1-11T7:33:40Z</time></trkpt>
<trkpt lat="48.459551" lon="2.661282"><ele></ele><time>2020-1-11T7:33:43Z</time></trkpt>
<trkpt lat="48.459633" lon="2.661338"><ele></ele><time>2020-1-11T7:33:46Z</time></trkpt>
<trkpt lat="48.45977" lon="2.661366"><ele></ele><time>2020-1-11T7:33:49Z</time></trkpt>
<trkpt lat="48.459872" lon="2.661392"><ele></ele><time>2020-1-11T7:33:52Z</time></trkpt>
<trkpt lat="48.459951" lon="2.661321"><ele></ele><time>2020-1-11T7:33:55Z</time></trkpt>
<trkpt lat="48.460036" lon="2.661262"><ele></ele><time>2020-1-11T7:33:58Z</time></trkpt>
<trkpt lat="48.460139" lon="2.661221"><ele></ele><time>2020-1-11T7:34:1Z</time></trkpt>
<trkpt lat="48.460234" lon="2.661137"><ele></ele><time>2020-1-11T7:34:4Z</time></trkpt>
<trkpt lat="48.460321" lon="2.661061"><ele></ele><time>2020-1-11T7:34:7Z</time></trkpt>
<trkpt lat="48.460402" lon="2.660958"><ele></ele><time>2020-1-11T7:34:10Z</time></trkpt>
<trkpt lat="48.460488" lon="2.660859"><ele></ele><time>2020-1-11T7:34:13Z</time></trkpt>
<trkpt lat="48.460564" lon="2.660772"><ele></ele><time>2020-1-11T7:34:16Z</time></trkpt>
<trkpt lat="48.460641" lon="2.66067"><ele></ele><time>2020-1-11T7:34:19Z</time></trkpt>
<trkpt lat="48.460739" lon="2.660601"><ele></ele><time>2020-1-11T7:34:22Z</time></trkpt>
<trkpt lat="48.460837" lon="2.660598"><ele></ele><time>2020-1-11T7:34:25Z</time></trkpt>
<trkpt lat="48.46092" lon="2.66052"><ele></ele><time>2020-1-11T7:34:28Z</time></trkpt>
<trkpt lat="48.461019" lon="2.660433"><ele></ele><time>2020-1-11T7:34:31Z</time></trkpt>
<trkpt lat="48.461153" lon="2.660414"><ele></ele><time>2020-1-11T7:34:34Z</time></trkpt>
<trkpt lat="48.461247" lon="2.660439"><ele></ele><time>2020-1-11T7:34:37Z</time></trkpt>
<trkpt lat="48.461352" lon="2.660489"><ele></ele><time>2020-1-11T7:34:40Z</time></trkpt>
<trkpt lat="48.461451" lon="2.66054"><ele></ele><time>2020-1-11T7:34:43Z</time></trkpt>
<trkpt lat="48.461621" lon="2.660429"><ele></ele><time>2020-1-11T7:34:46Z</time></trkpt>
<trkpt lat="48.46175" lon="2.660387"><ele></ele><time>2020-1-11T7:34:49Z</time></trkpt>
<trkpt lat="48.461852" lon="2.660343"><ele></ele><time>2020-1-11T7:34:52Z</time></trkpt>
<trkpt lat="48.461951" lon="2.660392"><ele></ele><time>2020-1-11T7:34:55Z</time></trkpt>
<trkpt lat="48.462047" lon="2.66035"><ele></ele><time>2020-1-11T7:34:58Z</time></trkpt>
<trkpt lat="48.462167" lon="2.660255"><ele></ele><time>2020-1-11T7:35:1Z</time></trkpt>
<trkpt lat="48.462246" lon="2.660175"><ele></ele><time>2020-1-11T7:35:4Z</time></trkpt>
<trkpt lat="48.462331" lon="2.660094"><ele></ele><time>2020-1-11T7:35:7Z</time></trkpt>
<trkpt lat="48.462424" lon="2.66"><ele></ele><time>2020-1-11T7:35:10Z</time></trkpt>
<trkpt lat="48.462528" lon="2.659932"><ele></ele><time>2020-1-11T7:35:13Z</time></trkpt>
<trkpt lat="48.462635" lon="2.659871"><ele></ele><time>2020-1-11T7:35:16Z</time></trkpt>
<trkpt lat="48.462732" lon="2.659778"><ele></ele><time>2020-1-11T7:35:19Z</time></trkpt>
<trkpt lat="48.462835" lon="2.659716"><ele></ele><time>2020-1-11T7:35:22Z</time></trkpt>
<trkpt lat="48.462953" lon="2.659616"><ele></ele><time>2020-1-11T7:35:25Z</time></trkpt>
<trkpt lat="48.46304" lon="2.659548"><ele></ele><time>2020-1-11T7:35:28Z</time></trkpt>
<trkpt lat="48.46312" lon="2.659467"><ele></ele><time>2020-1-11T7:35:31Z</time></trkpt>
<trkpt lat="48.463224" lon="2.659385"><ele></ele><time>2020-1-11T7:35:34Z</time></trkpt>
<trkpt lat="48.46331" lon="2.659282"><ele></ele><time>2020-1-11T7:35:37Z</time></trkpt>
<trkpt lat="48.463395" lon="2.659217"><ele></ele><time>2020-1-11T7:35:40Z</time></trkpt>
<trkpt lat="48.463503" lon="2.659183"><ele></ele><time>2020-1-11T7:35:43Z</time></trkpt>
<trkpt lat="48.463621" lon="2.659074"><ele></ele><time>2020-1-11T7:35:46Z</time></trkpt>
<trkpt lat="48.463715" lon="2.659008"><ele></ele><time>2020-1-11T7:35:49Z</time></trkpt>
<trkpt lat="48.463803" lon="2.658914"><ele></ele><time>2020-1-11T7:35:52Z</time></trkpt>
<trkpt lat="48.463895" lon="2.658875"><ele></ele><time>2020-1-11T7:35:55Z</time></trkpt>
<trkpt lat="48.463982" lon="2.658787"><ele></ele><time>2020-1-11T7:35:58Z</time></trkpt>
<trkpt lat="48.464051" lon="2.658678"><ele></ele><time>2020-1-11T7:36:1Z</time></trkpt>
<trkpt lat="48.464133" lon="2.65862"><ele></ele><time>2020-1-11T7:36:4Z</time></trkpt>
<trkpt lat="48.464221" lon="2.658551"><ele></ele><time>2020-1-11T7:36:7Z</time></trkpt>
<trkpt lat="48.464324" lon="2.658457"><ele></ele><time>2020-1-11T7:36:10Z</time></trkpt>
<trkpt lat="48.464417" lon="2.658434"><ele></ele><time>2020-1-11T7:36:13Z</time></trkpt>
<trkpt lat="48.464543" lon="2.658403"><ele></ele><time>2020-1-11T7:36:16Z</time></trkpt>
<trkpt lat="48.46468" lon="2.65845"><ele></ele><time>2020-1-11T7:36:19Z</time></trkpt>
<trkpt lat="48.46478" lon="2.658473"><ele></ele><time>2020-1-11T7:36:22Z</time></trkpt>
<trkpt lat="48.464896" lon="2.658453"><ele></ele><time>2020-1-11T7:36:25Z</time></trkpt>
<trkpt lat="48.465006" lon="2.658395"><ele></ele><time>2020-1-11T7:36:28Z</time></trkpt>
<trkpt lat="48.46511" lon="2.658387"><ele></ele><time>2020-1-11T7:36:31Z</time></trkpt>
<trkpt lat="48.465222" lon="2.658361"><ele></ele><time>2020-1-11T7:36:34Z</time></trkpt>
<trkpt lat="48.465312" lon="2.658344"><ele></ele><time>2020-1-11T7:36:37Z</time></trkpt>
<trkpt lat="48.465407" lon="2.658326"><ele></ele><time>2020-1-11T7:36:40Z</time></trkpt>
<trkpt lat="48.465535" lon="2.658406"><ele></ele><time>2020-1-11T7:36:43Z</time></trkpt>
<trkpt lat="48.46567" lon="2.658471"><ele></ele><time>2020-1-11T7:36:46Z</time></trkpt>
<trkpt lat="48.465784" lon="2.658335"><ele></ele><time>2020-1-11T7:36:49Z</time></trkpt>
<trkpt lat="48.465915" lon="2.658243"><ele></ele><time>2020-1-11T7:36:52Z</time></trkpt>
<trkpt lat="48.466077" lon="2.658213"><ele></ele><time>2020-1-11T7:36:55Z</time></trkpt>
<trkpt lat="48.46628" lon="2.658255"><ele></ele><time>2020-1-11T7:36:58Z</time></trkpt>
<trkpt lat="48.46638" lon="2.658285"><ele></ele><time>2020-1-11T7:37:1Z</time></trkpt>
<trkpt lat="48.46658" lon="2.658294"><ele></ele><time>2020-1-11T7:37:4Z</time></trkpt>
<trkpt lat="48.46669" lon="2.658325"><ele></ele><time>2020-1-11T7:37:7Z</time></trkpt>
<trkpt lat="48.466853" lon="2.658335"><ele></ele><time>2020-1-11T7:37:10Z</time></trkpt>
<trkpt lat="48.467013" lon="2.658379"><ele></ele><time>2020-1-11T7:37:13Z</time></trkpt>
<trkpt lat="48.467107" lon="2.658415"><ele></ele><time>2020-1-11T7:37:16Z</time></trkpt>
<trkpt lat="48.467262" lon="2.658439"><ele></ele><time>2020-1-11T7:37:19Z</time></trkpt>
<trkpt lat="48.467422" lon="2.658422"><ele></ele><time>2020-1-11T7:37:22Z</time></trkpt>
<trkpt lat="48.467595" lon="2.658439"><ele></ele><time>2020-1-11T7:37:25Z</time></trkpt>
<trkpt lat="48.467742" lon="2.658454"><ele></ele><time>2020-1-11T7:37:28Z</time></trkpt>
<trkpt lat="48.467839" lon="2.658465"><ele></ele><time>2020-1-11T7:37:31Z</time></trkpt>
<trkpt lat="48.468009" lon="2.658481"><ele></ele><time>2020-1-11T7:37:34Z</time></trkpt>
<trkpt lat="48.46816" lon="2.658512"><ele></ele><time>2020-1-11T7:37:37Z</time></trkpt>
<trkpt lat="48.468327" lon="2.658542"><ele></ele><time>2020-1-11T7:37:40Z</time></trkpt>
<trkpt lat="48.468464" lon="2.658561"><ele></ele><time>2020-1-11T7:37:43Z</time></trkpt>
<trkpt lat="48.468661" lon="2.658549"><ele></ele><time>2020-1-11T7:37:46Z</time></trkpt>
<trkpt lat="48.468821" lon="2.658577"><ele></ele><time>2020-1-11T7:37:49Z</time></trkpt>
<trkpt lat="48.468978" lon="2.658589"><ele></ele><time>2020-1-11T7:37:52Z</time></trkpt>
<trkpt lat="48.469095" lon="2.658622"><ele></ele><time>2020-1-11T7:37:55Z</time></trkpt>
<trkpt lat="48.469199" lon="2.658649"><ele></ele><time>2020-1-11T7:37:58Z</time></trkpt>
<trkpt lat="48.469384" lon="2.658654"><ele></ele><time>2020-1-11T7:38:1Z</time></trkpt>
<trkpt lat="48.469488" lon="2.658667"><ele></ele><time>2020-1-11T7:38:4Z</time></trkpt>
<trkpt lat="48.469584" lon="2.658678"><ele></ele><time>2020-1-11T7:38:7Z</time></trkpt>
<trkpt lat="48.469757" lon="2.658711"><ele></ele><time>2020-1-11T7:38:10Z</time></trkpt>
<trkpt lat="48.469901" lon="2.658716"><ele></ele><time>2020-1-11T7:38:13Z</time></trkpt>
<trkpt lat="48.470067" lon="2.65873"><ele></ele><time>2020-1-11T7:38:16Z</time></trkpt>
<trkpt lat="48.470217" lon="2.658747"><ele></ele><time>2020-1-11T7:38:19Z</time></trkpt>
<trkpt lat="48.470325" lon="2.658748"><ele></ele><time>2020-1-11T7:38:22Z</time></trkpt>
<trkpt lat="48.470456" lon="2.658752"><ele></ele><time>2020-1-11T7:38:25Z</time></trkpt>
<trkpt lat="48.470617" lon="2.65879"><ele></ele><time>2020-1-11T7:38:28Z</time></trkpt>
<trkpt lat="48.470768" lon="2.658797"><ele></ele><time>2020-1-11T7:38:31Z</time></trkpt>
<trkpt lat="48.470895" lon="2.658818"><ele></ele><time>2020-1-11T7:38:34Z</time></trkpt>
<trkpt lat="48.471049" lon="2.658858"><ele></ele><time>2020-1-11T7:38:37Z</time></trkpt>
<trkpt lat="48.47117" lon="2.658818"><ele></ele><time>2020-1-11T7:38:40Z</time></trkpt>
<trkpt lat="48.471249" lon="2.658692"><ele></ele><time>2020-1-11T7:38:43Z</time></trkpt>
<trkpt lat="48.471336" lon="2.658581"><ele></ele><time>2020-1-11T7:38:46Z</time></trkpt>
<trkpt lat="48.471433" lon="2.65842"><ele></ele><time>2020-1-11T7:38:49Z</time></trkpt>
<trkpt lat="48.471522" lon="2.65832"><ele></ele><time>2020-1-11T7:38:52Z</time></trkpt>
<trkpt lat="48.471647" lon="2.658202"><ele></ele><time>2020-1-11T7:38:55Z</time></trkpt>
<trkpt lat="48.471784" lon="2.658036"><ele></ele><time>2020-1-11T7:38:58Z</time></trkpt>
<trkpt lat="48.471864" lon="2.657953"><ele></ele><time>2020-1-11T7:39:1Z</time></trkpt>
<trkpt lat="48.472016" lon="2.657811"><ele></ele><time>2020-1-11T7:39:4Z</time></trkpt>
<trkpt lat="48.472177" lon="2.657744"><ele></ele><time>2020-1-11T7:39:7Z</time></trkpt>
<trkpt lat="48.472264" lon="2.657669"><ele></ele><time>2020-1-11T7:39:10Z</time></trkpt>
<trkpt lat="48.472346" lon="2.657601"><ele></ele><time>2020-1-11T7:39:13Z</time></trkpt>
<trkpt lat="48.472479" lon="2.65746"><ele></ele><time>2020-1-11T7:39:16Z</time></trkpt>
<trkpt lat="48.472626" lon="2.657324"><ele></ele><time>2020-1-11T7:39:19Z</time></trkpt>
<trkpt lat="48.472783" lon="2.657201"><ele></ele><time>2020-1-11T7:39:22Z</time></trkpt>
<trkpt lat="48.472872" lon="2.657136"><ele></ele><time>2020-1-11T7:39:25Z</time></trkpt>
<trkpt lat="48.472954" lon="2.65708"><ele></ele><time>2020-1-11T7:39:28Z</time></trkpt>
<trkpt lat="48.473052" lon="2.657012"><ele></ele><time>2020-1-11T7:39:31Z</time></trkpt>
<trkpt lat="48.473151" lon="2.656949"><ele></ele><time>2020-1-11T7:39:34Z</time></trkpt>
<trkpt lat="48.473238" lon="2.656877"><ele></ele><time>2020-1-11T7:39:37Z</time></trkpt>
<trkpt lat="48.473327" lon="2.656818"><ele></ele><time>2020-1-11T7:39:40Z</time></trkpt>
<trkpt lat="48.473505" lon="2.656751"><ele></ele><time>2020-1-11T7:39:43Z</time></trkpt>
<trkpt lat="48.473658" lon="2.656649"><ele></ele><time>2020-1-11T7:39:46Z</time></trkpt>
<trkpt lat="48.473744" lon="2.656589"><ele></ele><time>2020-1-11T7:39:49Z</time></trkpt>
<trkpt lat="48.473836" lon="2.656489"><ele></ele><time>2020-1-11T7:39:52Z</time></trkpt>
<trkpt lat="48.473922" lon="2.65636"><ele></ele><time>2020-1-11T7:39:55Z</time></trkpt>
<trkpt lat="48.474001" lon="2.656258"><ele></ele><time>2020-1-11T7:39:58Z</time></trkpt>
<trkpt lat="48.474131" lon="2.656137"><ele></ele><time>2020-1-11T7:40:1Z</time></trkpt>
<trkpt lat="48.474263" lon="2.655974"><ele></ele><time>2020-1-11T7:40:4Z</time></trkpt>
<trkpt lat="48.474402" lon="2.655838"><ele></ele><time>2020-1-11T7:40:7Z</time></trkpt>
<trkpt lat="48.474554" lon="2.655684"><ele></ele><time>2020-1-11T7:40:10Z</time></trkpt>
<trkpt lat="48.474635" lon="2.655614"><ele></ele><time>2020-1-11T7:40:13Z</time></trkpt>
<trkpt lat="48.474779" lon="2.655479"><ele></ele><time>2020-1-11T7:40:16Z</time></trkpt>
<trkpt lat="48.474948" lon="2.655341"><ele></ele><time>2020-1-11T7:40:19Z</time></trkpt>
<trkpt lat="48.475097" lon="2.655231"><ele></ele><time>2020-1-11T7:40:22Z</time></trkpt>
<trkpt lat="48.475191" lon="2.655171"><ele></ele><time>2020-1-11T7:40:25Z</time></trkpt>
<trkpt lat="48.475276" lon="2.655104"><ele></ele><time>2020-1-11T7:40:28Z</time></trkpt>
<trkpt lat="48.475412" lon="2.654974"><ele></ele><time>2020-1-11T7:40:31Z</time></trkpt>
<trkpt lat="48.475631" lon="2.654799"><ele></ele><time>2020-1-11T7:40:34Z</time></trkpt>
<trkpt lat="48.475752" lon="2.654702"><ele></ele><time>2020-1-11T7:40:37Z</time></trkpt>
<trkpt lat="48.475911" lon="2.65455"><ele></ele><time>2020-1-11T7:40:40Z</time></trkpt>
<trkpt lat="48.476016" lon="2.654481"><ele></ele><time>2020-1-11T7:40:43Z</time></trkpt>
<trkpt lat="48.476115" lon="2.654402"><ele></ele><time>2020-1-11T7:40:46Z</time></trkpt>
<trkpt lat="48.476216" lon="2.654324"><ele></ele><time>2020-1-11T7:40:49Z</time></trkpt>
<trkpt lat="48.476298" lon="2.654243"><ele></ele><time>2020-1-11T7:40:52Z</time></trkpt>
<trkpt lat="48.476458" lon="2.654117"><ele></ele><time>2020-1-11T7:40:55Z</time></trkpt>
<trkpt lat="48.476608" lon="2.654014"><ele></ele><time>2020-1-11T7:40:58Z</time></trkpt>
<trkpt lat="48.476707" lon="2.653901"><ele></ele><time>2020-1-11T7:41:1Z</time></trkpt>
<trkpt lat="48.476868" lon="2.653726"><ele></ele><time>2020-1-11T7:41:4Z</time></trkpt>
<trkpt lat="48.476974" lon="2.653661"><ele></ele><time>2020-1-11T7:41:7Z</time></trkpt>
<trkpt lat="48.477107" lon="2.653537"><ele></ele><time>2020-1-11T7:41:10Z</time></trkpt>
<trkpt lat="48.477195" lon="2.653468"><ele></ele><time>2020-1-11T7:41:13Z</time></trkpt>
<trkpt lat="48.477331" lon="2.653311"><ele></ele><time>2020-1-11T7:41:16Z</time></trkpt>
<trkpt lat="48.477444" lon="2.653165"><ele></ele><time>2020-1-11T7:41:19Z</time></trkpt>
<trkpt lat="48.477577" lon="2.653031"><ele></ele><time>2020-1-11T7:41:22Z</time></trkpt>
<trkpt lat="48.477835" lon="2.652931"><ele></ele><time>2020-1-11T7:41:25Z</time></trkpt>
<trkpt lat="48.477925" lon="2.652868"><ele></ele><time>2020-1-11T7:41:28Z</time></trkpt>
<trkpt lat="48.478011" lon="2.652796"><ele></ele><time>2020-1-11T7:41:31Z</time></trkpt>
<trkpt lat="48.478107" lon="2.652758"><ele></ele><time>2020-1-11T7:41:34Z</time></trkpt>
<trkpt lat="48.478188" lon="2.652689"><ele></ele><time>2020-1-11T7:41:37Z</time></trkpt>
<trkpt lat="48.478322" lon="2.652574"><ele></ele><time>2020-1-11T7:41:40Z</time></trkpt>
<trkpt lat="48.478424" lon="2.65246"><ele></ele><time>2020-1-11T7:41:43Z</time></trkpt>
<trkpt lat="48.478521" lon="2.652364"><ele></ele><time>2020-1-11T7:41:46Z</time></trkpt>
<trkpt lat="48.47865" lon="2.652262"><ele></ele><time>2020-1-11T7:41:49Z</time></trkpt>
<trkpt lat="48.478802" lon="2.652192"><ele></ele><time>2020-1-11T7:41:52Z</time></trkpt>
<trkpt lat="48.478923" lon="2.65212"><ele></ele><time>2020-1-11T7:41:55Z</time></trkpt>
<trkpt lat="48.479045" lon="2.652042"><ele></ele><time>2020-1-11T7:41:58Z</time></trkpt>
<trkpt lat="48.479134" lon="2.651959"><ele></ele><time>2020-1-11T7:42:1Z</time></trkpt>
<trkpt lat="48.479227" lon="2.651878"><ele></ele><time>2020-1-11T7:42:4Z</time></trkpt>
<trkpt lat="48.47933" lon="2.651778"><ele></ele><time>2020-1-11T7:42:7Z</time></trkpt>
<trkpt lat="48.479387" lon="2.65166"><ele></ele><time>2020-1-11T7:42:10Z</time></trkpt>
<trkpt lat="48.479507" lon="2.651572"><ele></ele><time>2020-1-11T7:42:13Z</time></trkpt>
<trkpt lat="48.479615" lon="2.651485"><ele></ele><time>2020-1-11T7:42:16Z</time></trkpt>
<trkpt lat="48.47976" lon="2.65135"><ele></ele><time>2020-1-11T7:42:19Z</time></trkpt>
<trkpt lat="48.479872" lon="2.651254"><ele></ele><time>2020-1-11T7:42:22Z</time></trkpt>
<trkpt lat="48.479986" lon="2.651163"><ele></ele><time>2020-1-11T7:42:25Z</time></trkpt>
<trkpt lat="48.480126" lon="2.651071"><ele></ele><time>2020-1-11T7:42:28Z</time></trkpt>
<trkpt lat="48.480237" lon="2.650985"><ele></ele><time>2020-1-11T7:42:31Z</time></trkpt>
<trkpt lat="48.480321" lon="2.650935"><ele></ele><time>2020-1-11T7:42:34Z</time></trkpt>
<trkpt lat="48.480456" lon="2.650852"><ele></ele><time>2020-1-11T7:42:37Z</time></trkpt>
<trkpt lat="48.480519" lon="2.650735"><ele></ele><time>2020-1-11T7:42:40Z</time></trkpt>
<trkpt lat="48.48061" lon="2.650605"><ele></ele><time>2020-1-11T7:42:43Z</time></trkpt>
<trkpt lat="48.480713" lon="2.650522"><ele></ele><time>2020-1-11T7:42:46Z</time></trkpt>
<trkpt lat="48.480818" lon="2.650466"><ele></ele><time>2020-1-11T7:42:49Z</time></trkpt>
<trkpt lat="48.480912" lon="2.650408"><ele></ele><time>2020-1-11T7:42:52Z</time></trkpt>
<trkpt lat="48.48101" lon="2.650301"><ele></ele><time>2020-1-11T7:42:55Z</time></trkpt>
<trkpt lat="48.481123" lon="2.650226"><ele></ele><time>2020-1-11T7:42:58Z</time></trkpt>
<trkpt lat="48.481227" lon="2.650158"><ele></ele><time>2020-1-11T7:43:1Z</time></trkpt>
<trkpt lat="48.481316" lon="2.650138"><ele></ele><time>2020-1-11T7:43:4Z</time></trkpt>
<trkpt lat="48.481402" lon="2.650076"><ele></ele><time>2020-1-11T7:43:7Z</time></trkpt>
<trkpt lat="48.481486" lon="2.649976"><ele></ele><time>2020-1-11T7:43:10Z</time></trkpt>
<trkpt lat="48.481566" lon="2.649906"><ele></ele><time>2020-1-11T7:43:13Z</time></trkpt>
<trkpt lat="48.48164" lon="2.649824"><ele></ele><time>2020-1-11T7:43:16Z</time></trkpt>
<trkpt lat="48.481733" lon="2.649741"><ele></ele><time>2020-1-11T7:43:19Z</time></trkpt>
<trkpt lat="48.481808" lon="2.649662"><ele></ele><time>2020-1-11T7:43:22Z</time></trkpt>
<trkpt lat="48.481885" lon="2.649591"><ele></ele><time>2020-1-11T7:43:25Z</time></trkpt>
<trkpt lat="48.48196" lon="2.649478"><ele></ele><time>2020-1-11T7:43:28Z</time></trkpt>
<trkpt lat="48.482043" lon="2.649424"><ele></ele><time>2020-1-11T7:43:31Z</time></trkpt>
<trkpt lat="48.482172" lon="2.649351"><ele></ele><time>2020-1-11T7:43:34Z</time></trkpt>
<trkpt lat="48.482248" lon="2.649272"><ele></ele><time>2020-1-11T7:43:37Z</time></trkpt>
<trkpt lat="48.482341" lon="2.64917"><ele></ele><time>2020-1-11T7:43:40Z</time></trkpt>
<trkpt lat="48.482454" lon="2.649112"><ele></ele><time>2020-1-11T7:43:43Z</time></trkpt>
<trkpt lat="48.482561" lon="2.649015"><ele></ele><time>2020-1-11T7:43:46Z</time></trkpt>
<trkpt lat="48.4827" lon="2.648931"><ele></ele><time>2020-1-11T7:43:49Z</time></trkpt>
<trkpt lat="48.482866" lon="2.648873"><ele></ele><time>2020-1-11T7:43:52Z</time></trkpt>
<trkpt lat="48.482997" lon="2.648801"><ele></ele><time>2020-1-11T7:43:55Z</time></trkpt>
<trkpt lat="48.48315" lon="2.648729"><ele></ele><time>2020-1-11T7:43:58Z</time></trkpt>
<trkpt lat="48.483299" lon="2.648635"><ele></ele><time>2020-1-11T7:44:1Z</time></trkpt>
<trkpt lat="48.483414" lon="2.648555"><ele></ele><time>2020-1-11T7:44:4Z</time></trkpt>
<trkpt lat="48.483499" lon="2.648484"><ele></ele><time>2020-1-11T7:44:7Z</time></trkpt>
<trkpt lat="48.483566" lon="2.64839"><ele></ele><time>2020-1-11T7:44:10Z</time></trkpt>
<trkpt lat="48.483634" lon="2.648284"><ele></ele><time>2020-1-11T7:44:13Z</time></trkpt>
<trkpt lat="48.48372" lon="2.64821"><ele></ele><time>2020-1-11T7:44:16Z</time></trkpt>
<trkpt lat="48.483809" lon="2.64804"><ele></ele><time>2020-1-11T7:44:19Z</time></trkpt>
<trkpt lat="48.483885" lon="2.647943"><ele></ele><time>2020-1-11T7:44:22Z</time></trkpt>
<trkpt lat="48.484007" lon="2.647851"><ele></ele><time>2020-1-11T7:44:25Z</time></trkpt>
<trkpt lat="48.484135" lon="2.647738"><ele></ele><time>2020-1-11T7:44:28Z</time></trkpt>
<trkpt lat="48.484273" lon="2.6476"><ele></ele><time>2020-1-11T7:44:31Z</time></trkpt>
<trkpt lat="48.484358" lon="2.647551"><ele></ele><time>2020-1-11T7:44:34Z</time></trkpt>
<trkpt lat="48.484506" lon="2.647487"><ele></ele><time>2020-1-11T7:44:37Z</time></trkpt>
<trkpt lat="48.484684" lon="2.647374"><ele></ele><time>2020-1-11T7:44:40Z</time></trkpt>
<trkpt lat="48.484774" lon="2.647317"><ele></ele><time>2020-1-11T7:44:43Z</time></trkpt>
<trkpt lat="48.484871" lon="2.647261"><ele></ele><time>2020-1-11T7:44:46Z</time></trkpt>
<trkpt lat="48.484952" lon="2.647162"><ele></ele><time>2020-1-11T7:44:49Z</time></trkpt>
<trkpt lat="48.48503" lon="2.647077"><ele></ele><time>2020-1-11T7:44:52Z</time></trkpt>
<trkpt lat="48.485125" lon="2.64698"><ele></ele><time>2020-1-11T7:44:55Z</time></trkpt>
<trkpt lat="48.485225" lon="2.646877"><ele></ele><time>2020-1-11T7:44:58Z</time></trkpt>
<trkpt lat="48.485316" lon="2.646777"><ele></ele><time>2020-1-11T7:45:1Z</time></trkpt>
<trkpt lat="48.485394" lon="2.646703"><ele></ele><time>2020-1-11T7:45:4Z</time></trkpt>
<trkpt lat="48.485481" lon="2.6466"><ele></ele><time>2020-1-11T7:45:7Z</time></trkpt>
<trkpt lat="48.485563" lon="2.646525"><ele></ele><time>2020-1-11T7:45:10Z</time></trkpt>
<trkpt lat="48.485671" lon="2.64644"><ele></ele><time>2020-1-11T7:45:13Z</time></trkpt>
<trkpt lat="48.485836" lon="2.646303"><ele></ele><time>2020-1-11T7:45:16Z</time></trkpt>
<trkpt lat="48.485968" lon="2.646181"><ele></ele><time>2020-1-11T7:45:19Z</time></trkpt>
<trkpt lat="48.486093" lon="2.646091"><ele></ele><time>2020-1-11T7:45:22Z</time></trkpt>
<trkpt lat="48.486195" lon="2.646011"><ele></ele><time>2020-1-11T7:45:25Z</time></trkpt>
<trkpt lat="48.486282" lon="2.645918"><ele></ele><time>2020-1-11T7:45:28Z</time></trkpt>
<trkpt lat="48.486369" lon="2.645851"><ele></ele><time>2020-1-11T7:45:31Z</time></trkpt>
<trkpt lat="48.486482" lon="2.645741"><ele></ele><time>2020-1-11T7:45:34Z</time></trkpt>
<trkpt lat="48.486607" lon="2.645645"><ele></ele><time>2020-1-11T7:45:37Z</time></trkpt>
<trkpt lat="48.486696" lon="2.645539"><ele></ele><time>2020-1-11T7:45:40Z</time></trkpt>
<trkpt lat="48.486791" lon="2.645471"><ele></ele><time>2020-1-11T7:45:43Z</time></trkpt>
<trkpt lat="48.486888" lon="2.645379"><ele></ele><time>2020-1-11T7:45:46Z</time></trkpt>
<trkpt lat="48.486985" lon="2.645293"><ele></ele><time>2020-1-11T7:45:49Z</time></trkpt>
<trkpt lat="48.487064" lon="2.645171"><ele></ele><time>2020-1-11T7:45:52Z</time></trkpt>
<trkpt lat="48.487195" lon="2.645091"><ele></ele><time>2020-1-11T7:45:55Z</time></trkpt>
<trkpt lat="48.487306" lon="2.645015"><ele></ele><time>2020-1-11T7:45:58Z</time></trkpt>
<trkpt lat="48.487417" lon="2.644916"><ele></ele><time>2020-1-11T7:46:1Z</time></trkpt>
<trkpt lat="48.48751" lon="2.644824"><ele></ele><time>2020-1-11T7:46:4Z</time></trkpt>
<trkpt lat="48.487591" lon="2.644746"><ele></ele><time>2020-1-11T7:46:7Z</time></trkpt>
<trkpt lat="48.487701" lon="2.644704"><ele></ele><time>2020-1-11T7:46:10Z</time></trkpt>
<trkpt lat="48.487822" lon="2.644603"><ele></ele><time>2020-1-11T7:46:13Z</time></trkpt>
<trkpt lat="48.487943" lon="2.644495"><ele></ele><time>2020-1-11T7:46:16Z</time></trkpt>
<trkpt lat="48.488078" lon="2.644438"><ele></ele><time>2020-1-11T7:46:19Z</time></trkpt>
<trkpt lat="48.488193" lon="2.644341"><ele></ele><time>2020-1-11T7:46:22Z</time></trkpt>
<trkpt lat="48.488305" lon="2.644249"><ele></ele><time>2020-1-11T7:46:25Z</time></trkpt>
<trkpt lat="48.488451" lon="2.644177"><ele></ele><time>2020-1-11T7:46:28Z</time></trkpt>
<trkpt lat="48.488561" lon="2.644103"><ele></ele><time>2020-1-11T7:46:31Z</time></trkpt>
<trkpt lat="48.488647" lon="2.644027"><ele></ele><time>2020-1-11T7:46:34Z</time></trkpt>
<trkpt lat="48.488741" lon="2.643974"><ele></ele><time>2020-1-11T7:46:37Z</time></trkpt>
<trkpt lat="48.48885" lon="2.643879"><ele></ele><time>2020-1-11T7:46:40Z</time></trkpt>
<trkpt lat="48.488974" lon="2.643812"><ele></ele><time>2020-1-11T7:46:43Z</time></trkpt>
<trkpt lat="48.489096" lon="2.643771"><ele></ele><time>2020-1-11T7:46:46Z</time></trkpt>
<trkpt lat="48.489206" lon="2.643697"><ele></ele><time>2020-1-11T7:46:49Z</time></trkpt>
<trkpt lat="48.489342" lon="2.64363"><ele></ele><time>2020-1-11T7:46:52Z</time></trkpt>
<trkpt lat="48.489468" lon="2.643584"><ele></ele><time>2020-1-11T7:46:55Z</time></trkpt>
<trkpt lat="48.489553" lon="2.643503"><ele></ele><time>2020-1-11T7:46:58Z</time></trkpt>
<trkpt lat="48.489666" lon="2.643379"><ele></ele><time>2020-1-11T7:47:1Z</time></trkpt>
<trkpt lat="48.489789" lon="2.643244"><ele></ele><time>2020-1-11T7:47:4Z</time></trkpt>
<trkpt lat="48.489892" lon="2.643108"><ele></ele><time>2020-1-11T7:47:7Z</time></trkpt>
<trkpt lat="48.49" lon="2.642963"><ele></ele><time>2020-1-11T7:47:10Z</time></trkpt>
<trkpt lat="48.490127" lon="2.642822"><ele></ele><time>2020-1-11T7:47:13Z</time></trkpt>
<trkpt lat="48.490219" lon="2.642669"><ele></ele><time>2020-1-11T7:47:16Z</time></trkpt>
<trkpt lat="48.490365" lon="2.642521"><ele></ele><time>2020-1-11T7:47:19Z</time></trkpt>
<trkpt lat="48.490466" lon="2.642423"><ele></ele><time>2020-1-11T7:47:22Z</time></trkpt>
<trkpt lat="48.490569" lon="2.642264"><ele></ele><time>2020-1-11T7:47:25Z</time></trkpt>
<trkpt lat="48.490672" lon="2.642089"><ele></ele><time>2020-1-11T7:47:28Z</time></trkpt>
<trkpt lat="48.490785" lon="2.641919"><ele></ele><time>2020-1-11T7:47:31Z</time></trkpt>
<trkpt lat="48.490922" lon="2.64177"><ele></ele><time>2020-1-11T7:47:34Z</time></trkpt>
<trkpt lat="48.491002" lon="2.641691"><ele></ele><time>2020-1-11T7:47:37Z</time></trkpt>
<trkpt lat="48.491135" lon="2.641533"><ele></ele><time>2020-1-11T7:47:40Z</time></trkpt>
<trkpt lat="48.491277" lon="2.641384"><ele></ele><time>2020-1-11T7:47:43Z</time></trkpt>
<trkpt lat="48.491348" lon="2.641288"><ele></ele><time>2020-1-11T7:47:46Z</time></trkpt>
<trkpt lat="48.491421" lon="2.641194"><ele></ele><time>2020-1-11T7:47:49Z</time></trkpt>
<trkpt lat="48.491544" lon="2.641021"><ele></ele><time>2020-1-11T7:47:52Z</time></trkpt>
<trkpt lat="48.491654" lon="2.640873"><ele></ele><time>2020-1-11T7:47:55Z</time></trkpt>
<trkpt lat="48.491806" lon="2.640687"><ele></ele><time>2020-1-11T7:47:58Z</time></trkpt>
<trkpt lat="48.491938" lon="2.640547"><ele></ele><time>2020-1-11T7:48:1Z</time></trkpt>
<trkpt lat="48.492053" lon="2.640389"><ele></ele><time>2020-1-11T7:48:4Z</time></trkpt>
<trkpt lat="48.492125" lon="2.640304"><ele></ele><time>2020-1-11T7:48:7Z</time></trkpt>
<trkpt lat="48.49223" lon="2.640164"><ele></ele><time>2020-1-11T7:48:10Z</time></trkpt>
<trkpt lat="48.492331" lon="2.640028"><ele></ele><time>2020-1-11T7:48:13Z</time></trkpt>
<trkpt lat="48.492447" lon="2.639914"><ele></ele><time>2020-1-11T7:48:16Z</time></trkpt>
<trkpt lat="48.492605" lon="2.639744"><ele></ele><time>2020-1-11T7:48:19Z</time></trkpt>
<trkpt lat="48.492715" lon="2.639619"><ele></ele><time>2020-1-11T7:48:22Z</time></trkpt>
<trkpt lat="48.492815" lon="2.639506"><ele></ele><time>2020-1-11T7:48:25Z</time></trkpt>
<trkpt lat="48.492974" lon="2.639432"><ele></ele><time>2020-1-11T7:48:28Z</time></trkpt>
<trkpt lat="48.493119" lon="2.639203"><ele></ele><time>2020-1-11T7:48:31Z</time></trkpt>
<trkpt lat="48.493233" lon="2.638995"><ele></ele><time>2020-1-11T7:48:34Z</time></trkpt>
<trkpt lat="48.493366" lon="2.638809"><ele></ele><time>2020-1-11T7:48:37Z</time></trkpt>
<trkpt lat="48.493442" lon="2.638714"><ele></ele><time>2020-1-11T7:48:40Z</time></trkpt>
<trkpt lat="48.493519" lon="2.638642"><ele></ele><time>2020-1-11T7:48:43Z</time></trkpt>
<trkpt lat="48.493602" lon="2.638564"><ele></ele><time>2020-1-11T7:48:46Z</time></trkpt>
<trkpt lat="48.493671" lon="2.63847"><ele></ele><time>2020-1-11T7:48:49Z</time></trkpt>
<trkpt lat="48.493747" lon="2.638376"><ele></ele><time>2020-1-11T7:48:52Z</time></trkpt>
<trkpt lat="48.493825" lon="2.638283"><ele></ele><time>2020-1-11T7:48:55Z</time></trkpt>
<trkpt lat="48.493904" lon="2.638187"><ele></ele><time>2020-1-11T7:48:58Z</time></trkpt>
<trkpt lat="48.493973" lon="2.638082"><ele></ele><time>2020-1-11T7:49:1Z</time></trkpt>
<trkpt lat="48.494053" lon="2.637982"><ele></ele><time>2020-1-11T7:49:4Z</time></trkpt>
<trkpt lat="48.494127" lon="2.637874"><ele></ele><time>2020-1-11T7:49:7Z</time></trkpt>
<trkpt lat="48.494217" lon="2.637786"><ele></ele><time>2020-1-11T7:49:10Z</time></trkpt>
<trkpt lat="48.494278" lon="2.637685"><ele></ele><time>2020-1-11T7:49:13Z</time></trkpt>
<trkpt lat="48.494366" lon="2.637597"><ele></ele><time>2020-1-11T7:49:16Z</time></trkpt>
<trkpt lat="48.494448" lon="2.637502"><ele></ele><time>2020-1-11T7:49:19Z</time></trkpt>
<trkpt lat="48.494525" lon="2.637409"><ele></ele><time>2020-1-11T7:49:22Z</time></trkpt>
<trkpt lat="48.494604" lon="2.637309"><ele></ele><time>2020-1-11T7:49:25Z</time></trkpt>
<trkpt lat="48.494688" lon="2.637212"><ele></ele><time>2020-1-11T7:49:28Z</time></trkpt>
<trkpt lat="48.494773" lon="2.637121"><ele></ele><time>2020-1-11T7:49:31Z</time></trkpt>
<trkpt lat="48.494844" lon="2.637019"><ele></ele><time>2020-1-11T7:49:34Z</time></trkpt>
<trkpt lat="48.494918" lon="2.636923"><ele></ele><time>2020-1-11T7:49:37Z</time></trkpt>
<trkpt lat="48.494994" lon="2.636823"><ele></ele><time>2020-1-11T7:49:40Z</time></trkpt>
<trkpt lat="48.495075" lon="2.636728"><ele></ele><time>2020-1-11T7:49:43Z</time></trkpt>
<trkpt lat="48.495158" lon="2.636624"><ele></ele><time>2020-1-11T7:49:46Z</time></trkpt>
<trkpt lat="48.495245" lon="2.63653"><ele></ele><time>2020-1-11T7:49:49Z</time></trkpt>
<trkpt lat="48.495333" lon="2.636419"><ele></ele><time>2020-1-11T7:49:52Z</time></trkpt>
<trkpt lat="48.49542" lon="2.636318"><ele></ele><time>2020-1-11T7:49:55Z</time></trkpt>
<trkpt lat="48.495503" lon="2.636207"><ele></ele><time>2020-1-11T7:49:58Z</time></trkpt>
<trkpt lat="48.495592" lon="2.63609"><ele></ele><time>2020-1-11T7:50:1Z</time></trkpt>
<trkpt lat="48.495676" lon="2.635978"><ele></ele><time>2020-1-11T7:50:4Z</time></trkpt>
<trkpt lat="48.495754" lon="2.635879"><ele></ele><time>2020-1-11T7:50:7Z</time></trkpt>
<trkpt lat="48.495891" lon="2.635705"><ele></ele><time>2020-1-11T7:50:10Z</time></trkpt>
<trkpt lat="48.495966" lon="2.635612"><ele></ele><time>2020-1-11T7:50:13Z</time></trkpt>
<trkpt lat="48.496037" lon="2.635522"><ele></ele><time>2020-1-11T7:50:16Z</time></trkpt>
<trkpt lat="48.496109" lon="2.635439"><ele></ele><time>2020-1-11T7:50:19Z</time></trkpt>
<trkpt lat="48.496173" lon="2.635342"><ele></ele><time>2020-1-11T7:50:22Z</time></trkpt>
<trkpt lat="48.496318" lon="2.63516"><ele></ele><time>2020-1-11T7:50:25Z</time></trkpt>
<trkpt lat="48.496432" lon="2.635024"><ele></ele><time>2020-1-11T7:50:28Z</time></trkpt>
<trkpt lat="48.496515" lon="2.634899"><ele></ele><time>2020-1-11T7:50:31Z</time></trkpt>
<trkpt lat="48.496576" lon="2.634788"><ele></ele><time>2020-1-11T7:50:34Z</time></trkpt>
<trkpt lat="48.496649" lon="2.634681"><ele></ele><time>2020-1-11T7:50:37Z</time></trkpt>
<trkpt lat="48.496669" lon="2.634653"><ele></ele><time>2020-1-11T7:50:40Z</time></trkpt>
</trkseg></trk></gpx>